<?xml version="1.0" encoding="UTF-8" standalone="yes"?>
<gpx
 xmlns="http://www.topografix.com/GPX/1/1"
 creator="OziExplorer Version 3956f - http://www.oziexplorer.com"
 version="1.1"
 xmlns:xsi="http://www.w3.org/2001/XMLSchema-instance"
 xsi:schemaLocation="http://www.topografix.com/GPX/1/1 http://www.topografix.com/GPX/1/1/gpx.xsd">
<metadata>
 <time>2021-05-07T10:57:53Z</time>
 <bounds minlat="31.784890" minlon="34.989900" maxlat="31.840880" maxlon="35.032160"/>
</metadata>
<trk>
 <name>EshtKanadaIlanMishl_30km</name>
 <desc>EshtKanadaIlanMishl_30km</desc>
<trkseg>
<trkpt lat="31.8119100" lon="35.0114300">
<ele>278.000000</ele>
<time>2021-05-07T13:57:53.152Z</time>
</trkpt>
<trkpt lat="31.8117500" lon="35.0121400">
<ele>278.899994</ele>
<time>2021-05-07T13:57:53.152Z</time>
</trkpt>
<trkpt lat="31.8115100" lon="35.0129000">
<ele>276.059998</ele>
<time>2021-05-07T13:57:53.152Z</time>
</trkpt>
<trkpt lat="31.8114300" lon="35.0133100">
<ele>275.579987</ele>
<time>2021-05-07T13:57:53.152Z</time>
</trkpt>
<trkpt lat="31.8112900" lon="35.0136100">
<ele>275.929993</ele>
<time>2021-05-07T13:57:53.152Z</time>
</trkpt>
<trkpt lat="31.8109800" lon="35.0141200">
<ele>276.490021</ele>
<time>2021-05-07T13:57:53.152Z</time>
</trkpt>
<trkpt lat="31.8105300" lon="35.0149400">
<ele>283.160004</ele>
<time>2021-05-07T13:57:53.152Z</time>
</trkpt>
<trkpt lat="31.8104700" lon="35.0151900">
<ele>285.110016</ele>
<time>2021-05-07T13:57:53.152Z</time>
</trkpt>
<trkpt lat="31.8103500" lon="35.0154900">
<ele>284.700012</ele>
<time>2021-05-07T13:57:53.152Z</time>
</trkpt>
<trkpt lat="31.8102800" lon="35.0157800">
<ele>283.200012</ele>
<time>2021-05-07T13:57:53.152Z</time>
</trkpt>
<trkpt lat="31.8101500" lon="35.0161200">
<ele>284.570007</ele>
<time>2021-05-07T13:57:53.152Z</time>
</trkpt>
<trkpt lat="31.8100100" lon="35.0165600">
<ele>284.130005</ele>
<time>2021-05-07T13:57:53.152Z</time>
</trkpt>
<trkpt lat="31.8098200" lon="35.0170700">
<ele>286.190002</ele>
<time>2021-05-07T13:57:53.152Z</time>
</trkpt>
<trkpt lat="31.8097200" lon="35.0173300">
<ele>286.399994</ele>
<time>2021-05-07T13:57:53.152Z</time>
</trkpt>
<trkpt lat="31.8097000" lon="35.0174500">
<ele>286.980011</ele>
<time>2021-05-07T13:57:53.152Z</time>
</trkpt>
<trkpt lat="31.8097700" lon="35.0175100">
<ele>287.029999</ele>
<time>2021-05-07T13:57:53.152Z</time>
</trkpt>
<trkpt lat="31.8098900" lon="35.0175200">
<ele>287.029999</ele>
<time>2021-05-07T13:57:53.152Z</time>
</trkpt>
<trkpt lat="31.8099600" lon="35.0176200">
<ele>287.059998</ele>
<time>2021-05-07T13:57:53.152Z</time>
</trkpt>
<trkpt lat="31.8099800" lon="35.0177300">
<ele>287.059998</ele>
<time>2021-05-07T13:57:53.152Z</time>
</trkpt>
<trkpt lat="31.8100100" lon="35.0178400">
<ele>287.320007</ele>
<time>2021-05-07T13:57:53.152Z</time>
</trkpt>
<trkpt lat="31.8101200" lon="35.0180100">
<ele>288.410004</ele>
<time>2021-05-07T13:57:53.153Z</time>
</trkpt>
<trkpt lat="31.8103300" lon="35.0182400">
<ele>291.079987</ele>
<time>2021-05-07T13:57:53.153Z</time>
</trkpt>
<trkpt lat="31.8106700" lon="35.0185500">
<ele>293.589996</ele>
<time>2021-05-07T13:57:53.153Z</time>
</trkpt>
<trkpt lat="31.8106900" lon="35.0185800">
<ele>293.519989</ele>
<time>2021-05-07T13:57:53.153Z</time>
</trkpt>
<trkpt lat="31.8107300" lon="35.0186200">
<ele>293.440002</ele>
<time>2021-05-07T13:57:53.154Z</time>
</trkpt>
<trkpt lat="31.8107600" lon="35.0187200">
<ele>294.230011</ele>
<time>2021-05-07T13:57:53.154Z</time>
</trkpt>
<trkpt lat="31.8107800" lon="35.0189500">
<ele>296.070007</ele>
<time>2021-05-07T13:57:53.154Z</time>
</trkpt>
<trkpt lat="31.8108300" lon="35.0191800">
<ele>297.190002</ele>
<time>2021-05-07T13:57:53.154Z</time>
</trkpt>
<trkpt lat="31.8108800" lon="35.0192900">
<ele>299.239990</ele>
<time>2021-05-07T13:57:53.154Z</time>
</trkpt>
<trkpt lat="31.8109200" lon="35.0193900">
<ele>300.519989</ele>
<time>2021-05-07T13:57:53.154Z</time>
</trkpt>
<trkpt lat="31.8109900" lon="35.0194700">
<ele>301.369995</ele>
<time>2021-05-07T13:57:53.154Z</time>
</trkpt>
<trkpt lat="31.8110700" lon="35.0195100">
<ele>301.940002</ele>
<time>2021-05-07T13:57:53.154Z</time>
</trkpt>
<trkpt lat="31.8111500" lon="35.0195700">
<ele>303.699982</ele>
<time>2021-05-07T13:57:53.154Z</time>
</trkpt>
<trkpt lat="31.8113900" lon="35.0197000">
<ele>307.330017</ele>
<time>2021-05-07T13:57:53.154Z</time>
</trkpt>
<trkpt lat="31.8115300" lon="35.0197800">
<ele>308.830017</ele>
<time>2021-05-07T13:57:53.154Z</time>
</trkpt>
<trkpt lat="31.8116100" lon="35.0198100">
<ele>309.769989</ele>
<time>2021-05-07T13:57:53.154Z</time>
</trkpt>
<trkpt lat="31.8117100" lon="35.0198300">
<ele>312.170013</ele>
<time>2021-05-07T13:57:53.154Z</time>
</trkpt>
<trkpt lat="31.8118000" lon="35.0198000">
<ele>315.980011</ele>
<time>2021-05-07T13:57:53.154Z</time>
</trkpt>
<trkpt lat="31.8118800" lon="35.0197300">
<ele>319.930023</ele>
<time>2021-05-07T13:57:53.154Z</time>
</trkpt>
<trkpt lat="31.8119200" lon="35.0195900">
<ele>320.199982</ele>
<time>2021-05-07T13:57:53.154Z</time>
</trkpt>
<trkpt lat="31.8121400" lon="35.0187800">
<ele>321.109985</ele>
<time>2021-05-07T13:57:53.154Z</time>
</trkpt>
<trkpt lat="31.8121800" lon="35.0187100">
<ele>321.989990</ele>
<time>2021-05-07T13:57:53.154Z</time>
</trkpt>
<trkpt lat="31.8122500" lon="35.0186900">
<ele>323.160004</ele>
<time>2021-05-07T13:57:53.154Z</time>
</trkpt>
<trkpt lat="31.8123400" lon="35.0186200">
<ele>323.449982</ele>
<time>2021-05-07T13:57:53.154Z</time>
</trkpt>
<trkpt lat="31.8126100" lon="35.0190300">
<ele>328.700012</ele>
<time>2021-05-07T13:57:53.154Z</time>
</trkpt>
<trkpt lat="31.8128700" lon="35.0191600">
<ele>329.720001</ele>
<time>2021-05-07T13:57:53.154Z</time>
</trkpt>
<trkpt lat="31.8133600" lon="35.0194500">
<ele>327.269989</ele>
<time>2021-05-07T13:57:53.154Z</time>
</trkpt>
<trkpt lat="31.8136700" lon="35.0195500">
<ele>328.190002</ele>
<time>2021-05-07T13:57:53.154Z</time>
</trkpt>
<trkpt lat="31.8139900" lon="35.0197500">
<ele>319.970001</ele>
<time>2021-05-07T13:57:53.154Z</time>
</trkpt>
<trkpt lat="31.8140000" lon="35.0197400">
<ele>319.670013</ele>
<time>2021-05-07T13:57:53.155Z</time>
</trkpt>
<trkpt lat="31.8146000" lon="35.0196100">
<ele>315.540009</ele>
<time>2021-05-07T13:57:53.155Z</time>
</trkpt>
<trkpt lat="31.8148200" lon="35.0194200">
<ele>319.200012</ele>
<time>2021-05-07T13:57:53.155Z</time>
</trkpt>
<trkpt lat="31.8149900" lon="35.0194000">
<ele>317.899994</ele>
<time>2021-05-07T13:57:53.155Z</time>
</trkpt>
<trkpt lat="31.8155700" lon="35.0192900">
<ele>303.929993</ele>
<time>2021-05-07T13:57:53.155Z</time>
</trkpt>
<trkpt lat="31.8158200" lon="35.0191700">
<ele>302.290009</ele>
<time>2021-05-07T13:57:53.155Z</time>
</trkpt>
<trkpt lat="31.8160600" lon="35.0191100">
<ele>297.070007</ele>
<time>2021-05-07T13:57:53.155Z</time>
</trkpt>
<trkpt lat="31.8164800" lon="35.0191000">
<ele>295.040009</ele>
<time>2021-05-07T13:57:53.155Z</time>
</trkpt>
<trkpt lat="31.8167300" lon="35.0190700">
<ele>291.440002</ele>
<time>2021-05-07T13:57:53.155Z</time>
</trkpt>
<trkpt lat="31.8168900" lon="35.0189500">
<ele>289.559998</ele>
<time>2021-05-07T13:57:53.155Z</time>
</trkpt>
<trkpt lat="31.8168800" lon="35.0190200">
<ele>289.459991</ele>
<time>2021-05-07T13:57:53.155Z</time>
</trkpt>
<trkpt lat="31.8168900" lon="35.0189500">
<ele>289.559998</ele>
<time>2021-05-07T13:57:53.155Z</time>
</trkpt>
<trkpt lat="31.8173600" lon="35.0186200">
<ele>291.860016</ele>
<time>2021-05-07T13:57:53.155Z</time>
</trkpt>
<trkpt lat="31.8175500" lon="35.0185600">
<ele>291.320007</ele>
<time>2021-05-07T13:57:53.155Z</time>
</trkpt>
<trkpt lat="31.8178800" lon="35.0183100">
<ele>287.380005</ele>
<time>2021-05-07T13:57:53.155Z</time>
</trkpt>
<trkpt lat="31.8181900" lon="35.0182300">
<ele>285.419983</ele>
<time>2021-05-07T13:57:53.155Z</time>
</trkpt>
<trkpt lat="31.8189400" lon="35.0181600">
<ele>276.250000</ele>
<time>2021-05-07T13:57:53.155Z</time>
</trkpt>
<trkpt lat="31.8192400" lon="35.0179300">
<ele>272.410004</ele>
<time>2021-05-07T13:57:53.155Z</time>
</trkpt>
<trkpt lat="31.8195900" lon="35.0175500">
<ele>274.440002</ele>
<time>2021-05-07T13:57:53.156Z</time>
</trkpt>
<trkpt lat="31.8196100" lon="35.0176100">
<ele>274.440002</ele>
<time>2021-05-07T13:57:53.156Z</time>
</trkpt>
<trkpt lat="31.8196700" lon="35.0176500">
<ele>274.709991</ele>
<time>2021-05-07T13:57:53.156Z</time>
</trkpt>
<trkpt lat="31.8202700" lon="35.0180100">
<ele>260.720001</ele>
<time>2021-05-07T13:57:53.156Z</time>
</trkpt>
<trkpt lat="31.8203400" lon="35.0180800">
<ele>258.970001</ele>
<time>2021-05-07T13:57:53.156Z</time>
</trkpt>
<trkpt lat="31.8203800" lon="35.0181900">
<ele>258.640015</ele>
<time>2021-05-07T13:57:53.156Z</time>
</trkpt>
<trkpt lat="31.8204100" lon="35.0184200">
<ele>258.919983</ele>
<time>2021-05-07T13:57:53.156Z</time>
</trkpt>
<trkpt lat="31.8204100" lon="35.0187100">
<ele>259.720001</ele>
<time>2021-05-07T13:57:53.156Z</time>
</trkpt>
<trkpt lat="31.8205000" lon="35.0188300">
<ele>259.700012</ele>
<time>2021-05-07T13:57:53.156Z</time>
</trkpt>
<trkpt lat="31.8206800" lon="35.0190800">
<ele>260.209991</ele>
<time>2021-05-07T13:57:53.156Z</time>
</trkpt>
<trkpt lat="31.8208800" lon="35.0192600">
<ele>259.450012</ele>
<time>2021-05-07T13:57:53.156Z</time>
</trkpt>
<trkpt lat="31.8210100" lon="35.0194100">
<ele>260.989990</ele>
<time>2021-05-07T13:57:53.156Z</time>
</trkpt>
<trkpt lat="31.8213300" lon="35.0196800">
<ele>263.580017</ele>
<time>2021-05-07T13:57:53.156Z</time>
</trkpt>
<trkpt lat="31.8215700" lon="35.0197800">
<ele>264.070007</ele>
<time>2021-05-07T13:57:53.156Z</time>
</trkpt>
<trkpt lat="31.8217100" lon="35.0196900">
<ele>263.589996</ele>
<time>2021-05-07T13:57:53.156Z</time>
</trkpt>
<trkpt lat="31.8218600" lon="35.0191900">
<ele>263.580017</ele>
<time>2021-05-07T13:57:53.156Z</time>
</trkpt>
<trkpt lat="31.8219800" lon="35.0187600">
<ele>263.209991</ele>
<time>2021-05-07T13:57:53.156Z</time>
</trkpt>
<trkpt lat="31.8219200" lon="35.0190300">
<ele>263.779999</ele>
<time>2021-05-07T13:57:53.157Z</time>
</trkpt>
<trkpt lat="31.8220500" lon="35.0189200">
<ele>262.859985</ele>
<time>2021-05-07T13:57:53.157Z</time>
</trkpt>
<trkpt lat="31.8221100" lon="35.0190000">
<ele>262.209991</ele>
<time>2021-05-07T13:57:53.157Z</time>
</trkpt>
<trkpt lat="31.8219500" lon="35.0195700">
<ele>262.010010</ele>
<time>2021-05-07T13:57:53.157Z</time>
</trkpt>
<trkpt lat="31.8218400" lon="35.0197600">
<ele>262.920013</ele>
<time>2021-05-07T13:57:53.157Z</time>
</trkpt>
<trkpt lat="31.8216500" lon="35.0199900">
<ele>264.059998</ele>
<time>2021-05-07T13:57:53.157Z</time>
</trkpt>
<trkpt lat="31.8214900" lon="35.0200700">
<ele>264.660004</ele>
<time>2021-05-07T13:57:53.157Z</time>
</trkpt>
<trkpt lat="31.8210800" lon="35.0205100">
<ele>260.790009</ele>
<time>2021-05-07T13:57:53.157Z</time>
</trkpt>
<trkpt lat="31.8210300" lon="35.0205900">
<ele>260.720001</ele>
<time>2021-05-07T13:57:53.157Z</time>
</trkpt>
<trkpt lat="31.8209600" lon="35.0208000">
<ele>261.589996</ele>
<time>2021-05-07T13:57:53.157Z</time>
</trkpt>
<trkpt lat="31.8209100" lon="35.0208700">
<ele>261.330017</ele>
<time>2021-05-07T13:57:53.157Z</time>
</trkpt>
<trkpt lat="31.8207900" lon="35.0210000">
<ele>260.950012</ele>
<time>2021-05-07T13:57:53.157Z</time>
</trkpt>
<trkpt lat="31.8202200" lon="35.0215800">
<ele>261.579987</ele>
<time>2021-05-07T13:57:53.157Z</time>
</trkpt>
<trkpt lat="31.8195800" lon="35.0222700">
<ele>267.429993</ele>
<time>2021-05-07T13:57:53.157Z</time>
</trkpt>
<trkpt lat="31.8193200" lon="35.0225500">
<ele>269.720001</ele>
<time>2021-05-07T13:57:53.157Z</time>
</trkpt>
<trkpt lat="31.8191300" lon="35.0229700">
<ele>273.369995</ele>
<time>2021-05-07T13:57:53.157Z</time>
</trkpt>
<trkpt lat="31.8191100" lon="35.0230500">
<ele>273.720001</ele>
<time>2021-05-07T13:57:53.157Z</time>
</trkpt>
<trkpt lat="31.8191100" lon="35.0230500">
<ele>273.720001</ele>
<time>2021-05-07T13:57:53.158Z</time>
</trkpt>
<trkpt lat="31.8191100" lon="35.0230500">
<ele>273.720001</ele>
<time>2021-05-07T13:57:53.158Z</time>
</trkpt>
<trkpt lat="31.8190000" lon="35.0233800">
<ele>273.470001</ele>
<time>2021-05-07T13:57:53.158Z</time>
</trkpt>
<trkpt lat="31.8190100" lon="35.0240000">
<ele>278.369995</ele>
<time>2021-05-07T13:57:53.158Z</time>
</trkpt>
<trkpt lat="31.8190600" lon="35.0244200">
<ele>283.559998</ele>
<time>2021-05-07T13:57:53.158Z</time>
</trkpt>
<trkpt lat="31.8191900" lon="35.0245600">
<ele>286.700012</ele>
<time>2021-05-07T13:57:53.158Z</time>
</trkpt>
<trkpt lat="31.8192600" lon="35.0247400">
<ele>289.570007</ele>
<time>2021-05-07T13:57:53.158Z</time>
</trkpt>
<trkpt lat="31.8192600" lon="35.0247400">
<ele>289.570007</ele>
<time>2021-05-07T13:57:53.158Z</time>
</trkpt>
<trkpt lat="31.8194600" lon="35.0252100">
<ele>296.679993</ele>
<time>2021-05-07T13:57:53.158Z</time>
</trkpt>
<trkpt lat="31.8195700" lon="35.0253900">
<ele>299.940002</ele>
<time>2021-05-07T13:57:53.158Z</time>
</trkpt>
<trkpt lat="31.8196600" lon="35.0254700">
<ele>302.940002</ele>
<time>2021-05-07T13:57:53.158Z</time>
</trkpt>
<trkpt lat="31.8197100" lon="35.0254900">
<ele>304.510010</ele>
<time>2021-05-07T13:57:53.158Z</time>
</trkpt>
<trkpt lat="31.8197000" lon="35.0254900">
<ele>304.260010</ele>
<time>2021-05-07T13:57:53.158Z</time>
</trkpt>
<trkpt lat="31.8197000" lon="35.0254900">
<ele>304.260010</ele>
<time>2021-05-07T13:57:53.158Z</time>
</trkpt>
<trkpt lat="31.8197500" lon="35.0255100">
<ele>305.049988</ele>
<time>2021-05-07T13:57:53.158Z</time>
</trkpt>
<trkpt lat="31.8199000" lon="35.0255700">
<ele>304.559998</ele>
<time>2021-05-07T13:57:53.158Z</time>
</trkpt>
<trkpt lat="31.8200600" lon="35.0256000">
<ele>304.019989</ele>
<time>2021-05-07T13:57:53.158Z</time>
</trkpt>
<trkpt lat="31.8202900" lon="35.0256300">
<ele>304.399994</ele>
<time>2021-05-07T13:57:53.158Z</time>
</trkpt>
<trkpt lat="31.8204900" lon="35.0257000">
<ele>303.229980</ele>
<time>2021-05-07T13:57:53.158Z</time>
</trkpt>
<trkpt lat="31.8206700" lon="35.0258000">
<ele>303.359985</ele>
<time>2021-05-07T13:57:53.158Z</time>
</trkpt>
<trkpt lat="31.8209300" lon="35.0259300">
<ele>301.910004</ele>
<time>2021-05-07T13:57:53.159Z</time>
</trkpt>
<trkpt lat="31.8212900" lon="35.0262000">
<ele>301.630005</ele>
<time>2021-05-07T13:57:53.159Z</time>
</trkpt>
<trkpt lat="31.8218200" lon="35.0264700">
<ele>299.720001</ele>
<time>2021-05-07T13:57:53.159Z</time>
</trkpt>
<trkpt lat="31.8223600" lon="35.0267000">
<ele>289.559998</ele>
<time>2021-05-07T13:57:53.159Z</time>
</trkpt>
<trkpt lat="31.8226800" lon="35.0268600">
<ele>287.739990</ele>
<time>2021-05-07T13:57:53.159Z</time>
</trkpt>
<trkpt lat="31.8231300" lon="35.0271000">
<ele>290.109985</ele>
<time>2021-05-07T13:57:53.159Z</time>
</trkpt>
<trkpt lat="31.8232200" lon="35.0271700">
<ele>289.880005</ele>
<time>2021-05-07T13:57:53.159Z</time>
</trkpt>
<trkpt lat="31.8234400" lon="35.0273700">
<ele>288.820007</ele>
<time>2021-05-07T13:57:53.159Z</time>
</trkpt>
<trkpt lat="31.8237000" lon="35.0276700">
<ele>293.239990</ele>
<time>2021-05-07T13:57:53.159Z</time>
</trkpt>
<trkpt lat="31.8239400" lon="35.0279700">
<ele>296.209991</ele>
<time>2021-05-07T13:57:53.159Z</time>
</trkpt>
<trkpt lat="31.8240300" lon="35.0280600">
<ele>295.949982</ele>
<time>2021-05-07T13:57:53.159Z</time>
</trkpt>
<trkpt lat="31.8241700" lon="35.0282300">
<ele>295.600006</ele>
<time>2021-05-07T13:57:53.159Z</time>
</trkpt>
<trkpt lat="31.8243800" lon="35.0284800">
<ele>293.850006</ele>
<time>2021-05-07T13:57:53.159Z</time>
</trkpt>
<trkpt lat="31.8249500" lon="35.0291800">
<ele>298.850006</ele>
<time>2021-05-07T13:57:53.159Z</time>
</trkpt>
<trkpt lat="31.8253000" lon="35.0296100">
<ele>300.679993</ele>
<time>2021-05-07T13:57:53.159Z</time>
</trkpt>
<trkpt lat="31.8253600" lon="35.0296700">
<ele>300.750000</ele>
<time>2021-05-07T13:57:53.159Z</time>
</trkpt>
<trkpt lat="31.8257200" lon="35.0301000">
<ele>300.089996</ele>
<time>2021-05-07T13:57:53.159Z</time>
</trkpt>
<trkpt lat="31.8260600" lon="35.0305100">
<ele>306.860016</ele>
<time>2021-05-07T13:57:53.159Z</time>
</trkpt>
<trkpt lat="31.8261300" lon="35.0305900">
<ele>306.609985</ele>
<time>2021-05-07T13:57:53.159Z</time>
</trkpt>
<trkpt lat="31.8262000" lon="35.0306700">
<ele>305.399994</ele>
<time>2021-05-07T13:57:53.159Z</time>
</trkpt>
<trkpt lat="31.8262700" lon="35.0307500">
<ele>304.059998</ele>
<time>2021-05-07T13:57:53.160Z</time>
</trkpt>
<trkpt lat="31.8263500" lon="35.0308300">
<ele>302.450012</ele>
<time>2021-05-07T13:57:53.160Z</time>
</trkpt>
<trkpt lat="31.8263800" lon="35.0308500">
<ele>301.739990</ele>
<time>2021-05-07T13:57:53.160Z</time>
</trkpt>
<trkpt lat="31.8264100" lon="35.0308700">
<ele>300.339996</ele>
<time>2021-05-07T13:57:53.160Z</time>
</trkpt>
<trkpt lat="31.8264400" lon="35.0308800">
<ele>298.910004</ele>
<time>2021-05-07T13:57:53.160Z</time>
</trkpt>
<trkpt lat="31.8264700" lon="35.0309000">
<ele>297.339996</ele>
<time>2021-05-07T13:57:53.160Z</time>
</trkpt>
<trkpt lat="31.8265000" lon="35.0309200">
<ele>295.829987</ele>
<time>2021-05-07T13:57:53.160Z</time>
</trkpt>
<trkpt lat="31.8265300" lon="35.0309300">
<ele>294.519989</ele>
<time>2021-05-07T13:57:53.160Z</time>
</trkpt>
<trkpt lat="31.8265700" lon="35.0309400">
<ele>292.869995</ele>
<time>2021-05-07T13:57:53.160Z</time>
</trkpt>
<trkpt lat="31.8266000" lon="35.0309500">
<ele>291.640015</ele>
<time>2021-05-07T13:57:53.160Z</time>
</trkpt>
<trkpt lat="31.8266300" lon="35.0309700">
<ele>290.339996</ele>
<time>2021-05-07T13:57:53.160Z</time>
</trkpt>
<trkpt lat="31.8266600" lon="35.0309700">
<ele>289.260010</ele>
<time>2021-05-07T13:57:53.160Z</time>
</trkpt>
<trkpt lat="31.8267000" lon="35.0309800">
<ele>288.889984</ele>
<time>2021-05-07T13:57:53.161Z</time>
</trkpt>
<trkpt lat="31.8267300" lon="35.0309900">
<ele>288.800018</ele>
<time>2021-05-07T13:57:53.161Z</time>
</trkpt>
<trkpt lat="31.8267600" lon="35.0309900">
<ele>288.769989</ele>
<time>2021-05-07T13:57:53.161Z</time>
</trkpt>
<trkpt lat="31.8268000" lon="35.0310000">
<ele>288.699982</ele>
<time>2021-05-07T13:57:53.161Z</time>
</trkpt>
<trkpt lat="31.8269000" lon="35.0310100">
<ele>288.649994</ele>
<time>2021-05-07T13:57:53.161Z</time>
</trkpt>
<trkpt lat="31.8270000" lon="35.0310100">
<ele>288.759979</ele>
<time>2021-05-07T13:57:53.161Z</time>
</trkpt>
<trkpt lat="31.8271800" lon="35.0310200">
<ele>289.239990</ele>
<time>2021-05-07T13:57:53.161Z</time>
</trkpt>
<trkpt lat="31.8273500" lon="35.0309800">
<ele>288.839996</ele>
<time>2021-05-07T13:57:53.161Z</time>
</trkpt>
<trkpt lat="31.8274200" lon="35.0309300">
<ele>288.230011</ele>
<time>2021-05-07T13:57:53.161Z</time>
</trkpt>
<trkpt lat="31.8275000" lon="35.0309100">
<ele>287.830017</ele>
<time>2021-05-07T13:57:53.161Z</time>
</trkpt>
<trkpt lat="31.8276800" lon="35.0309000">
<ele>287.899994</ele>
<time>2021-05-07T13:57:53.161Z</time>
</trkpt>
<trkpt lat="31.8280100" lon="35.0308900">
<ele>287.160004</ele>
<time>2021-05-07T13:57:53.161Z</time>
</trkpt>
<trkpt lat="31.8286500" lon="35.0308500">
<ele>301.519989</ele>
<time>2021-05-07T13:57:53.161Z</time>
</trkpt>
<trkpt lat="31.8287600" lon="35.0308400">
<ele>305.410004</ele>
<time>2021-05-07T13:57:53.161Z</time>
</trkpt>
<trkpt lat="31.8288700" lon="35.0308400">
<ele>309.369995</ele>
<time>2021-05-07T13:57:53.161Z</time>
</trkpt>
<trkpt lat="31.8292700" lon="35.0308900">
<ele>316.509979</ele>
<time>2021-05-07T13:57:53.161Z</time>
</trkpt>
<trkpt lat="31.8293400" lon="35.0309000">
<ele>317.270020</ele>
<time>2021-05-07T13:57:53.161Z</time>
</trkpt>
<trkpt lat="31.8294200" lon="35.0309500">
<ele>318.850006</ele>
<time>2021-05-07T13:57:53.162Z</time>
</trkpt>
<trkpt lat="31.8295700" lon="35.0311200">
<ele>321.919983</ele>
<time>2021-05-07T13:57:53.162Z</time>
</trkpt>
<trkpt lat="31.8297700" lon="35.0315300">
<ele>321.160004</ele>
<time>2021-05-07T13:57:53.162Z</time>
</trkpt>
<trkpt lat="31.8298100" lon="35.0316000">
<ele>323.500000</ele>
<time>2021-05-07T13:57:53.162Z</time>
</trkpt>
<trkpt lat="31.8298900" lon="35.0316800">
<ele>327.380005</ele>
<time>2021-05-07T13:57:53.162Z</time>
</trkpt>
<trkpt lat="31.8299700" lon="35.0317300">
<ele>329.619995</ele>
<time>2021-05-07T13:57:53.162Z</time>
</trkpt>
<trkpt lat="31.8301500" lon="35.0317800">
<ele>330.110016</ele>
<time>2021-05-07T13:57:53.162Z</time>
</trkpt>
<trkpt lat="31.8302500" lon="35.0317900">
<ele>330.209991</ele>
<time>2021-05-07T13:57:53.162Z</time>
</trkpt>
<trkpt lat="31.8304900" lon="35.0318200">
<ele>329.339996</ele>
<time>2021-05-07T13:57:53.162Z</time>
</trkpt>
<trkpt lat="31.8305900" lon="35.0318600">
<ele>327.630005</ele>
<time>2021-05-07T13:57:53.162Z</time>
</trkpt>
<trkpt lat="31.8310000" lon="35.0321600">
<ele>326.839996</ele>
<time>2021-05-07T13:57:53.162Z</time>
</trkpt>
<trkpt lat="31.8311000" lon="35.0319500">
<ele>323.999969</ele>
<time>2021-05-07T13:57:53.162Z</time>
</trkpt>
<trkpt lat="31.8311400" lon="35.0318400">
<ele>324.399994</ele>
<time>2021-05-07T13:57:53.162Z</time>
</trkpt>
<trkpt lat="31.8312000" lon="35.0316600">
<ele>324.670013</ele>
<time>2021-05-07T13:57:53.162Z</time>
</trkpt>
<trkpt lat="31.8312100" lon="35.0315000">
<ele>324.470032</ele>
<time>2021-05-07T13:57:53.162Z</time>
</trkpt>
<trkpt lat="31.8311600" lon="35.0312500">
<ele>324.619995</ele>
<time>2021-05-07T13:57:53.162Z</time>
</trkpt>
<trkpt lat="31.8310200" lon="35.0308400">
<ele>324.660004</ele>
<time>2021-05-07T13:57:53.162Z</time>
</trkpt>
<trkpt lat="31.8309500" lon="35.0306800">
<ele>324.139984</ele>
<time>2021-05-07T13:57:53.162Z</time>
</trkpt>
<trkpt lat="31.8308100" lon="35.0304900">
<ele>322.130005</ele>
<time>2021-05-07T13:57:53.162Z</time>
</trkpt>
<trkpt lat="31.8307400" lon="35.0304200">
<ele>322.309998</ele>
<time>2021-05-07T13:57:53.162Z</time>
</trkpt>
<trkpt lat="31.8301800" lon="35.0300900">
<ele>335.450012</ele>
<time>2021-05-07T13:57:53.162Z</time>
</trkpt>
<trkpt lat="31.8301100" lon="35.0300400">
<ele>335.900024</ele>
<time>2021-05-07T13:57:53.162Z</time>
</trkpt>
<trkpt lat="31.8298600" lon="35.0298100">
<ele>334.669983</ele>
<time>2021-05-07T13:57:53.162Z</time>
</trkpt>
<trkpt lat="31.8297700" lon="35.0296300">
<ele>333.460022</ele>
<time>2021-05-07T13:57:53.162Z</time>
</trkpt>
<trkpt lat="31.8297400" lon="35.0294900">
<ele>331.730011</ele>
<time>2021-05-07T13:57:53.162Z</time>
</trkpt>
<trkpt lat="31.8297200" lon="35.0290300">
<ele>328.979980</ele>
<time>2021-05-07T13:57:53.162Z</time>
</trkpt>
<trkpt lat="31.8297200" lon="35.0288300">
<ele>328.190002</ele>
<time>2021-05-07T13:57:53.162Z</time>
</trkpt>
<trkpt lat="31.8296800" lon="35.0286700">
<ele>328.690002</ele>
<time>2021-05-07T13:57:53.162Z</time>
</trkpt>
<trkpt lat="31.8296100" lon="35.0285600">
<ele>330.249969</ele>
<time>2021-05-07T13:57:53.162Z</time>
</trkpt>
<trkpt lat="31.8295600" lon="35.0284900">
<ele>332.130005</ele>
<time>2021-05-07T13:57:53.162Z</time>
</trkpt>
<trkpt lat="31.8292900" lon="35.0283400">
<ele>339.029999</ele>
<time>2021-05-07T13:57:53.162Z</time>
</trkpt>
<trkpt lat="31.8290700" lon="35.0281700">
<ele>345.130005</ele>
<time>2021-05-07T13:57:53.163Z</time>
</trkpt>
<trkpt lat="31.8289600" lon="35.0280600">
<ele>348.160004</ele>
<time>2021-05-07T13:57:53.163Z</time>
</trkpt>
<trkpt lat="31.8288300" lon="35.0278100">
<ele>347.920013</ele>
<time>2021-05-07T13:57:53.163Z</time>
</trkpt>
<trkpt lat="31.8287600" lon="35.0275600">
<ele>347.039978</ele>
<time>2021-05-07T13:57:53.163Z</time>
</trkpt>
<trkpt lat="31.8287200" lon="35.0272200">
<ele>345.929993</ele>
<time>2021-05-07T13:57:53.163Z</time>
</trkpt>
<trkpt lat="31.8287200" lon="35.0270500">
<ele>343.860016</ele>
<time>2021-05-07T13:57:53.163Z</time>
</trkpt>
<trkpt lat="31.8287500" lon="35.0268300">
<ele>342.380005</ele>
<time>2021-05-07T13:57:53.163Z</time>
</trkpt>
<trkpt lat="31.8287900" lon="35.0267400">
<ele>342.369995</ele>
<time>2021-05-07T13:57:53.163Z</time>
</trkpt>
<trkpt lat="31.8289500" lon="35.0265400">
<ele>343.699982</ele>
<time>2021-05-07T13:57:53.163Z</time>
</trkpt>
<trkpt lat="31.8289800" lon="35.0264800">
<ele>343.890015</ele>
<time>2021-05-07T13:57:53.163Z</time>
</trkpt>
<trkpt lat="31.8289700" lon="35.0264000">
<ele>343.980011</ele>
<time>2021-05-07T13:57:53.163Z</time>
</trkpt>
<trkpt lat="31.8289300" lon="35.0263400">
<ele>344.000000</ele>
<time>2021-05-07T13:57:53.163Z</time>
</trkpt>
<trkpt lat="31.8286200" lon="35.0260100">
<ele>348.990021</ele>
<time>2021-05-07T13:57:53.163Z</time>
</trkpt>
<trkpt lat="31.8283400" lon="35.0256500">
<ele>346.699982</ele>
<time>2021-05-07T13:57:53.163Z</time>
</trkpt>
<trkpt lat="31.8281600" lon="35.0253800">
<ele>340.239990</ele>
<time>2021-05-07T13:57:53.163Z</time>
</trkpt>
<trkpt lat="31.8280000" lon="35.0250900">
<ele>333.970001</ele>
<time>2021-05-07T13:57:53.163Z</time>
</trkpt>
<trkpt lat="31.8279500" lon="35.0250200">
<ele>333.149994</ele>
<time>2021-05-07T13:57:53.163Z</time>
</trkpt>
<trkpt lat="31.8278500" lon="35.0248800">
<ele>332.340027</ele>
<time>2021-05-07T13:57:53.163Z</time>
</trkpt>
<trkpt lat="31.8276900" lon="35.0246800">
<ele>331.539978</ele>
<time>2021-05-07T13:57:53.163Z</time>
</trkpt>
<trkpt lat="31.8271400" lon="35.0239900">
<ele>333.480011</ele>
<time>2021-05-07T13:57:53.163Z</time>
</trkpt>
<trkpt lat="31.8271000" lon="35.0239100">
<ele>332.760010</ele>
<time>2021-05-07T13:57:53.164Z</time>
</trkpt>
<trkpt lat="31.8270500" lon="35.0237600">
<ele>330.279999</ele>
<time>2021-05-07T13:57:53.164Z</time>
</trkpt>
<trkpt lat="31.8270300" lon="35.0236400">
<ele>328.339996</ele>
<time>2021-05-07T13:57:53.164Z</time>
</trkpt>
<trkpt lat="31.8270400" lon="35.0234600">
<ele>325.649994</ele>
<time>2021-05-07T13:57:53.165Z</time>
</trkpt>
<trkpt lat="31.8270900" lon="35.0232400">
<ele>323.119995</ele>
<time>2021-05-07T13:57:53.165Z</time>
</trkpt>
<trkpt lat="31.8271400" lon="35.0231200">
<ele>322.209991</ele>
<time>2021-05-07T13:57:53.165Z</time>
</trkpt>
<trkpt lat="31.8271800" lon="35.0230600">
<ele>321.479980</ele>
<time>2021-05-07T13:57:53.165Z</time>
</trkpt>
<trkpt lat="31.8272500" lon="35.0229500">
<ele>321.219971</ele>
<time>2021-05-07T13:57:53.165Z</time>
</trkpt>
<trkpt lat="31.8276100" lon="35.0225300">
<ele>316.819977</ele>
<time>2021-05-07T13:57:53.165Z</time>
</trkpt>
<trkpt lat="31.8277400" lon="35.0223200">
<ele>310.500000</ele>
<time>2021-05-07T13:57:53.165Z</time>
</trkpt>
<trkpt lat="31.8277800" lon="35.0222400">
<ele>309.079987</ele>
<time>2021-05-07T13:57:53.165Z</time>
</trkpt>
<trkpt lat="31.8278400" lon="35.0221300">
<ele>309.809998</ele>
<time>2021-05-07T13:57:53.165Z</time>
</trkpt>
<trkpt lat="31.8278900" lon="35.0219500">
<ele>310.179993</ele>
<time>2021-05-07T13:57:53.165Z</time>
</trkpt>
<trkpt lat="31.8279700" lon="35.0216100">
<ele>308.779999</ele>
<time>2021-05-07T13:57:53.165Z</time>
</trkpt>
<trkpt lat="31.8280000" lon="35.0213900">
<ele>307.799988</ele>
<time>2021-05-07T13:57:53.165Z</time>
</trkpt>
<trkpt lat="31.8280000" lon="35.0213600">
<ele>307.529999</ele>
<time>2021-05-07T13:57:53.165Z</time>
</trkpt>
<trkpt lat="31.8280700" lon="35.0203700">
<ele>301.399994</ele>
<time>2021-05-07T13:57:53.165Z</time>
</trkpt>
<trkpt lat="31.8281300" lon="35.0198600">
<ele>297.529999</ele>
<time>2021-05-07T13:57:53.165Z</time>
</trkpt>
<trkpt lat="31.8281800" lon="35.0197100">
<ele>296.829987</ele>
<time>2021-05-07T13:57:53.165Z</time>
</trkpt>
<trkpt lat="31.8282800" lon="35.0195300">
<ele>296.359985</ele>
<time>2021-05-07T13:57:53.165Z</time>
</trkpt>
<trkpt lat="31.8283400" lon="35.0194800">
<ele>296.359985</ele>
<time>2021-05-07T13:57:53.165Z</time>
</trkpt>
<trkpt lat="31.8284300" lon="35.0194300">
<ele>297.290009</ele>
<time>2021-05-07T13:57:53.165Z</time>
</trkpt>
<trkpt lat="31.8285100" lon="35.0194200">
<ele>298.369995</ele>
<time>2021-05-07T13:57:53.165Z</time>
</trkpt>
<trkpt lat="31.8285000" lon="35.0193700">
<ele>297.859985</ele>
<time>2021-05-07T13:57:53.165Z</time>
</trkpt>
<trkpt lat="31.8285300" lon="35.0193500">
<ele>298.149994</ele>
<time>2021-05-07T13:57:53.165Z</time>
</trkpt>
<trkpt lat="31.8285600" lon="35.0193400">
<ele>298.510010</ele>
<time>2021-05-07T13:57:53.165Z</time>
</trkpt>
<trkpt lat="31.8286000" lon="35.0193400">
<ele>299.089996</ele>
<time>2021-05-07T13:57:53.166Z</time>
</trkpt>
<trkpt lat="31.8286300" lon="35.0193300">
<ele>299.580017</ele>
<time>2021-05-07T13:57:53.166Z</time>
</trkpt>
<trkpt lat="31.8286600" lon="35.0193300">
<ele>300.230011</ele>
<time>2021-05-07T13:57:53.166Z</time>
</trkpt>
<trkpt lat="31.8286900" lon="35.0193400">
<ele>300.950012</ele>
<time>2021-05-07T13:57:53.166Z</time>
</trkpt>
<trkpt lat="31.8287200" lon="35.0193500">
<ele>301.669983</ele>
<time>2021-05-07T13:57:53.166Z</time>
</trkpt>
<trkpt lat="31.8288800" lon="35.0193600">
<ele>305.199982</ele>
<time>2021-05-07T13:57:53.166Z</time>
</trkpt>
<trkpt lat="31.8290300" lon="35.0193800">
<ele>306.279999</ele>
<time>2021-05-07T13:57:53.166Z</time>
</trkpt>
<trkpt lat="31.8291800" lon="35.0194000">
<ele>307.059998</ele>
<time>2021-05-07T13:57:53.166Z</time>
</trkpt>
<trkpt lat="31.8292900" lon="35.0194100">
<ele>307.550018</ele>
<time>2021-05-07T13:57:53.166Z</time>
</trkpt>
<trkpt lat="31.8294000" lon="35.0194200">
<ele>307.989990</ele>
<time>2021-05-07T13:57:53.166Z</time>
</trkpt>
<trkpt lat="31.8295100" lon="35.0194300">
<ele>309.500000</ele>
<time>2021-05-07T13:57:53.166Z</time>
</trkpt>
<trkpt lat="31.8296100" lon="35.0194300">
<ele>311.619995</ele>
<time>2021-05-07T13:57:53.166Z</time>
</trkpt>
<trkpt lat="31.8297200" lon="35.0194300">
<ele>313.949982</ele>
<time>2021-05-07T13:57:53.166Z</time>
</trkpt>
<trkpt lat="31.8298700" lon="35.0194100">
<ele>316.660004</ele>
<time>2021-05-07T13:57:53.166Z</time>
</trkpt>
<trkpt lat="31.8300200" lon="35.0193900">
<ele>319.399994</ele>
<time>2021-05-07T13:57:53.166Z</time>
</trkpt>
<trkpt lat="31.8301600" lon="35.0193700">
<ele>322.150024</ele>
<time>2021-05-07T13:57:53.166Z</time>
</trkpt>
<trkpt lat="31.8303100" lon="35.0193500">
<ele>325.209991</ele>
<time>2021-05-07T13:57:53.166Z</time>
</trkpt>
<trkpt lat="31.8303800" lon="35.0193500">
<ele>327.139984</ele>
<time>2021-05-07T13:57:53.166Z</time>
</trkpt>
<trkpt lat="31.8304400" lon="35.0193600">
<ele>328.889984</ele>
<time>2021-05-07T13:57:53.166Z</time>
</trkpt>
<trkpt lat="31.8305100" lon="35.0193700">
<ele>330.930023</ele>
<time>2021-05-07T13:57:53.166Z</time>
</trkpt>
<trkpt lat="31.8305700" lon="35.0193800">
<ele>332.730011</ele>
<time>2021-05-07T13:57:53.166Z</time>
</trkpt>
<trkpt lat="31.8306300" lon="35.0194000">
<ele>334.709991</ele>
<time>2021-05-07T13:57:53.166Z</time>
</trkpt>
<trkpt lat="31.8307000" lon="35.0194200">
<ele>336.940002</ele>
<time>2021-05-07T13:57:53.166Z</time>
</trkpt>
<trkpt lat="31.8307600" lon="35.0194500">
<ele>338.880005</ele>
<time>2021-05-07T13:57:53.166Z</time>
</trkpt>
<trkpt lat="31.8308200" lon="35.0194800">
<ele>340.510010</ele>
<time>2021-05-07T13:57:53.166Z</time>
</trkpt>
<trkpt lat="31.8308800" lon="35.0195100">
<ele>340.799988</ele>
<time>2021-05-07T13:57:53.166Z</time>
</trkpt>
<trkpt lat="31.8309400" lon="35.0195500">
<ele>340.770020</ele>
<time>2021-05-07T13:57:53.166Z</time>
</trkpt>
<trkpt lat="31.8310000" lon="35.0195700">
<ele>340.820007</ele>
<time>2021-05-07T13:57:53.166Z</time>
</trkpt>
<trkpt lat="31.8310700" lon="35.0196000">
<ele>340.919983</ele>
<time>2021-05-07T13:57:53.166Z</time>
</trkpt>
<trkpt lat="31.8311300" lon="35.0196300">
<ele>341.179993</ele>
<time>2021-05-07T13:57:53.166Z</time>
</trkpt>
<trkpt lat="31.8312000" lon="35.0196700">
<ele>341.899994</ele>
<time>2021-05-07T13:57:53.166Z</time>
</trkpt>
<trkpt lat="31.8312600" lon="35.0197000">
<ele>342.570007</ele>
<time>2021-05-07T13:57:53.166Z</time>
</trkpt>
<trkpt lat="31.8313200" lon="35.0197500">
<ele>343.560028</ele>
<time>2021-05-07T13:57:53.166Z</time>
</trkpt>
<trkpt lat="31.8313800" lon="35.0197900">
<ele>344.639984</ele>
<time>2021-05-07T13:57:53.166Z</time>
</trkpt>
<trkpt lat="31.8314400" lon="35.0198400">
<ele>345.270020</ele>
<time>2021-05-07T13:57:53.166Z</time>
</trkpt>
<trkpt lat="31.8314900" lon="35.0198900">
<ele>345.809998</ele>
<time>2021-05-07T13:57:53.167Z</time>
</trkpt>
<trkpt lat="31.8315400" lon="35.0199500">
<ele>346.459991</ele>
<time>2021-05-07T13:57:53.167Z</time>
</trkpt>
<trkpt lat="31.8315900" lon="35.0200000">
<ele>347.000000</ele>
<time>2021-05-07T13:57:53.167Z</time>
</trkpt>
<trkpt lat="31.8316900" lon="35.0200800">
<ele>348.059998</ele>
<time>2021-05-07T13:57:53.167Z</time>
</trkpt>
<trkpt lat="31.8317900" lon="35.0201700">
<ele>350.620026</ele>
<time>2021-05-07T13:57:53.167Z</time>
</trkpt>
<trkpt lat="31.8318900" lon="35.0202600">
<ele>352.939972</ele>
<time>2021-05-07T13:57:53.167Z</time>
</trkpt>
<trkpt lat="31.8319400" lon="35.0203100">
<ele>353.929993</ele>
<time>2021-05-07T13:57:53.167Z</time>
</trkpt>
<trkpt lat="31.8319800" lon="35.0203500">
<ele>355.149994</ele>
<time>2021-05-07T13:57:53.167Z</time>
</trkpt>
<trkpt lat="31.8320700" lon="35.0204400">
<ele>357.459991</ele>
<time>2021-05-07T13:57:53.167Z</time>
</trkpt>
<trkpt lat="31.8321600" lon="35.0205400">
<ele>358.830017</ele>
<time>2021-05-07T13:57:53.167Z</time>
</trkpt>
<trkpt lat="31.8322500" lon="35.0206400">
<ele>360.130005</ele>
<time>2021-05-07T13:57:53.167Z</time>
</trkpt>
<trkpt lat="31.8323400" lon="35.0207400">
<ele>361.500031</ele>
<time>2021-05-07T13:57:53.167Z</time>
</trkpt>
<trkpt lat="31.8324300" lon="35.0208300">
<ele>362.529968</ele>
<time>2021-05-07T13:57:53.167Z</time>
</trkpt>
<trkpt lat="31.8325100" lon="35.0209300">
<ele>362.690002</ele>
<time>2021-05-07T13:57:53.167Z</time>
</trkpt>
<trkpt lat="31.8326000" lon="35.0210400">
<ele>362.010010</ele>
<time>2021-05-07T13:57:53.167Z</time>
</trkpt>
<trkpt lat="31.8326800" lon="35.0211400">
<ele>361.769989</ele>
<time>2021-05-07T13:57:53.167Z</time>
</trkpt>
<trkpt lat="31.8327600" lon="35.0212500">
<ele>361.840027</ele>
<time>2021-05-07T13:57:53.167Z</time>
</trkpt>
<trkpt lat="31.8327900" lon="35.0213200">
<ele>361.720001</ele>
<time>2021-05-07T13:57:53.167Z</time>
</trkpt>
<trkpt lat="31.8328200" lon="35.0213900">
<ele>361.750000</ele>
<time>2021-05-07T13:57:53.167Z</time>
</trkpt>
<trkpt lat="31.8328500" lon="35.0214600">
<ele>361.720001</ele>
<time>2021-05-07T13:57:53.167Z</time>
</trkpt>
<trkpt lat="31.8328700" lon="35.0215400">
<ele>361.389984</ele>
<time>2021-05-07T13:57:53.167Z</time>
</trkpt>
<trkpt lat="31.8328900" lon="35.0216200">
<ele>361.020020</ele>
<time>2021-05-07T13:57:53.167Z</time>
</trkpt>
<trkpt lat="31.8329100" lon="35.0216900">
<ele>361.119995</ele>
<time>2021-05-07T13:57:53.167Z</time>
</trkpt>
<trkpt lat="31.8329200" lon="35.0217700">
<ele>361.970032</ele>
<time>2021-05-07T13:57:53.167Z</time>
</trkpt>
<trkpt lat="31.8329300" lon="35.0218500">
<ele>362.809998</ele>
<time>2021-05-07T13:57:53.167Z</time>
</trkpt>
<trkpt lat="31.8329400" lon="35.0219300">
<ele>363.630005</ele>
<time>2021-05-07T13:57:53.167Z</time>
</trkpt>
<trkpt lat="31.8329400" lon="35.0220100">
<ele>364.600006</ele>
<time>2021-05-07T13:57:53.168Z</time>
</trkpt>
<trkpt lat="31.8329500" lon="35.0220500">
<ele>365.239990</ele>
<time>2021-05-07T13:57:53.168Z</time>
</trkpt>
<trkpt lat="31.8329600" lon="35.0220900">
<ele>365.880005</ele>
<time>2021-05-07T13:57:53.168Z</time>
</trkpt>
<trkpt lat="31.8329700" lon="35.0221300">
<ele>366.540009</ele>
<time>2021-05-07T13:57:53.168Z</time>
</trkpt>
<trkpt lat="31.8329700" lon="35.0221700">
<ele>367.069977</ele>
<time>2021-05-07T13:57:53.168Z</time>
</trkpt>
<trkpt lat="31.8329700" lon="35.0222100">
<ele>367.610016</ele>
<time>2021-05-07T13:57:53.168Z</time>
</trkpt>
<trkpt lat="31.8329700" lon="35.0222500">
<ele>367.929993</ele>
<time>2021-05-07T13:57:53.168Z</time>
</trkpt>
<trkpt lat="31.8329600" lon="35.0222900">
<ele>368.040009</ele>
<time>2021-05-07T13:57:53.168Z</time>
</trkpt>
<trkpt lat="31.8329500" lon="35.0223300">
<ele>368.160004</ele>
<time>2021-05-07T13:57:53.168Z</time>
</trkpt>
<trkpt lat="31.8329400" lon="35.0224000">
<ele>368.510010</ele>
<time>2021-05-07T13:57:53.168Z</time>
</trkpt>
<trkpt lat="31.8329400" lon="35.0224700">
<ele>368.970001</ele>
<time>2021-05-07T13:57:53.168Z</time>
</trkpt>
<trkpt lat="31.8329400" lon="35.0225400">
<ele>369.580017</ele>
<time>2021-05-07T13:57:53.168Z</time>
</trkpt>
<trkpt lat="31.8329400" lon="35.0226200">
<ele>370.390015</ele>
<time>2021-05-07T13:57:53.168Z</time>
</trkpt>
<trkpt lat="31.8329500" lon="35.0226900">
<ele>371.130005</ele>
<time>2021-05-07T13:57:53.168Z</time>
</trkpt>
<trkpt lat="31.8329500" lon="35.0227600">
<ele>371.819977</ele>
<time>2021-05-07T13:57:53.168Z</time>
</trkpt>
<trkpt lat="31.8329700" lon="35.0228400">
<ele>372.519989</ele>
<time>2021-05-07T13:57:53.168Z</time>
</trkpt>
<trkpt lat="31.8329800" lon="35.0229100">
<ele>373.079987</ele>
<time>2021-05-07T13:57:53.168Z</time>
</trkpt>
<trkpt lat="31.8330000" lon="35.0229800">
<ele>373.600006</ele>
<time>2021-05-07T13:57:53.168Z</time>
</trkpt>
<trkpt lat="31.8330100" lon="35.0230200">
<ele>373.889984</ele>
<time>2021-05-07T13:57:53.168Z</time>
</trkpt>
<trkpt lat="31.8330200" lon="35.0230700">
<ele>374.250000</ele>
<time>2021-05-07T13:57:53.168Z</time>
</trkpt>
<trkpt lat="31.8330300" lon="35.0231100">
<ele>374.519989</ele>
<time>2021-05-07T13:57:53.168Z</time>
</trkpt>
<trkpt lat="31.8330500" lon="35.0231600">
<ele>374.790009</ele>
<time>2021-05-07T13:57:53.168Z</time>
</trkpt>
<trkpt lat="31.8330700" lon="35.0232000">
<ele>375.119995</ele>
<time>2021-05-07T13:57:53.168Z</time>
</trkpt>
<trkpt lat="31.8330900" lon="35.0232400">
<ele>375.490021</ele>
<time>2021-05-07T13:57:53.168Z</time>
</trkpt>
<trkpt lat="31.8331200" lon="35.0232800">
<ele>375.889984</ele>
<time>2021-05-07T13:57:53.168Z</time>
</trkpt>
<trkpt lat="31.8331500" lon="35.0233100">
<ele>376.199982</ele>
<time>2021-05-07T13:57:53.169Z</time>
</trkpt>
<trkpt lat="31.8331800" lon="35.0233400">
<ele>376.510010</ele>
<time>2021-05-07T13:57:53.169Z</time>
</trkpt>
<trkpt lat="31.8332100" lon="35.0233700">
<ele>376.890015</ele>
<time>2021-05-07T13:57:53.169Z</time>
</trkpt>
<trkpt lat="31.8332500" lon="35.0233900">
<ele>377.250000</ele>
<time>2021-05-07T13:57:53.169Z</time>
</trkpt>
<trkpt lat="31.8332700" lon="35.0234100">
<ele>377.540009</ele>
<time>2021-05-07T13:57:53.169Z</time>
</trkpt>
<trkpt lat="31.8333000" lon="35.0234200">
<ele>377.779999</ele>
<time>2021-05-07T13:57:53.169Z</time>
</trkpt>
<trkpt lat="31.8333300" lon="35.0234300">
<ele>378.029999</ele>
<time>2021-05-07T13:57:53.169Z</time>
</trkpt>
<trkpt lat="31.8333600" lon="35.0234400">
<ele>378.790009</ele>
<time>2021-05-07T13:57:53.169Z</time>
</trkpt>
<trkpt lat="31.8333900" lon="35.0234400">
<ele>379.500000</ele>
<time>2021-05-07T13:57:53.169Z</time>
</trkpt>
<trkpt lat="31.8334300" lon="35.0234400">
<ele>380.450012</ele>
<time>2021-05-07T13:57:53.169Z</time>
</trkpt>
<trkpt lat="31.8334600" lon="35.0234300">
<ele>381.079987</ele>
<time>2021-05-07T13:57:53.169Z</time>
</trkpt>
<trkpt lat="31.8334900" lon="35.0234200">
<ele>381.709991</ele>
<time>2021-05-07T13:57:53.169Z</time>
</trkpt>
<trkpt lat="31.8335100" lon="35.0234100">
<ele>382.099976</ele>
<time>2021-05-07T13:57:53.169Z</time>
</trkpt>
<trkpt lat="31.8335400" lon="35.0233900">
<ele>382.670013</ele>
<time>2021-05-07T13:57:53.169Z</time>
</trkpt>
<trkpt lat="31.8335700" lon="35.0233700">
<ele>383.249969</ele>
<time>2021-05-07T13:57:53.169Z</time>
</trkpt>
<trkpt lat="31.8335900" lon="35.0233400">
<ele>383.519989</ele>
<time>2021-05-07T13:57:53.169Z</time>
</trkpt>
<trkpt lat="31.8336100" lon="35.0233100">
<ele>383.889984</ele>
<time>2021-05-07T13:57:53.169Z</time>
</trkpt>
<trkpt lat="31.8336300" lon="35.0232800">
<ele>383.880005</ele>
<time>2021-05-07T13:57:53.169Z</time>
</trkpt>
<trkpt lat="31.8336400" lon="35.0232500">
<ele>383.800018</ele>
<time>2021-05-07T13:57:53.169Z</time>
</trkpt>
<trkpt lat="31.8336500" lon="35.0232200">
<ele>383.729980</ele>
<time>2021-05-07T13:57:53.169Z</time>
</trkpt>
<trkpt lat="31.8336600" lon="35.0231800">
<ele>383.619995</ele>
<time>2021-05-07T13:57:53.169Z</time>
</trkpt>
<trkpt lat="31.8336600" lon="35.0231500">
<ele>383.519989</ele>
<time>2021-05-07T13:57:53.169Z</time>
</trkpt>
<trkpt lat="31.8336900" lon="35.0229300">
<ele>382.959991</ele>
<time>2021-05-07T13:57:53.169Z</time>
</trkpt>
<trkpt lat="31.8337200" lon="35.0227200">
<ele>382.990021</ele>
<time>2021-05-07T13:57:53.169Z</time>
</trkpt>
<trkpt lat="31.8337500" lon="35.0225100">
<ele>383.959991</ele>
<time>2021-05-07T13:57:53.169Z</time>
</trkpt>
<trkpt lat="31.8337700" lon="35.0222900">
<ele>384.579987</ele>
<time>2021-05-07T13:57:53.170Z</time>
</trkpt>
<trkpt lat="31.8337900" lon="35.0221500">
<ele>384.839996</ele>
<time>2021-05-07T13:57:53.170Z</time>
</trkpt>
<trkpt lat="31.8338000" lon="35.0220000">
<ele>384.779999</ele>
<time>2021-05-07T13:57:53.170Z</time>
</trkpt>
<trkpt lat="31.8338200" lon="35.0218600">
<ele>384.700012</ele>
<time>2021-05-07T13:57:53.170Z</time>
</trkpt>
<trkpt lat="31.8338500" lon="35.0217100">
<ele>384.600006</ele>
<time>2021-05-07T13:57:53.170Z</time>
</trkpt>
<trkpt lat="31.8338700" lon="35.0215700">
<ele>384.060028</ele>
<time>2021-05-07T13:57:53.170Z</time>
</trkpt>
<trkpt lat="31.8339000" lon="35.0214300">
<ele>383.410004</ele>
<time>2021-05-07T13:57:53.170Z</time>
</trkpt>
<trkpt lat="31.8339300" lon="35.0212500">
<ele>382.519989</ele>
<time>2021-05-07T13:57:53.170Z</time>
</trkpt>
<trkpt lat="31.8339900" lon="35.0210300">
<ele>381.660004</ele>
<time>2021-05-07T13:57:53.170Z</time>
</trkpt>
<trkpt lat="31.8340100" lon="35.0209500">
<ele>381.079987</ele>
<time>2021-05-07T13:57:53.170Z</time>
</trkpt>
<trkpt lat="31.8340400" lon="35.0208800">
<ele>380.609985</ele>
<time>2021-05-07T13:57:53.170Z</time>
</trkpt>
<trkpt lat="31.8340700" lon="35.0208100">
<ele>380.139984</ele>
<time>2021-05-07T13:57:53.170Z</time>
</trkpt>
<trkpt lat="31.8341100" lon="35.0207400">
<ele>379.919983</ele>
<time>2021-05-07T13:57:53.170Z</time>
</trkpt>
<trkpt lat="31.8341500" lon="35.0206700">
<ele>379.699982</ele>
<time>2021-05-07T13:57:53.170Z</time>
</trkpt>
<trkpt lat="31.8341900" lon="35.0206100">
<ele>379.459991</ele>
<time>2021-05-07T13:57:53.170Z</time>
</trkpt>
<trkpt lat="31.8342300" lon="35.0205400">
<ele>379.050018</ele>
<time>2021-05-07T13:57:53.170Z</time>
</trkpt>
<trkpt lat="31.8342800" lon="35.0204800">
<ele>378.480011</ele>
<time>2021-05-07T13:57:53.170Z</time>
</trkpt>
<trkpt lat="31.8343300" lon="35.0204200">
<ele>377.839996</ele>
<time>2021-05-07T13:57:53.170Z</time>
</trkpt>
<trkpt lat="31.8343800" lon="35.0203700">
<ele>377.250000</ele>
<time>2021-05-07T13:57:53.170Z</time>
</trkpt>
<trkpt lat="31.8344300" lon="35.0203200">
<ele>376.600006</ele>
<time>2021-05-07T13:57:53.170Z</time>
</trkpt>
<trkpt lat="31.8344900" lon="35.0202700">
<ele>376.269989</ele>
<time>2021-05-07T13:57:53.170Z</time>
</trkpt>
<trkpt lat="31.8345400" lon="35.0202200">
<ele>376.269989</ele>
<time>2021-05-07T13:57:53.171Z</time>
</trkpt>
<trkpt lat="31.8347400" lon="35.0200800">
<ele>376.300018</ele>
<time>2021-05-07T13:57:53.171Z</time>
</trkpt>
<trkpt lat="31.8348600" lon="35.0200000">
<ele>374.019989</ele>
<time>2021-05-07T13:57:53.171Z</time>
</trkpt>
<trkpt lat="31.8349500" lon="35.0199400">
<ele>372.330017</ele>
<time>2021-05-07T13:57:53.171Z</time>
</trkpt>
<trkpt lat="31.8350900" lon="35.0198500">
<ele>369.619995</ele>
<time>2021-05-07T13:57:53.171Z</time>
</trkpt>
<trkpt lat="31.8351500" lon="35.0198100">
<ele>368.470001</ele>
<time>2021-05-07T13:57:53.171Z</time>
</trkpt>
<trkpt lat="31.8353600" lon="35.0196700">
<ele>366.460022</ele>
<time>2021-05-07T13:57:53.171Z</time>
</trkpt>
<trkpt lat="31.8354100" lon="35.0196400">
<ele>366.899994</ele>
<time>2021-05-07T13:57:53.171Z</time>
</trkpt>
<trkpt lat="31.8354500" lon="35.0196000">
<ele>367.440002</ele>
<time>2021-05-07T13:57:53.171Z</time>
</trkpt>
<trkpt lat="31.8355000" lon="35.0195600">
<ele>368.200012</ele>
<time>2021-05-07T13:57:53.171Z</time>
</trkpt>
<trkpt lat="31.8355400" lon="35.0195200">
<ele>369.010010</ele>
<time>2021-05-07T13:57:53.171Z</time>
</trkpt>
<trkpt lat="31.8355800" lon="35.0194700">
<ele>369.519989</ele>
<time>2021-05-07T13:57:53.171Z</time>
</trkpt>
<trkpt lat="31.8356100" lon="35.0194200">
<ele>369.570007</ele>
<time>2021-05-07T13:57:53.171Z</time>
</trkpt>
<trkpt lat="31.8356500" lon="35.0193700">
<ele>369.330017</ele>
<time>2021-05-07T13:57:53.171Z</time>
</trkpt>
<trkpt lat="31.8356800" lon="35.0193200">
<ele>369.259979</ele>
<time>2021-05-07T13:57:53.171Z</time>
</trkpt>
<trkpt lat="31.8357100" lon="35.0192600">
<ele>369.330017</ele>
<time>2021-05-07T13:57:53.171Z</time>
</trkpt>
<trkpt lat="31.8357300" lon="35.0192000">
<ele>369.519989</ele>
<time>2021-05-07T13:57:53.171Z</time>
</trkpt>
<trkpt lat="31.8357500" lon="35.0191400">
<ele>369.679993</ele>
<time>2021-05-07T13:57:53.172Z</time>
</trkpt>
<trkpt lat="31.8357700" lon="35.0190800">
<ele>369.800018</ele>
<time>2021-05-07T13:57:53.172Z</time>
</trkpt>
<trkpt lat="31.8357900" lon="35.0190100">
<ele>370.060028</ele>
<time>2021-05-07T13:57:53.172Z</time>
</trkpt>
<trkpt lat="31.8358000" lon="35.0189500">
<ele>370.289978</ele>
<time>2021-05-07T13:57:53.172Z</time>
</trkpt>
<trkpt lat="31.8358400" lon="35.0187400">
<ele>370.820007</ele>
<time>2021-05-07T13:57:53.172Z</time>
</trkpt>
<trkpt lat="31.8358900" lon="35.0185300">
<ele>370.279999</ele>
<time>2021-05-07T13:57:53.172Z</time>
</trkpt>
<trkpt lat="31.8359400" lon="35.0183200">
<ele>370.910004</ele>
<time>2021-05-07T13:57:53.172Z</time>
</trkpt>
<trkpt lat="31.8360000" lon="35.0181100">
<ele>370.040009</ele>
<time>2021-05-07T13:57:53.172Z</time>
</trkpt>
<trkpt lat="31.8360200" lon="35.0180400">
<ele>369.830017</ele>
<time>2021-05-07T13:57:53.172Z</time>
</trkpt>
<trkpt lat="31.8360500" lon="35.0179700">
<ele>369.350006</ele>
<time>2021-05-07T13:57:53.172Z</time>
</trkpt>
<trkpt lat="31.8360900" lon="35.0179100">
<ele>369.160004</ele>
<time>2021-05-07T13:57:53.172Z</time>
</trkpt>
<trkpt lat="31.8361200" lon="35.0178500">
<ele>368.750000</ele>
<time>2021-05-07T13:57:53.172Z</time>
</trkpt>
<trkpt lat="31.8361600" lon="35.0177900">
<ele>368.099976</ele>
<time>2021-05-07T13:57:53.172Z</time>
</trkpt>
<trkpt lat="31.8362000" lon="35.0177300">
<ele>367.350006</ele>
<time>2021-05-07T13:57:53.172Z</time>
</trkpt>
<trkpt lat="31.8362500" lon="35.0176800">
<ele>367.119995</ele>
<time>2021-05-07T13:57:53.172Z</time>
</trkpt>
<trkpt lat="31.8363000" lon="35.0176300">
<ele>367.339996</ele>
<time>2021-05-07T13:57:53.172Z</time>
</trkpt>
<trkpt lat="31.8363500" lon="35.0175800">
<ele>368.009979</ele>
<time>2021-05-07T13:57:53.172Z</time>
</trkpt>
<trkpt lat="31.8364000" lon="35.0175300">
<ele>368.809998</ele>
<time>2021-05-07T13:57:53.172Z</time>
</trkpt>
<trkpt lat="31.8364500" lon="35.0174900">
<ele>368.309998</ele>
<time>2021-05-07T13:57:53.172Z</time>
</trkpt>
<trkpt lat="31.8365100" lon="35.0174600">
<ele>367.289978</ele>
<time>2021-05-07T13:57:53.172Z</time>
</trkpt>
<trkpt lat="31.8366800" lon="35.0172900">
<ele>364.849976</ele>
<time>2021-05-07T13:57:53.172Z</time>
</trkpt>
<trkpt lat="31.8368600" lon="35.0171300">
<ele>366.250031</ele>
<time>2021-05-07T13:57:53.173Z</time>
</trkpt>
<trkpt lat="31.8370400" lon="35.0169700">
<ele>366.000000</ele>
<time>2021-05-07T13:57:53.173Z</time>
</trkpt>
<trkpt lat="31.8371100" lon="35.0168900">
<ele>365.130005</ele>
<time>2021-05-07T13:57:53.173Z</time>
</trkpt>
<trkpt lat="31.8371700" lon="35.0168100">
<ele>364.989990</ele>
<time>2021-05-07T13:57:53.173Z</time>
</trkpt>
<trkpt lat="31.8372300" lon="35.0167300">
<ele>365.480011</ele>
<time>2021-05-07T13:57:53.173Z</time>
</trkpt>
<trkpt lat="31.8372900" lon="35.0166400">
<ele>365.540009</ele>
<time>2021-05-07T13:57:53.173Z</time>
</trkpt>
<trkpt lat="31.8373500" lon="35.0165500">
<ele>365.269989</ele>
<time>2021-05-07T13:57:53.173Z</time>
</trkpt>
<trkpt lat="31.8374000" lon="35.0164600">
<ele>365.200012</ele>
<time>2021-05-07T13:57:53.173Z</time>
</trkpt>
<trkpt lat="31.8374500" lon="35.0163700">
<ele>365.090027</ele>
<time>2021-05-07T13:57:53.173Z</time>
</trkpt>
<trkpt lat="31.8375000" lon="35.0162700">
<ele>364.570007</ele>
<time>2021-05-07T13:57:53.173Z</time>
</trkpt>
<trkpt lat="31.8375400" lon="35.0161800">
<ele>364.679993</ele>
<time>2021-05-07T13:57:53.173Z</time>
</trkpt>
<trkpt lat="31.8375800" lon="35.0160800">
<ele>364.700012</ele>
<time>2021-05-07T13:57:53.173Z</time>
</trkpt>
<trkpt lat="31.8376000" lon="35.0160400">
<ele>364.750000</ele>
<time>2021-05-07T13:57:53.173Z</time>
</trkpt>
<trkpt lat="31.8376200" lon="35.0159800">
<ele>364.759979</ele>
<time>2021-05-07T13:57:53.173Z</time>
</trkpt>
<trkpt lat="31.8376800" lon="35.0158000">
<ele>365.239990</ele>
<time>2021-05-07T13:57:53.173Z</time>
</trkpt>
<trkpt lat="31.8377400" lon="35.0150700">
<ele>362.420013</ele>
<time>2021-05-07T13:57:53.173Z</time>
</trkpt>
<trkpt lat="31.8376600" lon="35.0140400">
<ele>355.550018</ele>
<time>2021-05-07T13:57:53.173Z</time>
</trkpt>
<trkpt lat="31.8375900" lon="35.0130200">
<ele>348.209991</ele>
<time>2021-05-07T13:57:53.173Z</time>
</trkpt>
<trkpt lat="31.8374900" lon="35.0120200">
<ele>341.939972</ele>
<time>2021-05-07T13:57:53.173Z</time>
</trkpt>
<trkpt lat="31.8374600" lon="35.0116500">
<ele>342.279968</ele>
<time>2021-05-07T13:57:53.174Z</time>
</trkpt>
<trkpt lat="31.8374200" lon="35.0111600">
<ele>338.839996</ele>
<time>2021-05-07T13:57:53.174Z</time>
</trkpt>
<trkpt lat="31.8373800" lon="35.0107500">
<ele>338.899994</ele>
<time>2021-05-07T13:57:53.174Z</time>
</trkpt>
<trkpt lat="31.8374100" lon="35.0102900">
<ele>338.640015</ele>
<time>2021-05-07T13:57:53.174Z</time>
</trkpt>
<trkpt lat="31.8374600" lon="35.0100100">
<ele>337.440002</ele>
<time>2021-05-07T13:57:53.174Z</time>
</trkpt>
<trkpt lat="31.8377100" lon="35.0090800">
<ele>326.820007</ele>
<time>2021-05-07T13:57:53.174Z</time>
</trkpt>
<trkpt lat="31.8381400" lon="35.0077600">
<ele>310.369995</ele>
<time>2021-05-07T13:57:53.174Z</time>
</trkpt>
<trkpt lat="31.8382300" lon="35.0072700">
<ele>306.779999</ele>
<time>2021-05-07T13:57:53.174Z</time>
</trkpt>
<trkpt lat="31.8382800" lon="35.0068300">
<ele>303.649994</ele>
<time>2021-05-07T13:57:53.174Z</time>
</trkpt>
<trkpt lat="31.8382200" lon="35.0065300">
<ele>303.610016</ele>
<time>2021-05-07T13:57:53.174Z</time>
</trkpt>
<trkpt lat="31.8380500" lon="35.0060900">
<ele>307.610016</ele>
<time>2021-05-07T13:57:53.174Z</time>
</trkpt>
<trkpt lat="31.8378900" lon="35.0058200">
<ele>306.540009</ele>
<time>2021-05-07T13:57:53.174Z</time>
</trkpt>
<trkpt lat="31.8377900" lon="35.0057000">
<ele>306.679993</ele>
<time>2021-05-07T13:57:53.174Z</time>
</trkpt>
<trkpt lat="31.8373600" lon="35.0051500">
<ele>301.899994</ele>
<time>2021-05-07T13:57:53.174Z</time>
</trkpt>
<trkpt lat="31.8372600" lon="35.0049700">
<ele>299.540009</ele>
<time>2021-05-07T13:57:53.174Z</time>
</trkpt>
<trkpt lat="31.8372300" lon="35.0048900">
<ele>298.389984</ele>
<time>2021-05-07T13:57:53.174Z</time>
</trkpt>
<trkpt lat="31.8372200" lon="35.0047900">
<ele>297.000000</ele>
<time>2021-05-07T13:57:53.174Z</time>
</trkpt>
<trkpt lat="31.8372200" lon="35.0045700">
<ele>298.760010</ele>
<time>2021-05-07T13:57:53.175Z</time>
</trkpt>
<trkpt lat="31.8372500" lon="35.0044600">
<ele>299.860016</ele>
<time>2021-05-07T13:57:53.175Z</time>
</trkpt>
<trkpt lat="31.8373300" lon="35.0042500">
<ele>300.850006</ele>
<time>2021-05-07T13:57:53.175Z</time>
</trkpt>
<trkpt lat="31.8375400" lon="35.0038500">
<ele>300.260010</ele>
<time>2021-05-07T13:57:53.175Z</time>
</trkpt>
<trkpt lat="31.8375900" lon="35.0037100">
<ele>299.489990</ele>
<time>2021-05-07T13:57:53.175Z</time>
</trkpt>
<trkpt lat="31.8376200" lon="35.0035700">
<ele>299.119995</ele>
<time>2021-05-07T13:57:53.175Z</time>
</trkpt>
<trkpt lat="31.8376200" lon="35.0033100">
<ele>299.940002</ele>
<time>2021-05-07T13:57:53.175Z</time>
</trkpt>
<trkpt lat="31.8376000" lon="35.0031100">
<ele>300.190002</ele>
<time>2021-05-07T13:57:53.175Z</time>
</trkpt>
<trkpt lat="31.8374600" lon="35.0025500">
<ele>305.430023</ele>
<time>2021-05-07T13:57:53.175Z</time>
</trkpt>
<trkpt lat="31.8374000" lon="35.0021400">
<ele>305.350006</ele>
<time>2021-05-07T13:57:53.175Z</time>
</trkpt>
<trkpt lat="31.8374000" lon="35.0018000">
<ele>307.649994</ele>
<time>2021-05-07T13:57:53.175Z</time>
</trkpt>
<trkpt lat="31.8374200" lon="35.0016600">
<ele>309.309998</ele>
<time>2021-05-07T13:57:53.175Z</time>
</trkpt>
<trkpt lat="31.8375100" lon="35.0014300">
<ele>309.640015</ele>
<time>2021-05-07T13:57:53.175Z</time>
</trkpt>
<trkpt lat="31.8376100" lon="35.0012700">
<ele>307.019989</ele>
<time>2021-05-07T13:57:53.175Z</time>
</trkpt>
<trkpt lat="31.8382900" lon="35.0005000">
<ele>292.670013</ele>
<time>2021-05-07T13:57:53.175Z</time>
</trkpt>
<trkpt lat="31.8384100" lon="35.0003000">
<ele>289.730011</ele>
<time>2021-05-07T13:57:53.175Z</time>
</trkpt>
<trkpt lat="31.8384900" lon="35.0001500">
<ele>288.350006</ele>
<time>2021-05-07T13:57:53.175Z</time>
</trkpt>
<trkpt lat="31.8387600" lon="34.9993800">
<ele>281.769989</ele>
<time>2021-05-07T13:57:53.175Z</time>
</trkpt>
<trkpt lat="31.8387700" lon="34.9993500">
<ele>281.660004</ele>
<time>2021-05-07T13:57:53.175Z</time>
</trkpt>
<trkpt lat="31.8389000" lon="34.9989800">
<ele>279.700012</ele>
<time>2021-05-07T13:57:53.175Z</time>
</trkpt>
<trkpt lat="31.8389400" lon="34.9988700">
<ele>278.979980</ele>
<time>2021-05-07T13:57:53.175Z</time>
</trkpt>
<trkpt lat="31.8393200" lon="34.9976700">
<ele>272.459991</ele>
<time>2021-05-07T13:57:53.175Z</time>
</trkpt>
<trkpt lat="31.8394000" lon="34.9974600">
<ele>272.429993</ele>
<time>2021-05-07T13:57:53.176Z</time>
</trkpt>
<trkpt lat="31.8395800" lon="34.9971800">
<ele>269.700012</ele>
<time>2021-05-07T13:57:53.176Z</time>
</trkpt>
<trkpt lat="31.8398800" lon="34.9967900">
<ele>261.470001</ele>
<time>2021-05-07T13:57:53.176Z</time>
</trkpt>
<trkpt lat="31.8399800" lon="34.9966300">
<ele>259.710022</ele>
<time>2021-05-07T13:57:53.176Z</time>
</trkpt>
<trkpt lat="31.8402200" lon="34.9961500">
<ele>257.220001</ele>
<time>2021-05-07T13:57:53.176Z</time>
</trkpt>
<trkpt lat="31.8404200" lon="34.9957900">
<ele>256.589996</ele>
<time>2021-05-07T13:57:53.176Z</time>
</trkpt>
<trkpt lat="31.8408800" lon="34.9949000">
<ele>242.020004</ele>
<time>2021-05-07T13:57:53.176Z</time>
</trkpt>
<trkpt lat="31.8407200" lon="34.9948200">
<ele>245.790009</ele>
<time>2021-05-07T13:57:53.176Z</time>
</trkpt>
<trkpt lat="31.8406600" lon="34.9947500">
<ele>247.389999</ele>
<time>2021-05-07T13:57:53.176Z</time>
</trkpt>
<trkpt lat="31.8405500" lon="34.9946100">
<ele>250.120010</ele>
<time>2021-05-07T13:57:53.176Z</time>
</trkpt>
<trkpt lat="31.8404000" lon="34.9943600">
<ele>252.499985</ele>
<time>2021-05-07T13:57:53.176Z</time>
</trkpt>
<trkpt lat="31.8400000" lon="34.9938900">
<ele>256.009979</ele>
<time>2021-05-07T13:57:53.176Z</time>
</trkpt>
<trkpt lat="31.8398600" lon="34.9937400">
<ele>258.020020</ele>
<time>2021-05-07T13:57:53.176Z</time>
</trkpt>
<trkpt lat="31.8397900" lon="34.9936800">
<ele>259.019989</ele>
<time>2021-05-07T13:57:53.176Z</time>
</trkpt>
<trkpt lat="31.8397400" lon="34.9936500">
<ele>259.739990</ele>
<time>2021-05-07T13:57:53.176Z</time>
</trkpt>
<trkpt lat="31.8395100" lon="34.9935200">
<ele>259.540009</ele>
<time>2021-05-07T13:57:53.176Z</time>
</trkpt>
<trkpt lat="31.8391700" lon="34.9934100">
<ele>264.880005</ele>
<time>2021-05-07T13:57:53.176Z</time>
</trkpt>
<trkpt lat="31.8391000" lon="34.9933600">
<ele>265.140015</ele>
<time>2021-05-07T13:57:53.176Z</time>
</trkpt>
<trkpt lat="31.8388400" lon="34.9931300">
<ele>262.679993</ele>
<time>2021-05-07T13:57:53.176Z</time>
</trkpt>
<trkpt lat="31.8387300" lon="34.9930700">
<ele>263.440002</ele>
<time>2021-05-07T13:57:53.176Z</time>
</trkpt>
<trkpt lat="31.8386600" lon="34.9930600">
<ele>264.330017</ele>
<time>2021-05-07T13:57:53.176Z</time>
</trkpt>
<trkpt lat="31.8385300" lon="34.9930700">
<ele>263.670013</ele>
<time>2021-05-07T13:57:53.176Z</time>
</trkpt>
<trkpt lat="31.8383200" lon="34.9931300">
<ele>261.100006</ele>
<time>2021-05-07T13:57:53.176Z</time>
</trkpt>
<trkpt lat="31.8381000" lon="34.9932200">
<ele>261.559998</ele>
<time>2021-05-07T13:57:53.176Z</time>
</trkpt>
<trkpt lat="31.8379500" lon="34.9932500">
<ele>261.600006</ele>
<time>2021-05-07T13:57:53.176Z</time>
</trkpt>
<trkpt lat="31.8378600" lon="34.9932500">
<ele>261.859985</ele>
<time>2021-05-07T13:57:53.177Z</time>
</trkpt>
<trkpt lat="31.8376800" lon="34.9932000">
<ele>261.739990</ele>
<time>2021-05-07T13:57:53.177Z</time>
</trkpt>
<trkpt lat="31.8375700" lon="34.9931200">
<ele>260.869995</ele>
<time>2021-05-07T13:57:53.177Z</time>
</trkpt>
<trkpt lat="31.8374600" lon="34.9929800">
<ele>259.450012</ele>
<time>2021-05-07T13:57:53.177Z</time>
</trkpt>
<trkpt lat="31.8373700" lon="34.9929100">
<ele>259.630005</ele>
<time>2021-05-07T13:57:53.177Z</time>
</trkpt>
<trkpt lat="31.8373100" lon="34.9929100">
<ele>260.190002</ele>
<time>2021-05-07T13:57:53.177Z</time>
</trkpt>
<trkpt lat="31.8370300" lon="34.9930500">
<ele>260.320007</ele>
<time>2021-05-07T13:57:53.177Z</time>
</trkpt>
<trkpt lat="31.8369100" lon="34.9930800">
<ele>259.500000</ele>
<time>2021-05-07T13:57:53.177Z</time>
</trkpt>
<trkpt lat="31.8367900" lon="34.9930500">
<ele>258.360016</ele>
<time>2021-05-07T13:57:53.177Z</time>
</trkpt>
<trkpt lat="31.8367500" lon="34.9930100">
<ele>258.179993</ele>
<time>2021-05-07T13:57:53.177Z</time>
</trkpt>
<trkpt lat="31.8367200" lon="34.9929200">
<ele>258.459991</ele>
<time>2021-05-07T13:57:53.177Z</time>
</trkpt>
<trkpt lat="31.8367200" lon="34.9928000">
<ele>259.240021</ele>
<time>2021-05-07T13:57:53.177Z</time>
</trkpt>
<trkpt lat="31.8367100" lon="34.9927100">
<ele>258.989990</ele>
<time>2021-05-07T13:57:53.177Z</time>
</trkpt>
<trkpt lat="31.8367800" lon="34.9924100">
<ele>256.899994</ele>
<time>2021-05-07T13:57:53.177Z</time>
</trkpt>
<trkpt lat="31.8369000" lon="34.9919400">
<ele>250.650009</ele>
<time>2021-05-07T13:57:53.177Z</time>
</trkpt>
<trkpt lat="31.8370100" lon="34.9915300">
<ele>251.389999</ele>
<time>2021-05-07T13:57:53.177Z</time>
</trkpt>
<trkpt lat="31.8371600" lon="34.9911700">
<ele>253.190002</ele>
<time>2021-05-07T13:57:53.177Z</time>
</trkpt>
<trkpt lat="31.8371600" lon="34.9911100">
<ele>254.039993</ele>
<time>2021-05-07T13:57:53.177Z</time>
</trkpt>
<trkpt lat="31.8371500" lon="34.9910700">
<ele>255.229996</ele>
<time>2021-05-07T13:57:53.177Z</time>
</trkpt>
<trkpt lat="31.8370900" lon="34.9909700">
<ele>259.329987</ele>
<time>2021-05-07T13:57:53.178Z</time>
</trkpt>
<trkpt lat="31.8368700" lon="34.9907300">
<ele>268.039978</ele>
<time>2021-05-07T13:57:53.178Z</time>
</trkpt>
<trkpt lat="31.8365600" lon="34.9903900">
<ele>271.670013</ele>
<time>2021-05-07T13:57:53.178Z</time>
</trkpt>
<trkpt lat="31.8363700" lon="34.9900400">
<ele>265.589996</ele>
<time>2021-05-07T13:57:53.178Z</time>
</trkpt>
<trkpt lat="31.8363200" lon="34.9899800">
<ele>263.399994</ele>
<time>2021-05-07T13:57:53.178Z</time>
</trkpt>
<trkpt lat="31.8362200" lon="34.9899300">
<ele>260.970001</ele>
<time>2021-05-07T13:57:53.178Z</time>
</trkpt>
<trkpt lat="31.8360800" lon="34.9899000">
<ele>259.669983</ele>
<time>2021-05-07T13:57:53.178Z</time>
</trkpt>
<trkpt lat="31.8359300" lon="34.9899100">
<ele>260.359985</ele>
<time>2021-05-07T13:57:53.178Z</time>
</trkpt>
<trkpt lat="31.8358400" lon="34.9899800">
<ele>261.690002</ele>
<time>2021-05-07T13:57:53.178Z</time>
</trkpt>
<trkpt lat="31.8356200" lon="34.9901900">
<ele>262.029999</ele>
<time>2021-05-07T13:57:53.178Z</time>
</trkpt>
<trkpt lat="31.8355200" lon="34.9903200">
<ele>265.679993</ele>
<time>2021-05-07T13:57:53.178Z</time>
</trkpt>
<trkpt lat="31.8353200" lon="34.9908600">
<ele>273.700012</ele>
<time>2021-05-07T13:57:53.178Z</time>
</trkpt>
<trkpt lat="31.8353000" lon="34.9909800">
<ele>275.309998</ele>
<time>2021-05-07T13:57:53.178Z</time>
</trkpt>
<trkpt lat="31.8352900" lon="34.9910300">
<ele>275.950012</ele>
<time>2021-05-07T13:57:53.178Z</time>
</trkpt>
<trkpt lat="31.8353000" lon="34.9914800">
<ele>280.709991</ele>
<time>2021-05-07T13:57:53.178Z</time>
</trkpt>
<trkpt lat="31.8353000" lon="34.9916200">
<ele>282.730011</ele>
<time>2021-05-07T13:57:53.178Z</time>
</trkpt>
<trkpt lat="31.8352800" lon="34.9919100">
<ele>287.399994</ele>
<time>2021-05-07T13:57:53.178Z</time>
</trkpt>
<trkpt lat="31.8353000" lon="34.9920400">
<ele>289.140015</ele>
<time>2021-05-07T13:57:53.178Z</time>
</trkpt>
<trkpt lat="31.8353600" lon="34.9921500">
<ele>290.369995</ele>
<time>2021-05-07T13:57:53.178Z</time>
</trkpt>
<trkpt lat="31.8353700" lon="34.9921700">
<ele>290.559998</ele>
<time>2021-05-07T13:57:53.178Z</time>
</trkpt>
<trkpt lat="31.8354300" lon="34.9922400">
<ele>290.960022</ele>
<time>2021-05-07T13:57:53.178Z</time>
</trkpt>
<trkpt lat="31.8355800" lon="34.9923200">
<ele>290.029999</ele>
<time>2021-05-07T13:57:53.178Z</time>
</trkpt>
<trkpt lat="31.8355900" lon="34.9923300">
<ele>289.740021</ele>
<time>2021-05-07T13:57:53.178Z</time>
</trkpt>
<trkpt lat="31.8356600" lon="34.9924300">
<ele>287.619995</ele>
<time>2021-05-07T13:57:53.178Z</time>
</trkpt>
<trkpt lat="31.8356500" lon="34.9925500">
<ele>287.559998</ele>
<time>2021-05-07T13:57:53.179Z</time>
</trkpt>
<trkpt lat="31.8355700" lon="34.9926400">
<ele>289.610016</ele>
<time>2021-05-07T13:57:53.179Z</time>
</trkpt>
<trkpt lat="31.8355300" lon="34.9927100">
<ele>290.369995</ele>
<time>2021-05-07T13:57:53.179Z</time>
</trkpt>
<trkpt lat="31.8353500" lon="34.9932200">
<ele>295.609985</ele>
<time>2021-05-07T13:57:53.179Z</time>
</trkpt>
<trkpt lat="31.8352700" lon="34.9934100">
<ele>298.119995</ele>
<time>2021-05-07T13:57:53.179Z</time>
</trkpt>
<trkpt lat="31.8352000" lon="34.9936500">
<ele>299.160004</ele>
<time>2021-05-07T13:57:53.179Z</time>
</trkpt>
<trkpt lat="31.8352300" lon="34.9937800">
<ele>297.750000</ele>
<time>2021-05-07T13:57:53.179Z</time>
</trkpt>
<trkpt lat="31.8350100" lon="34.9942300">
<ele>300.390015</ele>
<time>2021-05-07T13:57:53.179Z</time>
</trkpt>
<trkpt lat="31.8349200" lon="34.9944000">
<ele>301.049988</ele>
<time>2021-05-07T13:57:53.179Z</time>
</trkpt>
<trkpt lat="31.8350500" lon="34.9949600">
<ele>301.389984</ele>
<time>2021-05-07T13:57:53.179Z</time>
</trkpt>
<trkpt lat="31.8351500" lon="34.9953200">
<ele>299.559998</ele>
<time>2021-05-07T13:57:53.179Z</time>
</trkpt>
<trkpt lat="31.8352300" lon="34.9955600">
<ele>297.640015</ele>
<time>2021-05-07T13:57:53.179Z</time>
</trkpt>
<trkpt lat="31.8352300" lon="34.9957600">
<ele>296.790009</ele>
<time>2021-05-07T13:57:53.179Z</time>
</trkpt>
<trkpt lat="31.8352300" lon="34.9961500">
<ele>293.239990</ele>
<time>2021-05-07T13:57:53.179Z</time>
</trkpt>
<trkpt lat="31.8352600" lon="34.9963100">
<ele>291.720001</ele>
<time>2021-05-07T13:57:53.179Z</time>
</trkpt>
<trkpt lat="31.8353800" lon="34.9964200">
<ele>291.309998</ele>
<time>2021-05-07T13:57:53.179Z</time>
</trkpt>
<trkpt lat="31.8354800" lon="34.9964600">
<ele>291.959991</ele>
<time>2021-05-07T13:57:53.179Z</time>
</trkpt>
<trkpt lat="31.8356800" lon="34.9966400">
<ele>294.750000</ele>
<time>2021-05-07T13:57:53.179Z</time>
</trkpt>
<trkpt lat="31.8357500" lon="34.9967300">
<ele>296.079987</ele>
<time>2021-05-07T13:57:53.179Z</time>
</trkpt>
<trkpt lat="31.8360200" lon="34.9971300">
<ele>301.250000</ele>
<time>2021-05-07T13:57:53.179Z</time>
</trkpt>
<trkpt lat="31.8361100" lon="34.9973100">
<ele>301.720001</ele>
<time>2021-05-07T13:57:53.179Z</time>
</trkpt>
<trkpt lat="31.8361000" lon="34.9973500">
<ele>300.959991</ele>
<time>2021-05-07T13:57:53.179Z</time>
</trkpt>
<trkpt lat="31.8360800" lon="34.9974200">
<ele>299.589996</ele>
<time>2021-05-07T13:57:53.179Z</time>
</trkpt>
<trkpt lat="31.8358000" lon="34.9981400">
<ele>293.680023</ele>
<time>2021-05-07T13:57:53.179Z</time>
</trkpt>
<trkpt lat="31.8357300" lon="34.9982500">
<ele>294.920013</ele>
<time>2021-05-07T13:57:53.180Z</time>
</trkpt>
<trkpt lat="31.8356100" lon="34.9983200">
<ele>296.429993</ele>
<time>2021-05-07T13:57:53.180Z</time>
</trkpt>
<trkpt lat="31.8355200" lon="34.9983100">
<ele>296.919983</ele>
<time>2021-05-07T13:57:53.180Z</time>
</trkpt>
<trkpt lat="31.8353700" lon="34.9982300">
<ele>296.850006</ele>
<time>2021-05-07T13:57:53.180Z</time>
</trkpt>
<trkpt lat="31.8352300" lon="34.9981300">
<ele>297.179993</ele>
<time>2021-05-07T13:57:53.180Z</time>
</trkpt>
<trkpt lat="31.8349700" lon="34.9978500">
<ele>297.960022</ele>
<time>2021-05-07T13:57:53.180Z</time>
</trkpt>
<trkpt lat="31.8348800" lon="34.9977700">
<ele>298.020020</ele>
<time>2021-05-07T13:57:53.180Z</time>
</trkpt>
<trkpt lat="31.8348100" lon="34.9977300">
<ele>298.500000</ele>
<time>2021-05-07T13:57:53.180Z</time>
</trkpt>
<trkpt lat="31.8343500" lon="34.9977100">
<ele>289.720001</ele>
<time>2021-05-07T13:57:53.180Z</time>
</trkpt>
<trkpt lat="31.8342800" lon="34.9977300">
<ele>288.279999</ele>
<time>2021-05-07T13:57:53.180Z</time>
</trkpt>
<trkpt lat="31.8336300" lon="34.9977700">
<ele>283.080017</ele>
<time>2021-05-07T13:57:53.180Z</time>
</trkpt>
<trkpt lat="31.8333800" lon="34.9977300">
<ele>286.270020</ele>
<time>2021-05-07T13:57:53.180Z</time>
</trkpt>
<trkpt lat="31.8332900" lon="34.9976700">
<ele>286.820007</ele>
<time>2021-05-07T13:57:53.180Z</time>
</trkpt>
<trkpt lat="31.8331800" lon="34.9974500">
<ele>285.639984</ele>
<time>2021-05-07T13:57:53.180Z</time>
</trkpt>
<trkpt lat="31.8331000" lon="34.9973600">
<ele>285.750000</ele>
<time>2021-05-07T13:57:53.180Z</time>
</trkpt>
<trkpt lat="31.8328900" lon="34.9972300">
<ele>285.769989</ele>
<time>2021-05-07T13:57:53.180Z</time>
</trkpt>
<trkpt lat="31.8327800" lon="34.9971700">
<ele>285.010010</ele>
<time>2021-05-07T13:57:53.180Z</time>
</trkpt>
<trkpt lat="31.8325300" lon="34.9969400">
<ele>283.080017</ele>
<time>2021-05-07T13:57:53.180Z</time>
</trkpt>
<trkpt lat="31.8324600" lon="34.9969100">
<ele>281.769989</ele>
<time>2021-05-07T13:57:53.180Z</time>
</trkpt>
<trkpt lat="31.8323500" lon="34.9969100">
<ele>281.130005</ele>
<time>2021-05-07T13:57:53.180Z</time>
</trkpt>
<trkpt lat="31.8319300" lon="34.9968400">
<ele>277.790009</ele>
<time>2021-05-07T13:57:53.180Z</time>
</trkpt>
<trkpt lat="31.8314400" lon="34.9966800">
<ele>279.519989</ele>
<time>2021-05-07T13:57:53.181Z</time>
</trkpt>
<trkpt lat="31.8310700" lon="34.9965200">
<ele>274.450012</ele>
<time>2021-05-07T13:57:53.181Z</time>
</trkpt>
<trkpt lat="31.8306900" lon="34.9964000">
<ele>263.529999</ele>
<time>2021-05-07T13:57:53.181Z</time>
</trkpt>
<trkpt lat="31.8304200" lon="34.9964100">
<ele>256.769989</ele>
<time>2021-05-07T13:57:53.181Z</time>
</trkpt>
<trkpt lat="31.8302600" lon="34.9964600">
<ele>253.559998</ele>
<time>2021-05-07T13:57:53.182Z</time>
</trkpt>
<trkpt lat="31.8299500" lon="34.9965300">
<ele>254.959991</ele>
<time>2021-05-07T13:57:53.182Z</time>
</trkpt>
<trkpt lat="31.8297400" lon="34.9966100">
<ele>257.410004</ele>
<time>2021-05-07T13:57:53.182Z</time>
</trkpt>
<trkpt lat="31.8294500" lon="34.9967900">
<ele>263.260010</ele>
<time>2021-05-07T13:57:53.182Z</time>
</trkpt>
<trkpt lat="31.8292900" lon="34.9968700">
<ele>263.230011</ele>
<time>2021-05-07T13:57:53.182Z</time>
</trkpt>
<trkpt lat="31.8292200" lon="34.9968900">
<ele>262.949982</ele>
<time>2021-05-07T13:57:53.182Z</time>
</trkpt>
<trkpt lat="31.8290000" lon="34.9968900">
<ele>263.570007</ele>
<time>2021-05-07T13:57:53.182Z</time>
</trkpt>
<trkpt lat="31.8288600" lon="34.9969300">
<ele>264.989990</ele>
<time>2021-05-07T13:57:53.182Z</time>
</trkpt>
<trkpt lat="31.8287000" lon="34.9971000">
<ele>269.160004</ele>
<time>2021-05-07T13:57:53.182Z</time>
</trkpt>
<trkpt lat="31.8284000" lon="34.9974700">
<ele>272.399994</ele>
<time>2021-05-07T13:57:53.182Z</time>
</trkpt>
<trkpt lat="31.8282900" lon="34.9976800">
<ele>273.869995</ele>
<time>2021-05-07T13:57:53.182Z</time>
</trkpt>
<trkpt lat="31.8282200" lon="34.9978800">
<ele>275.649994</ele>
<time>2021-05-07T13:57:53.182Z</time>
</trkpt>
<trkpt lat="31.8282000" lon="34.9980100">
<ele>277.380005</ele>
<time>2021-05-07T13:57:53.182Z</time>
</trkpt>
<trkpt lat="31.8282000" lon="34.9981300">
<ele>279.190002</ele>
<time>2021-05-07T13:57:53.182Z</time>
</trkpt>
<trkpt lat="31.8282300" lon="34.9982600">
<ele>281.709991</ele>
<time>2021-05-07T13:57:53.182Z</time>
</trkpt>
<trkpt lat="31.8282900" lon="34.9984100">
<ele>284.889984</ele>
<time>2021-05-07T13:57:53.182Z</time>
</trkpt>
<trkpt lat="31.8283800" lon="34.9986000">
<ele>288.880005</ele>
<time>2021-05-07T13:57:53.182Z</time>
</trkpt>
<trkpt lat="31.8285500" lon="34.9988700">
<ele>293.820007</ele>
<time>2021-05-07T13:57:53.182Z</time>
</trkpt>
<trkpt lat="31.8286200" lon="34.9989600">
<ele>294.820007</ele>
<time>2021-05-07T13:57:53.182Z</time>
</trkpt>
<trkpt lat="31.8286800" lon="34.9990100">
<ele>295.089996</ele>
<time>2021-05-07T13:57:53.182Z</time>
</trkpt>
<trkpt lat="31.8289800" lon="34.9991500">
<ele>294.830017</ele>
<time>2021-05-07T13:57:53.182Z</time>
</trkpt>
<trkpt lat="31.8291300" lon="34.9992700">
<ele>293.190002</ele>
<time>2021-05-07T13:57:53.183Z</time>
</trkpt>
<trkpt lat="31.8295900" lon="34.9999200">
<ele>290.890015</ele>
<time>2021-05-07T13:57:53.183Z</time>
</trkpt>
<trkpt lat="31.8298200" lon="35.0002000">
<ele>292.410004</ele>
<time>2021-05-07T13:57:53.183Z</time>
</trkpt>
<trkpt lat="31.8299200" lon="35.0003700">
<ele>292.510010</ele>
<time>2021-05-07T13:57:53.183Z</time>
</trkpt>
<trkpt lat="31.8300000" lon="35.0005100">
<ele>293.330017</ele>
<time>2021-05-07T13:57:53.183Z</time>
</trkpt>
<trkpt lat="31.8301000" lon="35.0006300">
<ele>294.170013</ele>
<time>2021-05-07T13:57:53.183Z</time>
</trkpt>
<trkpt lat="31.8304500" lon="35.0009300">
<ele>297.510010</ele>
<time>2021-05-07T13:57:53.183Z</time>
</trkpt>
<trkpt lat="31.8308500" lon="35.0012200">
<ele>300.130005</ele>
<time>2021-05-07T13:57:53.183Z</time>
</trkpt>
<trkpt lat="31.8312000" lon="35.0015100">
<ele>298.239990</ele>
<time>2021-05-07T13:57:53.183Z</time>
</trkpt>
<trkpt lat="31.8312600" lon="35.0015500">
<ele>296.679993</ele>
<time>2021-05-07T13:57:53.183Z</time>
</trkpt>
<trkpt lat="31.8315400" lon="35.0016600">
<ele>295.479980</ele>
<time>2021-05-07T13:57:53.183Z</time>
</trkpt>
<trkpt lat="31.8318100" lon="35.0018500">
<ele>292.040009</ele>
<time>2021-05-07T13:57:53.183Z</time>
</trkpt>
<trkpt lat="31.8319900" lon="35.0019900">
<ele>290.890015</ele>
<time>2021-05-07T13:57:53.183Z</time>
</trkpt>
<trkpt lat="31.8321100" lon="35.0021500">
<ele>290.570007</ele>
<time>2021-05-07T13:57:53.183Z</time>
</trkpt>
<trkpt lat="31.8321400" lon="35.0022300">
<ele>290.160004</ele>
<time>2021-05-07T13:57:53.183Z</time>
</trkpt>
<trkpt lat="31.8321200" lon="35.0023100">
<ele>289.040009</ele>
<time>2021-05-07T13:57:53.183Z</time>
</trkpt>
<trkpt lat="31.8321000" lon="35.0023400">
<ele>288.329987</ele>
<time>2021-05-07T13:57:53.183Z</time>
</trkpt>
<trkpt lat="31.8318100" lon="35.0025200">
<ele>280.360016</ele>
<time>2021-05-07T13:57:53.183Z</time>
</trkpt>
<trkpt lat="31.8317700" lon="35.0025900">
<ele>278.970001</ele>
<time>2021-05-07T13:57:53.183Z</time>
</trkpt>
<trkpt lat="31.8317500" lon="35.0026700">
<ele>277.910004</ele>
<time>2021-05-07T13:57:53.183Z</time>
</trkpt>
<trkpt lat="31.8317600" lon="35.0028000">
<ele>276.660004</ele>
<time>2021-05-07T13:57:53.183Z</time>
</trkpt>
<trkpt lat="31.8318200" lon="35.0029000">
<ele>275.359985</ele>
<time>2021-05-07T13:57:53.183Z</time>
</trkpt>
<trkpt lat="31.8318800" lon="35.0029400">
<ele>274.759979</ele>
<time>2021-05-07T13:57:53.183Z</time>
</trkpt>
<trkpt lat="31.8320600" lon="35.0029600">
<ele>276.089996</ele>
<time>2021-05-07T13:57:53.183Z</time>
</trkpt>
<trkpt lat="31.8321200" lon="35.0030000">
<ele>275.679993</ele>
<time>2021-05-07T13:57:53.183Z</time>
</trkpt>
<trkpt lat="31.8321800" lon="35.0030500">
<ele>274.730011</ele>
<time>2021-05-07T13:57:53.183Z</time>
</trkpt>
<trkpt lat="31.8322100" lon="35.0031400">
<ele>272.750000</ele>
<time>2021-05-07T13:57:53.183Z</time>
</trkpt>
<trkpt lat="31.8323200" lon="35.0034400">
<ele>269.199982</ele>
<time>2021-05-07T13:57:53.183Z</time>
</trkpt>
<trkpt lat="31.8323600" lon="35.0036000">
<ele>268.579987</ele>
<time>2021-05-07T13:57:53.183Z</time>
</trkpt>
<trkpt lat="31.8323600" lon="35.0036900">
<ele>268.470001</ele>
<time>2021-05-07T13:57:53.183Z</time>
</trkpt>
<trkpt lat="31.8323400" lon="35.0037700">
<ele>267.899994</ele>
<time>2021-05-07T13:57:53.183Z</time>
</trkpt>
<trkpt lat="31.8321400" lon="35.0041200">
<ele>264.059998</ele>
<time>2021-05-07T13:57:53.183Z</time>
</trkpt>
<trkpt lat="31.8320900" lon="35.0042800">
<ele>263.980011</ele>
<time>2021-05-07T13:57:53.183Z</time>
</trkpt>
<trkpt lat="31.8320900" lon="35.0044100">
<ele>264.450012</ele>
<time>2021-05-07T13:57:53.183Z</time>
</trkpt>
<trkpt lat="31.8321400" lon="35.0047000">
<ele>264.190002</ele>
<time>2021-05-07T13:57:53.184Z</time>
</trkpt>
<trkpt lat="31.8321400" lon="35.0049100">
<ele>265.260010</ele>
<time>2021-05-07T13:57:53.184Z</time>
</trkpt>
<trkpt lat="31.8320800" lon="35.0050600">
<ele>265.820007</ele>
<time>2021-05-07T13:57:53.184Z</time>
</trkpt>
<trkpt lat="31.8319500" lon="35.0051200">
<ele>264.809998</ele>
<time>2021-05-07T13:57:53.184Z</time>
</trkpt>
<trkpt lat="31.8318600" lon="35.0049500">
<ele>264.529999</ele>
<time>2021-05-07T13:57:53.184Z</time>
</trkpt>
<trkpt lat="31.8316900" lon="35.0044800">
<ele>264.140015</ele>
<time>2021-05-07T13:57:53.184Z</time>
</trkpt>
<trkpt lat="31.8316000" lon="35.0043000">
<ele>264.959991</ele>
<time>2021-05-07T13:57:53.184Z</time>
</trkpt>
<trkpt lat="31.8314300" lon="35.0040800">
<ele>266.829987</ele>
<time>2021-05-07T13:57:53.184Z</time>
</trkpt>
<trkpt lat="31.8313400" lon="35.0040200">
<ele>266.770020</ele>
<time>2021-05-07T13:57:53.184Z</time>
</trkpt>
<trkpt lat="31.8312900" lon="35.0040300">
<ele>266.660004</ele>
<time>2021-05-07T13:57:53.184Z</time>
</trkpt>
<trkpt lat="31.8312600" lon="35.0040800">
<ele>266.910004</ele>
<time>2021-05-07T13:57:53.184Z</time>
</trkpt>
<trkpt lat="31.8312700" lon="35.0042000">
<ele>267.670013</ele>
<time>2021-05-07T13:57:53.184Z</time>
</trkpt>
<trkpt lat="31.8314800" lon="35.0045500">
<ele>267.450012</ele>
<time>2021-05-07T13:57:53.184Z</time>
</trkpt>
<trkpt lat="31.8315200" lon="35.0046700">
<ele>267.739990</ele>
<time>2021-05-07T13:57:53.184Z</time>
</trkpt>
<trkpt lat="31.8315000" lon="35.0050000">
<ele>272.000000</ele>
<time>2021-05-07T13:57:53.184Z</time>
</trkpt>
<trkpt lat="31.8315000" lon="35.0052200">
<ele>273.269989</ele>
<time>2021-05-07T13:57:53.184Z</time>
</trkpt>
<trkpt lat="31.8314600" lon="35.0053800">
<ele>274.380005</ele>
<time>2021-05-07T13:57:53.184Z</time>
</trkpt>
<trkpt lat="31.8314100" lon="35.0054400">
<ele>275.089996</ele>
<time>2021-05-07T13:57:53.184Z</time>
</trkpt>
<trkpt lat="31.8313400" lon="35.0054700">
<ele>276.660004</ele>
<time>2021-05-07T13:57:53.184Z</time>
</trkpt>
<trkpt lat="31.8312700" lon="35.0054500">
<ele>278.639984</ele>
<time>2021-05-07T13:57:53.184Z</time>
</trkpt>
<trkpt lat="31.8311800" lon="35.0053800">
<ele>281.170013</ele>
<time>2021-05-07T13:57:53.184Z</time>
</trkpt>
<trkpt lat="31.8309700" lon="35.0052200">
<ele>284.720001</ele>
<time>2021-05-07T13:57:53.184Z</time>
</trkpt>
<trkpt lat="31.8309000" lon="35.0052100">
<ele>285.610016</ele>
<time>2021-05-07T13:57:53.184Z</time>
</trkpt>
<trkpt lat="31.8308700" lon="35.0052300">
<ele>286.149994</ele>
<time>2021-05-07T13:57:53.184Z</time>
</trkpt>
<trkpt lat="31.8308600" lon="35.0052600">
<ele>286.489990</ele>
<time>2021-05-07T13:57:53.184Z</time>
</trkpt>
<trkpt lat="31.8309100" lon="35.0055500">
<ele>287.320007</ele>
<time>2021-05-07T13:57:53.184Z</time>
</trkpt>
<trkpt lat="31.8308900" lon="35.0056300">
<ele>288.369995</ele>
<time>2021-05-07T13:57:53.185Z</time>
</trkpt>
<trkpt lat="31.8308600" lon="35.0056500">
<ele>289.140015</ele>
<time>2021-05-07T13:57:53.185Z</time>
</trkpt>
<trkpt lat="31.8307600" lon="35.0056700">
<ele>289.820007</ele>
<time>2021-05-07T13:57:53.185Z</time>
</trkpt>
<trkpt lat="31.8306100" lon="35.0056500">
<ele>289.679993</ele>
<time>2021-05-07T13:57:53.185Z</time>
</trkpt>
<trkpt lat="31.8304300" lon="35.0056500">
<ele>288.929993</ele>
<time>2021-05-07T13:57:53.185Z</time>
</trkpt>
<trkpt lat="31.8303000" lon="35.0057000">
<ele>288.679993</ele>
<time>2021-05-07T13:57:53.185Z</time>
</trkpt>
<trkpt lat="31.8302400" lon="35.0057500">
<ele>288.709991</ele>
<time>2021-05-07T13:57:53.185Z</time>
</trkpt>
<trkpt lat="31.8301600" lon="35.0058400">
<ele>289.260010</ele>
<time>2021-05-07T13:57:53.185Z</time>
</trkpt>
<trkpt lat="31.8301200" lon="35.0059100">
<ele>290.089996</ele>
<time>2021-05-07T13:57:53.185Z</time>
</trkpt>
<trkpt lat="31.8299100" lon="35.0065900">
<ele>296.480011</ele>
<time>2021-05-07T13:57:53.185Z</time>
</trkpt>
<trkpt lat="31.8298400" lon="35.0067500">
<ele>297.169983</ele>
<time>2021-05-07T13:57:53.185Z</time>
</trkpt>
<trkpt lat="31.8297500" lon="35.0069700">
<ele>298.710022</ele>
<time>2021-05-07T13:57:53.185Z</time>
</trkpt>
<trkpt lat="31.8295800" lon="35.0072400">
<ele>298.799988</ele>
<time>2021-05-07T13:57:53.185Z</time>
</trkpt>
<trkpt lat="31.8294700" lon="35.0073500">
<ele>298.399994</ele>
<time>2021-05-07T13:57:53.185Z</time>
</trkpt>
<trkpt lat="31.8293200" lon="35.0074700">
<ele>299.059998</ele>
<time>2021-05-07T13:57:53.185Z</time>
</trkpt>
<trkpt lat="31.8292500" lon="35.0075700">
<ele>299.809998</ele>
<time>2021-05-07T13:57:53.185Z</time>
</trkpt>
<trkpt lat="31.8292400" lon="35.0076500">
<ele>300.700012</ele>
<time>2021-05-07T13:57:53.185Z</time>
</trkpt>
<trkpt lat="31.8292400" lon="35.0077300">
<ele>301.709991</ele>
<time>2021-05-07T13:57:53.185Z</time>
</trkpt>
<trkpt lat="31.8293300" lon="35.0080600">
<ele>308.000000</ele>
<time>2021-05-07T13:57:53.185Z</time>
</trkpt>
<trkpt lat="31.8293700" lon="35.0083100">
<ele>312.319977</ele>
<time>2021-05-07T13:57:53.185Z</time>
</trkpt>
<trkpt lat="31.8293600" lon="35.0085200">
<ele>314.499969</ele>
<time>2021-05-07T13:57:53.185Z</time>
</trkpt>
<trkpt lat="31.8293100" lon="35.0088500">
<ele>316.299988</ele>
<time>2021-05-07T13:57:53.185Z</time>
</trkpt>
<trkpt lat="31.8292700" lon="35.0095700">
<ele>318.220032</ele>
<time>2021-05-07T13:57:53.185Z</time>
</trkpt>
<trkpt lat="31.8292800" lon="35.0099100">
<ele>319.619995</ele>
<time>2021-05-07T13:57:53.185Z</time>
</trkpt>
<trkpt lat="31.8293300" lon="35.0102900">
<ele>320.799988</ele>
<time>2021-05-07T13:57:53.185Z</time>
</trkpt>
<trkpt lat="31.8294900" lon="35.0108600">
<ele>323.130005</ele>
<time>2021-05-07T13:57:53.185Z</time>
</trkpt>
<trkpt lat="31.8295000" lon="35.0109800">
<ele>323.290009</ele>
<time>2021-05-07T13:57:53.186Z</time>
</trkpt>
<trkpt lat="31.8294900" lon="35.0111500">
<ele>322.979980</ele>
<time>2021-05-07T13:57:53.186Z</time>
</trkpt>
<trkpt lat="31.8294300" lon="35.0113000">
<ele>321.810028</ele>
<time>2021-05-07T13:57:53.186Z</time>
</trkpt>
<trkpt lat="31.8292400" lon="35.0115500">
<ele>318.479980</ele>
<time>2021-05-07T13:57:53.186Z</time>
</trkpt>
<trkpt lat="31.8290700" lon="35.0119300">
<ele>313.320007</ele>
<time>2021-05-07T13:57:53.186Z</time>
</trkpt>
<trkpt lat="31.8289500" lon="35.0121400">
<ele>308.510010</ele>
<time>2021-05-07T13:57:53.186Z</time>
</trkpt>
<trkpt lat="31.8287000" lon="35.0125000">
<ele>301.600006</ele>
<time>2021-05-07T13:57:53.186Z</time>
</trkpt>
<trkpt lat="31.8285100" lon="35.0127600">
<ele>299.160004</ele>
<time>2021-05-07T13:57:53.186Z</time>
</trkpt>
<trkpt lat="31.8283600" lon="35.0130500">
<ele>296.390015</ele>
<time>2021-05-07T13:57:53.186Z</time>
</trkpt>
<trkpt lat="31.8283000" lon="35.0131600">
<ele>294.929993</ele>
<time>2021-05-07T13:57:53.186Z</time>
</trkpt>
<trkpt lat="31.8282500" lon="35.0132800">
<ele>293.730011</ele>
<time>2021-05-07T13:57:53.186Z</time>
</trkpt>
<trkpt lat="31.8282700" lon="35.0135600">
<ele>293.100006</ele>
<time>2021-05-07T13:57:53.186Z</time>
</trkpt>
<trkpt lat="31.8283800" lon="35.0138900">
<ele>290.329987</ele>
<time>2021-05-07T13:57:53.186Z</time>
</trkpt>
<trkpt lat="31.8284600" lon="35.0141300">
<ele>289.890015</ele>
<time>2021-05-07T13:57:53.186Z</time>
</trkpt>
<trkpt lat="31.8284500" lon="35.0143900">
<ele>290.529999</ele>
<time>2021-05-07T13:57:53.186Z</time>
</trkpt>
<trkpt lat="31.8283200" lon="35.0145200">
<ele>286.750000</ele>
<time>2021-05-07T13:57:53.186Z</time>
</trkpt>
<trkpt lat="31.8282400" lon="35.0146100">
<ele>285.119995</ele>
<time>2021-05-07T13:57:53.186Z</time>
</trkpt>
<trkpt lat="31.8281500" lon="35.0146900">
<ele>283.119995</ele>
<time>2021-05-07T13:57:53.186Z</time>
</trkpt>
<trkpt lat="31.8278600" lon="35.0147800">
<ele>276.130005</ele>
<time>2021-05-07T13:57:53.186Z</time>
</trkpt>
<trkpt lat="31.8278100" lon="35.0149200">
<ele>274.889984</ele>
<time>2021-05-07T13:57:53.186Z</time>
</trkpt>
<trkpt lat="31.8276800" lon="35.0152800">
<ele>274.899994</ele>
<time>2021-05-07T13:57:53.186Z</time>
</trkpt>
<trkpt lat="31.8275800" lon="35.0154700">
<ele>274.110016</ele>
<time>2021-05-07T13:57:53.186Z</time>
</trkpt>
<trkpt lat="31.8274800" lon="35.0156100">
<ele>273.130005</ele>
<time>2021-05-07T13:57:53.186Z</time>
</trkpt>
<trkpt lat="31.8273700" lon="35.0157100">
<ele>272.760010</ele>
<time>2021-05-07T13:57:53.186Z</time>
</trkpt>
<trkpt lat="31.8272000" lon="35.0158200">
<ele>272.809998</ele>
<time>2021-05-07T13:57:53.186Z</time>
</trkpt>
<trkpt lat="31.8270600" lon="35.0155600">
<ele>269.059998</ele>
<time>2021-05-07T13:57:53.186Z</time>
</trkpt>
<trkpt lat="31.8269500" lon="35.0154500">
<ele>268.619995</ele>
<time>2021-05-07T13:57:53.187Z</time>
</trkpt>
<trkpt lat="31.8268500" lon="35.0154100">
<ele>268.309998</ele>
<time>2021-05-07T13:57:53.187Z</time>
</trkpt>
<trkpt lat="31.8264900" lon="35.0153500">
<ele>264.820007</ele>
<time>2021-05-07T13:57:53.187Z</time>
</trkpt>
<trkpt lat="31.8263400" lon="35.0153400">
<ele>262.339996</ele>
<time>2021-05-07T13:57:53.187Z</time>
</trkpt>
<trkpt lat="31.8262000" lon="35.0153700">
<ele>260.510010</ele>
<time>2021-05-07T13:57:53.187Z</time>
</trkpt>
<trkpt lat="31.8258300" lon="35.0155400">
<ele>259.010010</ele>
<time>2021-05-07T13:57:53.187Z</time>
</trkpt>
<trkpt lat="31.8253800" lon="35.0158200">
<ele>260.000000</ele>
<time>2021-05-07T13:57:53.187Z</time>
</trkpt>
<trkpt lat="31.8252800" lon="35.0158100">
<ele>260.000000</ele>
<time>2021-05-07T13:57:53.187Z</time>
</trkpt>
<trkpt lat="31.8247600" lon="35.0151900">
<ele>260.050018</ele>
<time>2021-05-07T13:57:53.187Z</time>
</trkpt>
<trkpt lat="31.8243800" lon="35.0147300">
<ele>259.980011</ele>
<time>2021-05-07T13:57:53.187Z</time>
</trkpt>
<trkpt lat="31.8242500" lon="35.0146400">
<ele>259.700012</ele>
<time>2021-05-07T13:57:53.187Z</time>
</trkpt>
<trkpt lat="31.8238600" lon="35.0144200">
<ele>255.629990</ele>
<time>2021-05-07T13:57:53.187Z</time>
</trkpt>
<trkpt lat="31.8237500" lon="35.0144000">
<ele>254.760010</ele>
<time>2021-05-07T13:57:53.187Z</time>
</trkpt>
<trkpt lat="31.8237200" lon="35.0144200">
<ele>254.659988</ele>
<time>2021-05-07T13:57:53.187Z</time>
</trkpt>
<trkpt lat="31.8236700" lon="35.0145400">
<ele>254.500000</ele>
<time>2021-05-07T13:57:53.187Z</time>
</trkpt>
<trkpt lat="31.8236100" lon="35.0148700">
<ele>254.000000</ele>
<time>2021-05-07T13:57:53.187Z</time>
</trkpt>
<trkpt lat="31.8235800" lon="35.0149500">
<ele>253.889984</ele>
<time>2021-05-07T13:57:53.187Z</time>
</trkpt>
<trkpt lat="31.8233500" lon="35.0153400">
<ele>253.549988</ele>
<time>2021-05-07T13:57:53.187Z</time>
</trkpt>
<trkpt lat="31.8232200" lon="35.0156000">
<ele>254.369995</ele>
<time>2021-05-07T13:57:53.187Z</time>
</trkpt>
<trkpt lat="31.8230700" lon="35.0159900">
<ele>253.739990</ele>
<time>2021-05-07T13:57:53.187Z</time>
</trkpt>
<trkpt lat="31.8230400" lon="35.0161500">
<ele>254.060013</ele>
<time>2021-05-07T13:57:53.187Z</time>
</trkpt>
<trkpt lat="31.8228400" lon="35.0163500">
<ele>254.779999</ele>
<time>2021-05-07T13:57:53.187Z</time>
</trkpt>
<trkpt lat="31.8226500" lon="35.0165600">
<ele>255.000000</ele>
<time>2021-05-07T13:57:53.187Z</time>
</trkpt>
<trkpt lat="31.8225500" lon="35.0167300">
<ele>254.809998</ele>
<time>2021-05-07T13:57:53.188Z</time>
</trkpt>
<trkpt lat="31.8223700" lon="35.0171100">
<ele>254.939987</ele>
<time>2021-05-07T13:57:53.188Z</time>
</trkpt>
<trkpt lat="31.8222400" lon="35.0176400">
<ele>256.940002</ele>
<time>2021-05-07T13:57:53.188Z</time>
</trkpt>
<trkpt lat="31.8221000" lon="35.0183200">
<ele>259.679993</ele>
<time>2021-05-07T13:57:53.188Z</time>
</trkpt>
<trkpt lat="31.8220100" lon="35.0186400">
<ele>262.609985</ele>
<time>2021-05-07T13:57:53.188Z</time>
</trkpt>
<trkpt lat="31.8219800" lon="35.0187600">
<ele>263.209991</ele>
<time>2021-05-07T13:57:53.188Z</time>
</trkpt>
<trkpt lat="31.8217100" lon="35.0196900">
<ele>263.589996</ele>
<time>2021-05-07T13:57:53.188Z</time>
</trkpt>
<trkpt lat="31.8215700" lon="35.0197800">
<ele>264.070007</ele>
<time>2021-05-07T13:57:53.188Z</time>
</trkpt>
<trkpt lat="31.8213300" lon="35.0196800">
<ele>263.580017</ele>
<time>2021-05-07T13:57:53.188Z</time>
</trkpt>
<trkpt lat="31.8210100" lon="35.0194100">
<ele>260.989990</ele>
<time>2021-05-07T13:57:53.188Z</time>
</trkpt>
<trkpt lat="31.8208800" lon="35.0192600">
<ele>259.450012</ele>
<time>2021-05-07T13:57:53.188Z</time>
</trkpt>
<trkpt lat="31.8206800" lon="35.0190800">
<ele>260.209991</ele>
<time>2021-05-07T13:57:53.188Z</time>
</trkpt>
<trkpt lat="31.8205000" lon="35.0188300">
<ele>259.700012</ele>
<time>2021-05-07T13:57:53.188Z</time>
</trkpt>
<trkpt lat="31.8204100" lon="35.0187100">
<ele>259.720001</ele>
<time>2021-05-07T13:57:53.188Z</time>
</trkpt>
<trkpt lat="31.8204100" lon="35.0184200">
<ele>258.919983</ele>
<time>2021-05-07T13:57:53.188Z</time>
</trkpt>
<trkpt lat="31.8203800" lon="35.0181900">
<ele>258.640015</ele>
<time>2021-05-07T13:57:53.188Z</time>
</trkpt>
<trkpt lat="31.8203400" lon="35.0180800">
<ele>258.970001</ele>
<time>2021-05-07T13:57:53.188Z</time>
</trkpt>
<trkpt lat="31.8202700" lon="35.0180100">
<ele>260.720001</ele>
<time>2021-05-07T13:57:53.188Z</time>
</trkpt>
<trkpt lat="31.8196700" lon="35.0176500">
<ele>274.709991</ele>
<time>2021-05-07T13:57:53.188Z</time>
</trkpt>
<trkpt lat="31.8196100" lon="35.0176100">
<ele>274.440002</ele>
<time>2021-05-07T13:57:53.188Z</time>
</trkpt>
<trkpt lat="31.8195900" lon="35.0175500">
<ele>274.440002</ele>
<time>2021-05-07T13:57:53.188Z</time>
</trkpt>
<trkpt lat="31.8196400" lon="35.0174500">
<ele>274.860016</ele>
<time>2021-05-07T13:57:53.188Z</time>
</trkpt>
<trkpt lat="31.8200000" lon="35.0170500">
<ele>273.619995</ele>
<time>2021-05-07T13:57:53.188Z</time>
</trkpt>
<trkpt lat="31.8201800" lon="35.0168900">
<ele>269.199982</ele>
<time>2021-05-07T13:57:53.188Z</time>
</trkpt>
<trkpt lat="31.8204400" lon="35.0167100">
<ele>265.389984</ele>
<time>2021-05-07T13:57:53.188Z</time>
</trkpt>
<trkpt lat="31.8206600" lon="35.0165300">
<ele>263.820007</ele>
<time>2021-05-07T13:57:53.188Z</time>
</trkpt>
<trkpt lat="31.8207900" lon="35.0163800">
<ele>263.860016</ele>
<time>2021-05-07T13:57:53.189Z</time>
</trkpt>
<trkpt lat="31.8208500" lon="35.0162300">
<ele>264.610016</ele>
<time>2021-05-07T13:57:53.189Z</time>
</trkpt>
<trkpt lat="31.8208400" lon="35.0161200">
<ele>264.989990</ele>
<time>2021-05-07T13:57:53.189Z</time>
</trkpt>
<trkpt lat="31.8207900" lon="35.0160000">
<ele>263.700012</ele>
<time>2021-05-07T13:57:53.189Z</time>
</trkpt>
<trkpt lat="31.8207300" lon="35.0159200">
<ele>262.649994</ele>
<time>2021-05-07T13:57:53.189Z</time>
</trkpt>
<trkpt lat="31.8205600" lon="35.0158000">
<ele>261.149994</ele>
<time>2021-05-07T13:57:53.189Z</time>
</trkpt>
<trkpt lat="31.8204600" lon="35.0156700">
<ele>261.670013</ele>
<time>2021-05-07T13:57:53.189Z</time>
</trkpt>
<trkpt lat="31.8204300" lon="35.0156000">
<ele>261.600006</ele>
<time>2021-05-07T13:57:53.189Z</time>
</trkpt>
<trkpt lat="31.8204100" lon="35.0155100">
<ele>261.000000</ele>
<time>2021-05-07T13:57:53.189Z</time>
</trkpt>
<trkpt lat="31.8204100" lon="35.0153700">
<ele>259.540009</ele>
<time>2021-05-07T13:57:53.189Z</time>
</trkpt>
<trkpt lat="31.8204300" lon="35.0152900">
<ele>258.500000</ele>
<time>2021-05-07T13:57:53.189Z</time>
</trkpt>
<trkpt lat="31.8204900" lon="35.0151700">
<ele>258.100006</ele>
<time>2021-05-07T13:57:53.189Z</time>
</trkpt>
<trkpt lat="31.8205600" lon="35.0150800">
<ele>257.720001</ele>
<time>2021-05-07T13:57:53.189Z</time>
</trkpt>
<trkpt lat="31.8206700" lon="35.0150000">
<ele>258.000000</ele>
<time>2021-05-07T13:57:53.189Z</time>
</trkpt>
<trkpt lat="31.8207000" lon="35.0149700">
<ele>258.429993</ele>
<time>2021-05-07T13:57:53.189Z</time>
</trkpt>
<trkpt lat="31.8210100" lon="35.0147900">
<ele>259.929993</ele>
<time>2021-05-07T13:57:53.189Z</time>
</trkpt>
<trkpt lat="31.8211500" lon="35.0146800">
<ele>258.899994</ele>
<time>2021-05-07T13:57:53.189Z</time>
</trkpt>
<trkpt lat="31.8213900" lon="35.0144500">
<ele>253.099991</ele>
<time>2021-05-07T13:57:53.189Z</time>
</trkpt>
<trkpt lat="31.8214900" lon="35.0143100">
<ele>254.539993</ele>
<time>2021-05-07T13:57:53.189Z</time>
</trkpt>
<trkpt lat="31.8216100" lon="35.0140000">
<ele>255.399994</ele>
<time>2021-05-07T13:57:53.189Z</time>
</trkpt>
<trkpt lat="31.8219500" lon="35.0125300">
<ele>253.899994</ele>
<time>2021-05-07T13:57:53.189Z</time>
</trkpt>
<trkpt lat="31.8220000" lon="35.0122600">
<ele>254.690002</ele>
<time>2021-05-07T13:57:53.189Z</time>
</trkpt>
<trkpt lat="31.8220000" lon="35.0121100">
<ele>254.720001</ele>
<time>2021-05-07T13:57:53.189Z</time>
</trkpt>
<trkpt lat="31.8219800" lon="35.0120100">
<ele>254.769989</ele>
<time>2021-05-07T13:57:53.189Z</time>
</trkpt>
<trkpt lat="31.8218400" lon="35.0115600">
<ele>256.459991</ele>
<time>2021-05-07T13:57:53.189Z</time>
</trkpt>
<trkpt lat="31.8216900" lon="35.0109000">
<ele>255.179993</ele>
<time>2021-05-07T13:57:53.189Z</time>
</trkpt>
<trkpt lat="31.8215800" lon="35.0106300">
<ele>255.910004</ele>
<time>2021-05-07T13:57:53.190Z</time>
</trkpt>
<trkpt lat="31.8215000" lon="35.0104000">
<ele>256.100006</ele>
<time>2021-05-07T13:57:53.190Z</time>
</trkpt>
<trkpt lat="31.8214800" lon="35.0102900">
<ele>255.759995</ele>
<time>2021-05-07T13:57:53.190Z</time>
</trkpt>
<trkpt lat="31.8214900" lon="35.0101100">
<ele>254.939987</ele>
<time>2021-05-07T13:57:53.190Z</time>
</trkpt>
<trkpt lat="31.8215200" lon="35.0099300">
<ele>254.510010</ele>
<time>2021-05-07T13:57:53.190Z</time>
</trkpt>
<trkpt lat="31.8215600" lon="35.0098300">
<ele>254.239990</ele>
<time>2021-05-07T13:57:53.190Z</time>
</trkpt>
<trkpt lat="31.8216600" lon="35.0096800">
<ele>252.479996</ele>
<time>2021-05-07T13:57:53.190Z</time>
</trkpt>
<trkpt lat="31.8217600" lon="35.0095900">
<ele>251.960007</ele>
<time>2021-05-07T13:57:53.190Z</time>
</trkpt>
<trkpt lat="31.8223200" lon="35.0091800">
<ele>246.940002</ele>
<time>2021-05-07T13:57:53.190Z</time>
</trkpt>
<trkpt lat="31.8224200" lon="35.0090700">
<ele>246.310013</ele>
<time>2021-05-07T13:57:53.190Z</time>
</trkpt>
<trkpt lat="31.8225600" lon="35.0088600">
<ele>245.819992</ele>
<time>2021-05-07T13:57:53.190Z</time>
</trkpt>
<trkpt lat="31.8228100" lon="35.0081600">
<ele>244.349991</ele>
<time>2021-05-07T13:57:53.190Z</time>
</trkpt>
<trkpt lat="31.8229400" lon="35.0078800">
<ele>245.099991</ele>
<time>2021-05-07T13:57:53.190Z</time>
</trkpt>
<trkpt lat="31.8230500" lon="35.0076800">
<ele>245.040009</ele>
<time>2021-05-07T13:57:53.190Z</time>
</trkpt>
<trkpt lat="31.8239800" lon="35.0061500">
<ele>241.199997</ele>
<time>2021-05-07T13:57:53.190Z</time>
</trkpt>
<trkpt lat="31.8243900" lon="35.0056000">
<ele>235.099991</ele>
<time>2021-05-07T13:57:53.190Z</time>
</trkpt>
<trkpt lat="31.8245900" lon="35.0053600">
<ele>232.750000</ele>
<time>2021-05-07T13:57:53.190Z</time>
</trkpt>
<trkpt lat="31.8248100" lon="35.0049800">
<ele>231.929993</ele>
<time>2021-05-07T13:57:53.190Z</time>
</trkpt>
<trkpt lat="31.8248700" lon="35.0048400">
<ele>232.290009</ele>
<time>2021-05-07T13:57:53.190Z</time>
</trkpt>
<trkpt lat="31.8249300" lon="35.0046500">
<ele>232.300003</ele>
<time>2021-05-07T13:57:53.190Z</time>
</trkpt>
<trkpt lat="31.8249600" lon="35.0044800">
<ele>231.970001</ele>
<time>2021-05-07T13:57:53.190Z</time>
</trkpt>
<trkpt lat="31.8251300" lon="35.0030700">
<ele>228.899994</ele>
<time>2021-05-07T13:57:53.190Z</time>
</trkpt>
<trkpt lat="31.8251600" lon="35.0026200">
<ele>230.629990</ele>
<time>2021-05-07T13:57:53.190Z</time>
</trkpt>
<trkpt lat="31.8250700" lon="35.0022100">
<ele>230.660004</ele>
<time>2021-05-07T13:57:53.190Z</time>
</trkpt>
<trkpt lat="31.8249100" lon="35.0017700">
<ele>229.240005</ele>
<time>2021-05-07T13:57:53.190Z</time>
</trkpt>
<trkpt lat="31.8246800" lon="35.0011700">
<ele>226.759995</ele>
<time>2021-05-07T13:57:53.190Z</time>
</trkpt>
<trkpt lat="31.8244800" lon="35.0007300">
<ele>225.050003</ele>
<time>2021-05-07T13:57:53.191Z</time>
</trkpt>
<trkpt lat="31.8244200" lon="35.0006200">
<ele>224.820007</ele>
<time>2021-05-07T13:57:53.191Z</time>
</trkpt>
<trkpt lat="31.8243800" lon="35.0004900">
<ele>224.509995</ele>
<time>2021-05-07T13:57:53.191Z</time>
</trkpt>
<trkpt lat="31.8241400" lon="34.9998200">
<ele>224.540009</ele>
<time>2021-05-07T13:57:53.191Z</time>
</trkpt>
<trkpt lat="31.8239700" lon="34.9994600">
<ele>226.199997</ele>
<time>2021-05-07T13:57:53.191Z</time>
</trkpt>
<trkpt lat="31.8238700" lon="34.9993000">
<ele>229.100006</ele>
<time>2021-05-07T13:57:53.191Z</time>
</trkpt>
<trkpt lat="31.8236900" lon="34.9991000">
<ele>235.710007</ele>
<time>2021-05-07T13:57:53.191Z</time>
</trkpt>
<trkpt lat="31.8236900" lon="34.9991000">
<ele>235.710007</ele>
<time>2021-05-07T13:57:53.191Z</time>
</trkpt>
<trkpt lat="31.8237000" lon="34.9991000">
<ele>235.389999</ele>
<time>2021-05-07T13:57:53.191Z</time>
</trkpt>
<trkpt lat="31.8235800" lon="34.9989800">
<ele>237.429993</ele>
<time>2021-05-07T13:57:53.191Z</time>
</trkpt>
<trkpt lat="31.8235300" lon="34.9988800">
<ele>237.029999</ele>
<time>2021-05-07T13:57:53.191Z</time>
</trkpt>
<trkpt lat="31.8235200" lon="34.9987900">
<ele>235.770004</ele>
<time>2021-05-07T13:57:53.191Z</time>
</trkpt>
<trkpt lat="31.8235200" lon="34.9987000">
<ele>234.360001</ele>
<time>2021-05-07T13:57:53.191Z</time>
</trkpt>
<trkpt lat="31.8235800" lon="34.9982700">
<ele>227.779999</ele>
<time>2021-05-07T13:57:53.191Z</time>
</trkpt>
<trkpt lat="31.8235600" lon="34.9981400">
<ele>228.289993</ele>
<time>2021-05-07T13:57:53.191Z</time>
</trkpt>
<trkpt lat="31.8234500" lon="34.9978900">
<ele>230.709991</ele>
<time>2021-05-07T13:57:53.191Z</time>
</trkpt>
<trkpt lat="31.8233200" lon="34.9975200">
<ele>232.130005</ele>
<time>2021-05-07T13:57:53.191Z</time>
</trkpt>
<trkpt lat="31.8232000" lon="34.9969500">
<ele>228.480011</ele>
<time>2021-05-07T13:57:53.191Z</time>
</trkpt>
<trkpt lat="31.8232500" lon="34.9965300">
<ele>226.470016</ele>
<time>2021-05-07T13:57:53.191Z</time>
</trkpt>
<trkpt lat="31.8235100" lon="34.9958400">
<ele>220.300003</ele>
<time>2021-05-07T13:57:53.191Z</time>
</trkpt>
<trkpt lat="31.8228300" lon="34.9956900">
<ele>218.460007</ele>
<time>2021-05-07T13:57:53.191Z</time>
</trkpt>
<trkpt lat="31.8224800" lon="34.9954700">
<ele>213.499985</ele>
<time>2021-05-07T13:57:53.191Z</time>
</trkpt>
<trkpt lat="31.8224300" lon="34.9954800">
<ele>213.040009</ele>
<time>2021-05-07T13:57:53.191Z</time>
</trkpt>
<trkpt lat="31.8224300" lon="34.9954800">
<ele>213.040009</ele>
<time>2021-05-07T13:57:53.191Z</time>
</trkpt>
<trkpt lat="31.8221500" lon="34.9955200">
<ele>211.550003</ele>
<time>2021-05-07T13:57:53.191Z</time>
</trkpt>
<trkpt lat="31.8216000" lon="34.9961400">
<ele>209.210007</ele>
<time>2021-05-07T13:57:53.191Z</time>
</trkpt>
<trkpt lat="31.8212900" lon="34.9964000">
<ele>210.010010</ele>
<time>2021-05-07T13:57:53.191Z</time>
</trkpt>
<trkpt lat="31.8211400" lon="34.9964500">
<ele>208.750000</ele>
<time>2021-05-07T13:57:53.191Z</time>
</trkpt>
<trkpt lat="31.8208500" lon="34.9964700">
<ele>215.709991</ele>
<time>2021-05-07T13:57:53.192Z</time>
</trkpt>
<trkpt lat="31.8204600" lon="34.9964000">
<ele>223.589996</ele>
<time>2021-05-07T13:57:53.192Z</time>
</trkpt>
<trkpt lat="31.8199700" lon="34.9962900">
<ele>216.119995</ele>
<time>2021-05-07T13:57:53.192Z</time>
</trkpt>
<trkpt lat="31.8195200" lon="34.9962700">
<ele>217.030014</ele>
<time>2021-05-07T13:57:53.192Z</time>
</trkpt>
<trkpt lat="31.8191700" lon="34.9965700">
<ele>223.259995</ele>
<time>2021-05-07T13:57:53.192Z</time>
</trkpt>
<trkpt lat="31.8191500" lon="34.9964500">
<ele>221.300003</ele>
<time>2021-05-07T13:57:53.192Z</time>
</trkpt>
<trkpt lat="31.8188900" lon="34.9960000">
<ele>222.580002</ele>
<time>2021-05-07T13:57:53.192Z</time>
</trkpt>
<trkpt lat="31.8188400" lon="34.9958300">
<ele>222.550003</ele>
<time>2021-05-07T13:57:53.192Z</time>
</trkpt>
<trkpt lat="31.8188100" lon="34.9957000">
<ele>223.539993</ele>
<time>2021-05-07T13:57:53.192Z</time>
</trkpt>
<trkpt lat="31.8187200" lon="34.9955400">
<ele>224.690002</ele>
<time>2021-05-07T13:57:53.192Z</time>
</trkpt>
<trkpt lat="31.8187200" lon="34.9954800">
<ele>224.990005</ele>
<time>2021-05-07T13:57:53.192Z</time>
</trkpt>
<trkpt lat="31.8187200" lon="34.9954800">
<ele>224.990005</ele>
<time>2021-05-07T13:57:53.192Z</time>
</trkpt>
<trkpt lat="31.8187200" lon="34.9954800">
<ele>224.990005</ele>
<time>2021-05-07T13:57:53.192Z</time>
</trkpt>
<trkpt lat="31.8187200" lon="34.9953700">
<ele>225.539993</ele>
<time>2021-05-07T13:57:53.192Z</time>
</trkpt>
<trkpt lat="31.8187500" lon="34.9952500">
<ele>226.100006</ele>
<time>2021-05-07T13:57:53.192Z</time>
</trkpt>
<trkpt lat="31.8188500" lon="34.9949800">
<ele>231.159988</ele>
<time>2021-05-07T13:57:53.192Z</time>
</trkpt>
<trkpt lat="31.8188500" lon="34.9948500">
<ele>234.770004</ele>
<time>2021-05-07T13:57:53.192Z</time>
</trkpt>
<trkpt lat="31.8188300" lon="34.9947700">
<ele>236.149994</ele>
<time>2021-05-07T13:57:53.192Z</time>
</trkpt>
<trkpt lat="31.8187900" lon="34.9947000">
<ele>236.460007</ele>
<time>2021-05-07T13:57:53.192Z</time>
</trkpt>
<trkpt lat="31.8186700" lon="34.9946000">
<ele>235.699997</ele>
<time>2021-05-07T13:57:53.192Z</time>
</trkpt>
<trkpt lat="31.8185300" lon="34.9945600">
<ele>234.739990</ele>
<time>2021-05-07T13:57:53.192Z</time>
</trkpt>
<trkpt lat="31.8183500" lon="34.9945500">
<ele>233.149994</ele>
<time>2021-05-07T13:57:53.192Z</time>
</trkpt>
<trkpt lat="31.8182800" lon="34.9945200">
<ele>233.649994</ele>
<time>2021-05-07T13:57:53.192Z</time>
</trkpt>
<trkpt lat="31.8181400" lon="34.9945000">
<ele>233.559998</ele>
<time>2021-05-07T13:57:53.192Z</time>
</trkpt>
<trkpt lat="31.8180700" lon="34.9944700">
<ele>233.720001</ele>
<time>2021-05-07T13:57:53.192Z</time>
</trkpt>
<trkpt lat="31.8177900" lon="34.9944200">
<ele>239.410004</ele>
<time>2021-05-07T13:57:53.192Z</time>
</trkpt>
<trkpt lat="31.8176200" lon="34.9943500">
<ele>242.710007</ele>
<time>2021-05-07T13:57:53.192Z</time>
</trkpt>
<trkpt lat="31.8174800" lon="34.9943300">
<ele>244.579987</ele>
<time>2021-05-07T13:57:53.192Z</time>
</trkpt>
<trkpt lat="31.8172900" lon="34.9942200">
<ele>250.489990</ele>
<time>2021-05-07T13:57:53.193Z</time>
</trkpt>
<trkpt lat="31.8172100" lon="34.9941500">
<ele>253.430008</ele>
<time>2021-05-07T13:57:53.193Z</time>
</trkpt>
<trkpt lat="31.8171000" lon="34.9938700">
<ele>258.640015</ele>
<time>2021-05-07T13:57:53.193Z</time>
</trkpt>
<trkpt lat="31.8170500" lon="34.9937100">
<ele>260.549988</ele>
<time>2021-05-07T13:57:53.193Z</time>
</trkpt>
<trkpt lat="31.8170100" lon="34.9935900">
<ele>262.010010</ele>
<time>2021-05-07T13:57:53.193Z</time>
</trkpt>
<trkpt lat="31.8169200" lon="34.9931300">
<ele>265.399994</ele>
<time>2021-05-07T13:57:53.193Z</time>
</trkpt>
<trkpt lat="31.8168300" lon="34.9929500">
<ele>263.209991</ele>
<time>2021-05-07T13:57:53.193Z</time>
</trkpt>
<trkpt lat="31.8167400" lon="34.9928800">
<ele>261.160004</ele>
<time>2021-05-07T13:57:53.193Z</time>
</trkpt>
<trkpt lat="31.8166300" lon="34.9928800">
<ele>259.479980</ele>
<time>2021-05-07T13:57:53.193Z</time>
</trkpt>
<trkpt lat="31.8165600" lon="34.9928900">
<ele>258.369995</ele>
<time>2021-05-07T13:57:53.193Z</time>
</trkpt>
<trkpt lat="31.8164500" lon="34.9929200">
<ele>256.619995</ele>
<time>2021-05-07T13:57:53.193Z</time>
</trkpt>
<trkpt lat="31.8164300" lon="34.9930300">
<ele>256.769989</ele>
<time>2021-05-07T13:57:53.193Z</time>
</trkpt>
<trkpt lat="31.8163200" lon="34.9931800">
<ele>254.939987</ele>
<time>2021-05-07T13:57:53.193Z</time>
</trkpt>
<trkpt lat="31.8162100" lon="34.9933600">
<ele>252.779999</ele>
<time>2021-05-07T13:57:53.193Z</time>
</trkpt>
<trkpt lat="31.8160900" lon="34.9934200">
<ele>250.610001</ele>
<time>2021-05-07T13:57:53.193Z</time>
</trkpt>
<trkpt lat="31.8160200" lon="34.9934300">
<ele>248.989990</ele>
<time>2021-05-07T13:57:53.193Z</time>
</trkpt>
<trkpt lat="31.8159400" lon="34.9933800">
<ele>247.800003</ele>
<time>2021-05-07T13:57:53.193Z</time>
</trkpt>
<trkpt lat="31.8158400" lon="34.9932500">
<ele>247.330002</ele>
<time>2021-05-07T13:57:53.193Z</time>
</trkpt>
<trkpt lat="31.8157400" lon="34.9931600">
<ele>250.010010</ele>
<time>2021-05-07T13:57:53.193Z</time>
</trkpt>
<trkpt lat="31.8153700" lon="34.9930500">
<ele>258.160004</ele>
<time>2021-05-07T13:57:53.193Z</time>
</trkpt>
<trkpt lat="31.8149100" lon="34.9928300">
<ele>263.339996</ele>
<time>2021-05-07T13:57:53.193Z</time>
</trkpt>
<trkpt lat="31.8148700" lon="34.9928400">
<ele>262.799988</ele>
<time>2021-05-07T13:57:53.193Z</time>
</trkpt>
<trkpt lat="31.8148200" lon="34.9928500">
<ele>262.179993</ele>
<time>2021-05-07T13:57:53.193Z</time>
</trkpt>
<trkpt lat="31.8147500" lon="34.9929300">
<ele>260.600006</ele>
<time>2021-05-07T13:57:53.193Z</time>
</trkpt>
<trkpt lat="31.8146300" lon="34.9932800">
<ele>254.899994</ele>
<time>2021-05-07T13:57:53.193Z</time>
</trkpt>
<trkpt lat="31.8145600" lon="34.9934500">
<ele>251.740005</ele>
<time>2021-05-07T13:57:53.194Z</time>
</trkpt>
<trkpt lat="31.8144600" lon="34.9936200">
<ele>248.190002</ele>
<time>2021-05-07T13:57:53.194Z</time>
</trkpt>
<trkpt lat="31.8138100" lon="34.9938300">
<ele>251.539993</ele>
<time>2021-05-07T13:57:53.194Z</time>
</trkpt>
<trkpt lat="31.8133900" lon="34.9940600">
<ele>258.399994</ele>
<time>2021-05-07T13:57:53.194Z</time>
</trkpt>
<trkpt lat="31.8130000" lon="34.9942000">
<ele>250.979996</ele>
<time>2021-05-07T13:57:53.194Z</time>
</trkpt>
<trkpt lat="31.8127300" lon="34.9943000">
<ele>254.610001</ele>
<time>2021-05-07T13:57:53.194Z</time>
</trkpt>
<trkpt lat="31.8125600" lon="34.9943900">
<ele>254.350006</ele>
<time>2021-05-07T13:57:53.194Z</time>
</trkpt>
<trkpt lat="31.8115800" lon="34.9945400">
<ele>259.089996</ele>
<time>2021-05-07T13:57:53.194Z</time>
</trkpt>
<trkpt lat="31.8114600" lon="34.9945400">
<ele>259.250000</ele>
<time>2021-05-07T13:57:53.194Z</time>
</trkpt>
<trkpt lat="31.8114600" lon="34.9945400">
<ele>259.250000</ele>
<time>2021-05-07T13:57:53.194Z</time>
</trkpt>
<trkpt lat="31.8114600" lon="34.9945400">
<ele>259.250000</ele>
<time>2021-05-07T13:57:53.194Z</time>
</trkpt>
<trkpt lat="31.8110100" lon="34.9945500">
<ele>257.059998</ele>
<time>2021-05-07T13:57:53.194Z</time>
</trkpt>
<trkpt lat="31.8105600" lon="34.9948000">
<ele>258.259979</ele>
<time>2021-05-07T13:57:53.194Z</time>
</trkpt>
<trkpt lat="31.8105900" lon="34.9949700">
<ele>258.769989</ele>
<time>2021-05-07T13:57:53.194Z</time>
</trkpt>
<trkpt lat="31.8106600" lon="34.9950500">
<ele>259.279999</ele>
<time>2021-05-07T13:57:53.194Z</time>
</trkpt>
<trkpt lat="31.8107400" lon="34.9950900">
<ele>259.419983</ele>
<time>2021-05-07T13:57:53.194Z</time>
</trkpt>
<trkpt lat="31.8109600" lon="34.9951600">
<ele>260.779999</ele>
<time>2021-05-07T13:57:53.194Z</time>
</trkpt>
<trkpt lat="31.8112100" lon="34.9951900">
<ele>262.300018</ele>
<time>2021-05-07T13:57:53.194Z</time>
</trkpt>
<trkpt lat="31.8114000" lon="34.9952500">
<ele>262.279999</ele>
<time>2021-05-07T13:57:53.194Z</time>
</trkpt>
<trkpt lat="31.8116100" lon="34.9952800">
<ele>258.360016</ele>
<time>2021-05-07T13:57:53.194Z</time>
</trkpt>
<trkpt lat="31.8118000" lon="34.9953500">
<ele>260.209991</ele>
<time>2021-05-07T13:57:53.194Z</time>
</trkpt>
<trkpt lat="31.8120900" lon="34.9955200">
<ele>266.640015</ele>
<time>2021-05-07T13:57:53.194Z</time>
</trkpt>
<trkpt lat="31.8124600" lon="34.9958200">
<ele>276.059998</ele>
<time>2021-05-07T13:57:53.194Z</time>
</trkpt>
<trkpt lat="31.8130000" lon="34.9963400">
<ele>281.980011</ele>
<time>2021-05-07T13:57:53.194Z</time>
</trkpt>
<trkpt lat="31.8131200" lon="34.9964900">
<ele>283.350006</ele>
<time>2021-05-07T13:57:53.194Z</time>
</trkpt>
<trkpt lat="31.8131400" lon="34.9965300">
<ele>283.559998</ele>
<time>2021-05-07T13:57:53.194Z</time>
</trkpt>
<trkpt lat="31.8131400" lon="34.9965300">
<ele>283.559998</ele>
<time>2021-05-07T13:57:53.195Z</time>
</trkpt>
<trkpt lat="31.8131700" lon="34.9966100">
<ele>284.100006</ele>
<time>2021-05-07T13:57:53.195Z</time>
</trkpt>
<trkpt lat="31.8131800" lon="34.9967800">
<ele>284.369995</ele>
<time>2021-05-07T13:57:53.195Z</time>
</trkpt>
<trkpt lat="31.8131700" lon="34.9968800">
<ele>284.269989</ele>
<time>2021-05-07T13:57:53.195Z</time>
</trkpt>
<trkpt lat="31.8130700" lon="34.9971300">
<ele>286.299988</ele>
<time>2021-05-07T13:57:53.195Z</time>
</trkpt>
<trkpt lat="31.8128900" lon="34.9973700">
<ele>284.079987</ele>
<time>2021-05-07T13:57:53.195Z</time>
</trkpt>
<trkpt lat="31.8127600" lon="34.9975000">
<ele>282.000000</ele>
<time>2021-05-07T13:57:53.195Z</time>
</trkpt>
<trkpt lat="31.8126200" lon="34.9976000">
<ele>281.479980</ele>
<time>2021-05-07T13:57:53.195Z</time>
</trkpt>
<trkpt lat="31.8123700" lon="34.9977500">
<ele>282.600006</ele>
<time>2021-05-07T13:57:53.195Z</time>
</trkpt>
<trkpt lat="31.8122300" lon="34.9978000">
<ele>284.000000</ele>
<time>2021-05-07T13:57:53.195Z</time>
</trkpt>
<trkpt lat="31.8120800" lon="34.9978800">
<ele>287.199982</ele>
<time>2021-05-07T13:57:53.195Z</time>
</trkpt>
<trkpt lat="31.8119800" lon="34.9979600">
<ele>288.470001</ele>
<time>2021-05-07T13:57:53.195Z</time>
</trkpt>
<trkpt lat="31.8116000" lon="34.9981500">
<ele>291.049988</ele>
<time>2021-05-07T13:57:53.195Z</time>
</trkpt>
<trkpt lat="31.8115400" lon="34.9981600">
<ele>291.410004</ele>
<time>2021-05-07T13:57:53.195Z</time>
</trkpt>
<trkpt lat="31.8113100" lon="34.9982800">
<ele>294.609985</ele>
<time>2021-05-07T13:57:53.195Z</time>
</trkpt>
<trkpt lat="31.8111800" lon="34.9983300">
<ele>295.019989</ele>
<time>2021-05-07T13:57:53.195Z</time>
</trkpt>
<trkpt lat="31.8103700" lon="34.9985000">
<ele>301.529999</ele>
<time>2021-05-07T13:57:53.195Z</time>
</trkpt>
<trkpt lat="31.8101100" lon="34.9985800">
<ele>303.660004</ele>
<time>2021-05-07T13:57:53.195Z</time>
</trkpt>
<trkpt lat="31.8099300" lon="34.9986400">
<ele>306.180023</ele>
<time>2021-05-07T13:57:53.195Z</time>
</trkpt>
<trkpt lat="31.8096800" lon="34.9987600">
<ele>308.660004</ele>
<time>2021-05-07T13:57:53.195Z</time>
</trkpt>
<trkpt lat="31.8095500" lon="34.9987600">
<ele>310.250000</ele>
<time>2021-05-07T13:57:53.195Z</time>
</trkpt>
<trkpt lat="31.8090800" lon="34.9986300">
<ele>318.359985</ele>
<time>2021-05-07T13:57:53.195Z</time>
</trkpt>
<trkpt lat="31.8090100" lon="34.9985700">
<ele>319.399994</ele>
<time>2021-05-07T13:57:53.195Z</time>
</trkpt>
<trkpt lat="31.8089600" lon="34.9985100">
<ele>320.339996</ele>
<time>2021-05-07T13:57:53.195Z</time>
</trkpt>
<trkpt lat="31.8089200" lon="34.9984100">
<ele>321.279999</ele>
<time>2021-05-07T13:57:53.195Z</time>
</trkpt>
<trkpt lat="31.8089200" lon="34.9981600">
<ele>320.299988</ele>
<time>2021-05-07T13:57:53.195Z</time>
</trkpt>
<trkpt lat="31.8089400" lon="34.9981000">
<ele>319.580017</ele>
<time>2021-05-07T13:57:53.195Z</time>
</trkpt>
<trkpt lat="31.8089600" lon="34.9978100">
<ele>318.300018</ele>
<time>2021-05-07T13:57:53.195Z</time>
</trkpt>
<trkpt lat="31.8090500" lon="34.9972500">
<ele>313.690002</ele>
<time>2021-05-07T13:57:53.196Z</time>
</trkpt>
<trkpt lat="31.8090100" lon="34.9969800">
<ele>313.619995</ele>
<time>2021-05-07T13:57:53.196Z</time>
</trkpt>
<trkpt lat="31.8089300" lon="34.9968200">
<ele>314.529999</ele>
<time>2021-05-07T13:57:53.196Z</time>
</trkpt>
<trkpt lat="31.8087900" lon="34.9967200">
<ele>314.690002</ele>
<time>2021-05-07T13:57:53.197Z</time>
</trkpt>
<trkpt lat="31.8087100" lon="34.9967000">
<ele>314.059998</ele>
<time>2021-05-07T13:57:53.197Z</time>
</trkpt>
<trkpt lat="31.8084400" lon="34.9967000">
<ele>314.339996</ele>
<time>2021-05-07T13:57:53.197Z</time>
</trkpt>
<trkpt lat="31.8083500" lon="34.9967300">
<ele>314.720001</ele>
<time>2021-05-07T13:57:53.197Z</time>
</trkpt>
<trkpt lat="31.8083500" lon="34.9967300">
<ele>314.720001</ele>
<time>2021-05-07T13:57:53.197Z</time>
</trkpt>
<trkpt lat="31.8083500" lon="34.9967300">
<ele>314.720001</ele>
<time>2021-05-07T13:57:53.197Z</time>
</trkpt>
<trkpt lat="31.8083200" lon="34.9967400">
<ele>314.830017</ele>
<time>2021-05-07T13:57:53.197Z</time>
</trkpt>
<trkpt lat="31.8079000" lon="34.9969700">
<ele>319.940002</ele>
<time>2021-05-07T13:57:53.197Z</time>
</trkpt>
<trkpt lat="31.8076500" lon="34.9972200">
<ele>324.049988</ele>
<time>2021-05-07T13:57:53.197Z</time>
</trkpt>
<trkpt lat="31.8074900" lon="34.9974700">
<ele>326.390015</ele>
<time>2021-05-07T13:57:53.197Z</time>
</trkpt>
<trkpt lat="31.8073400" lon="34.9978500">
<ele>329.779968</ele>
<time>2021-05-07T13:57:53.197Z</time>
</trkpt>
<trkpt lat="31.8073300" lon="34.9988700">
<ele>337.529999</ele>
<time>2021-05-07T13:57:53.197Z</time>
</trkpt>
<trkpt lat="31.8072900" lon="34.9989600">
<ele>336.840027</ele>
<time>2021-05-07T13:57:53.197Z</time>
</trkpt>
<trkpt lat="31.8072100" lon="34.9990800">
<ele>335.170013</ele>
<time>2021-05-07T13:57:53.197Z</time>
</trkpt>
<trkpt lat="31.8071600" lon="34.9991400">
<ele>334.400024</ele>
<time>2021-05-07T13:57:53.197Z</time>
</trkpt>
<trkpt lat="31.8069700" lon="34.9992500">
<ele>333.179993</ele>
<time>2021-05-07T13:57:53.197Z</time>
</trkpt>
<trkpt lat="31.8066700" lon="34.9992700">
<ele>334.839996</ele>
<time>2021-05-07T13:57:53.197Z</time>
</trkpt>
<trkpt lat="31.8062600" lon="34.9991100">
<ele>338.110016</ele>
<time>2021-05-07T13:57:53.197Z</time>
</trkpt>
<trkpt lat="31.8060200" lon="34.9990300">
<ele>339.339996</ele>
<time>2021-05-07T13:57:53.197Z</time>
</trkpt>
<trkpt lat="31.8059200" lon="34.9989800">
<ele>340.059998</ele>
<time>2021-05-07T13:57:53.197Z</time>
</trkpt>
<trkpt lat="31.8058400" lon="34.9989000">
<ele>340.059998</ele>
<time>2021-05-07T13:57:53.197Z</time>
</trkpt>
<trkpt lat="31.8057900" lon="34.9988400">
<ele>339.849976</ele>
<time>2021-05-07T13:57:53.197Z</time>
</trkpt>
<trkpt lat="31.8056700" lon="34.9985300">
<ele>335.059998</ele>
<time>2021-05-07T13:57:53.197Z</time>
</trkpt>
<trkpt lat="31.8055800" lon="34.9983300">
<ele>332.510010</ele>
<time>2021-05-07T13:57:53.197Z</time>
</trkpt>
<trkpt lat="31.8054700" lon="34.9981600">
<ele>332.349976</ele>
<time>2021-05-07T13:57:53.197Z</time>
</trkpt>
<trkpt lat="31.8053800" lon="34.9980600">
<ele>332.860016</ele>
<time>2021-05-07T13:57:53.197Z</time>
</trkpt>
<trkpt lat="31.8051500" lon="34.9979300">
<ele>334.149994</ele>
<time>2021-05-07T13:57:53.197Z</time>
</trkpt>
<trkpt lat="31.8049600" lon="34.9978800">
<ele>333.729980</ele>
<time>2021-05-07T13:57:53.197Z</time>
</trkpt>
<trkpt lat="31.8047800" lon="34.9978800">
<ele>333.259979</ele>
<time>2021-05-07T13:57:53.197Z</time>
</trkpt>
<trkpt lat="31.8045900" lon="34.9979300">
<ele>331.520020</ele>
<time>2021-05-07T13:57:53.197Z</time>
</trkpt>
<trkpt lat="31.8043700" lon="34.9980400">
<ele>330.020020</ele>
<time>2021-05-07T13:57:53.198Z</time>
</trkpt>
<trkpt lat="31.8042000" lon="34.9981900">
<ele>330.299988</ele>
<time>2021-05-07T13:57:53.198Z</time>
</trkpt>
<trkpt lat="31.8040000" lon="34.9984000">
<ele>330.540009</ele>
<time>2021-05-07T13:57:53.198Z</time>
</trkpt>
<trkpt lat="31.8038000" lon="34.9985800">
<ele>330.519989</ele>
<time>2021-05-07T13:57:53.198Z</time>
</trkpt>
<trkpt lat="31.8034100" lon="34.9988700">
<ele>331.140015</ele>
<time>2021-05-07T13:57:53.198Z</time>
</trkpt>
<trkpt lat="31.8028800" lon="34.9993800">
<ele>336.100006</ele>
<time>2021-05-07T13:57:53.198Z</time>
</trkpt>
<trkpt lat="31.8028200" lon="34.9994100">
<ele>335.300018</ele>
<time>2021-05-07T13:57:53.198Z</time>
</trkpt>
<trkpt lat="31.8027500" lon="34.9994500">
<ele>335.569977</ele>
<time>2021-05-07T13:57:53.198Z</time>
</trkpt>
<trkpt lat="31.8026400" lon="34.9994500">
<ele>337.089996</ele>
<time>2021-05-07T13:57:53.198Z</time>
</trkpt>
<trkpt lat="31.8025900" lon="34.9994300">
<ele>337.390015</ele>
<time>2021-05-07T13:57:53.198Z</time>
</trkpt>
<trkpt lat="31.8025700" lon="34.9994100">
<ele>337.250000</ele>
<time>2021-05-07T13:57:53.198Z</time>
</trkpt>
<trkpt lat="31.8022800" lon="34.9991800">
<ele>337.170013</ele>
<time>2021-05-07T13:57:53.198Z</time>
</trkpt>
<trkpt lat="31.8022400" lon="34.9991400">
<ele>337.390015</ele>
<time>2021-05-07T13:57:53.198Z</time>
</trkpt>
<trkpt lat="31.8021800" lon="34.9990000">
<ele>337.050018</ele>
<time>2021-05-07T13:57:53.198Z</time>
</trkpt>
<trkpt lat="31.8020800" lon="34.9988900">
<ele>338.080017</ele>
<time>2021-05-07T13:57:53.198Z</time>
</trkpt>
<trkpt lat="31.8018600" lon="34.9988000">
<ele>342.279968</ele>
<time>2021-05-07T13:57:53.198Z</time>
</trkpt>
<trkpt lat="31.8017100" lon="34.9986900">
<ele>345.239990</ele>
<time>2021-05-07T13:57:53.198Z</time>
</trkpt>
<trkpt lat="31.8016200" lon="34.9986500">
<ele>346.450012</ele>
<time>2021-05-07T13:57:53.198Z</time>
</trkpt>
<trkpt lat="31.8015300" lon="34.9986600">
<ele>347.070007</ele>
<time>2021-05-07T13:57:53.198Z</time>
</trkpt>
<trkpt lat="31.8014500" lon="34.9986900">
<ele>347.619995</ele>
<time>2021-05-07T13:57:53.198Z</time>
</trkpt>
<trkpt lat="31.8010700" lon="34.9990500">
<ele>350.419983</ele>
<time>2021-05-07T13:57:53.198Z</time>
</trkpt>
<trkpt lat="31.8009700" lon="34.9991700">
<ele>352.550018</ele>
<time>2021-05-07T13:57:53.198Z</time>
</trkpt>
<trkpt lat="31.8008800" lon="34.9993000">
<ele>355.169983</ele>
<time>2021-05-07T13:57:53.198Z</time>
</trkpt>
<trkpt lat="31.8008600" lon="34.9994000">
<ele>356.830017</ele>
<time>2021-05-07T13:57:53.198Z</time>
</trkpt>
<trkpt lat="31.8008600" lon="34.9995900">
<ele>358.820007</ele>
<time>2021-05-07T13:57:53.198Z</time>
</trkpt>
<trkpt lat="31.8008500" lon="34.9997000">
<ele>359.870026</ele>
<time>2021-05-07T13:57:53.198Z</time>
</trkpt>
<trkpt lat="31.8007900" lon="34.9997700">
<ele>361.059998</ele>
<time>2021-05-07T13:57:53.198Z</time>
</trkpt>
<trkpt lat="31.8007300" lon="34.9998100">
<ele>362.079987</ele>
<time>2021-05-07T13:57:53.198Z</time>
</trkpt>
<trkpt lat="31.8005500" lon="34.9998300">
<ele>364.069977</ele>
<time>2021-05-07T13:57:53.198Z</time>
</trkpt>
<trkpt lat="31.8005200" lon="34.9998300">
<ele>364.429993</ele>
<time>2021-05-07T13:57:53.199Z</time>
</trkpt>
<trkpt lat="31.8005200" lon="34.9998300">
<ele>364.429993</ele>
<time>2021-05-07T13:57:53.199Z</time>
</trkpt>
<trkpt lat="31.8005200" lon="34.9998300">
<ele>364.429993</ele>
<time>2021-05-07T13:57:53.199Z</time>
</trkpt>
<trkpt lat="31.8001900" lon="34.9998300">
<ele>367.119995</ele>
<time>2021-05-07T13:57:53.199Z</time>
</trkpt>
<trkpt lat="31.8000000" lon="34.9997900">
<ele>365.980011</ele>
<time>2021-05-07T13:57:53.199Z</time>
</trkpt>
<trkpt lat="31.7998200" lon="34.9997900">
<ele>364.029999</ele>
<time>2021-05-07T13:57:53.199Z</time>
</trkpt>
<trkpt lat="31.7997100" lon="34.9998700">
<ele>364.000000</ele>
<time>2021-05-07T13:57:53.199Z</time>
</trkpt>
<trkpt lat="31.7996900" lon="34.9999000">
<ele>364.240021</ele>
<time>2021-05-07T13:57:53.199Z</time>
</trkpt>
<trkpt lat="31.7997000" lon="34.9999400">
<ele>364.940002</ele>
<time>2021-05-07T13:57:53.199Z</time>
</trkpt>
<trkpt lat="31.7998700" lon="35.0002100">
<ele>368.349976</ele>
<time>2021-05-07T13:57:53.199Z</time>
</trkpt>
<trkpt lat="31.7999000" lon="35.0002900">
<ele>368.660004</ele>
<time>2021-05-07T13:57:53.199Z</time>
</trkpt>
<trkpt lat="31.7999300" lon="35.0004500">
<ele>365.369995</ele>
<time>2021-05-07T13:57:53.199Z</time>
</trkpt>
<trkpt lat="31.7998400" lon="35.0006000">
<ele>361.950012</ele>
<time>2021-05-07T13:57:53.199Z</time>
</trkpt>
<trkpt lat="31.7996500" lon="35.0008100">
<ele>356.779999</ele>
<time>2021-05-07T13:57:53.199Z</time>
</trkpt>
<trkpt lat="31.7994800" lon="35.0009600">
<ele>354.650024</ele>
<time>2021-05-07T13:57:53.199Z</time>
</trkpt>
<trkpt lat="31.7993600" lon="35.0010300">
<ele>356.630005</ele>
<time>2021-05-07T13:57:53.199Z</time>
</trkpt>
<trkpt lat="31.7990800" lon="35.0010800">
<ele>365.829987</ele>
<time>2021-05-07T13:57:53.199Z</time>
</trkpt>
<trkpt lat="31.7989600" lon="35.0011200">
<ele>368.789978</ele>
<time>2021-05-07T13:57:53.199Z</time>
</trkpt>
<trkpt lat="31.7989500" lon="35.0011200">
<ele>369.079987</ele>
<time>2021-05-07T13:57:53.199Z</time>
</trkpt>
<trkpt lat="31.7989500" lon="35.0011200">
<ele>369.079987</ele>
<time>2021-05-07T13:57:53.199Z</time>
</trkpt>
<trkpt lat="31.7988500" lon="35.0011200">
<ele>370.649994</ele>
<time>2021-05-07T13:57:53.199Z</time>
</trkpt>
<trkpt lat="31.7987400" lon="35.0011000">
<ele>370.539978</ele>
<time>2021-05-07T13:57:53.199Z</time>
</trkpt>
<trkpt lat="31.7985400" lon="35.0009900">
<ele>368.789978</ele>
<time>2021-05-07T13:57:53.199Z</time>
</trkpt>
<trkpt lat="31.7982500" lon="35.0007800">
<ele>361.459991</ele>
<time>2021-05-07T13:57:53.199Z</time>
</trkpt>
<trkpt lat="31.7981600" lon="35.0007500">
<ele>358.840027</ele>
<time>2021-05-07T13:57:53.199Z</time>
</trkpt>
<trkpt lat="31.7981100" lon="35.0007300">
<ele>357.330017</ele>
<time>2021-05-07T13:57:53.199Z</time>
</trkpt>
<trkpt lat="31.7980900" lon="35.0007300">
<ele>356.799988</ele>
<time>2021-05-07T13:57:53.199Z</time>
</trkpt>
<trkpt lat="31.7980900" lon="35.0007300">
<ele>356.799988</ele>
<time>2021-05-07T13:57:53.199Z</time>
</trkpt>
<trkpt lat="31.7980900" lon="35.0007300">
<ele>356.799988</ele>
<time>2021-05-07T13:57:53.199Z</time>
</trkpt>
<trkpt lat="31.7977500" lon="35.0007300">
<ele>346.269989</ele>
<time>2021-05-07T13:57:53.199Z</time>
</trkpt>
<trkpt lat="31.7975000" lon="35.0008000">
<ele>343.000000</ele>
<time>2021-05-07T13:57:53.199Z</time>
</trkpt>
<trkpt lat="31.7971400" lon="35.0008500">
<ele>345.860016</ele>
<time>2021-05-07T13:57:53.200Z</time>
</trkpt>
<trkpt lat="31.7967600" lon="35.0007400">
<ele>352.880005</ele>
<time>2021-05-07T13:57:53.200Z</time>
</trkpt>
<trkpt lat="31.7966600" lon="35.0007100">
<ele>354.589996</ele>
<time>2021-05-07T13:57:53.200Z</time>
</trkpt>
<trkpt lat="31.7963600" lon="35.0005400">
<ele>360.070007</ele>
<time>2021-05-07T13:57:53.200Z</time>
</trkpt>
<trkpt lat="31.7960100" lon="35.0004100">
<ele>359.470001</ele>
<time>2021-05-07T13:57:53.200Z</time>
</trkpt>
<trkpt lat="31.7958400" lon="35.0003600">
<ele>357.560028</ele>
<time>2021-05-07T13:57:53.200Z</time>
</trkpt>
<trkpt lat="31.7955200" lon="35.0004300">
<ele>360.179993</ele>
<time>2021-05-07T13:57:53.200Z</time>
</trkpt>
<trkpt lat="31.7949600" lon="35.0004600">
<ele>351.090027</ele>
<time>2021-05-07T13:57:53.200Z</time>
</trkpt>
<trkpt lat="31.7943900" lon="35.0006100">
<ele>351.549988</ele>
<time>2021-05-07T13:57:53.200Z</time>
</trkpt>
<trkpt lat="31.7943300" lon="35.0006800">
<ele>352.630005</ele>
<time>2021-05-07T13:57:53.200Z</time>
</trkpt>
<trkpt lat="31.7944300" lon="35.0007900">
<ele>352.859985</ele>
<time>2021-05-07T13:57:53.200Z</time>
</trkpt>
<trkpt lat="31.7945300" lon="35.0007900">
<ele>353.419983</ele>
<time>2021-05-07T13:57:53.200Z</time>
</trkpt>
<trkpt lat="31.7949100" lon="35.0006700">
<ele>355.609985</ele>
<time>2021-05-07T13:57:53.200Z</time>
</trkpt>
<trkpt lat="31.7950500" lon="35.0006400">
<ele>357.500000</ele>
<time>2021-05-07T13:57:53.200Z</time>
</trkpt>
<trkpt lat="31.7953200" lon="35.0006500">
<ele>365.040009</ele>
<time>2021-05-07T13:57:53.200Z</time>
</trkpt>
<trkpt lat="31.7954100" lon="35.0006700">
<ele>366.980011</ele>
<time>2021-05-07T13:57:53.200Z</time>
</trkpt>
<trkpt lat="31.7956600" lon="35.0007900">
<ele>372.750000</ele>
<time>2021-05-07T13:57:53.200Z</time>
</trkpt>
<trkpt lat="31.7958200" lon="35.0009300">
<ele>374.699982</ele>
<time>2021-05-07T13:57:53.200Z</time>
</trkpt>
<trkpt lat="31.7958800" lon="35.0010100">
<ele>374.489990</ele>
<time>2021-05-07T13:57:53.200Z</time>
</trkpt>
<trkpt lat="31.7959200" lon="35.0011100">
<ele>374.429993</ele>
<time>2021-05-07T13:57:53.200Z</time>
</trkpt>
<trkpt lat="31.7959100" lon="35.0012500">
<ele>374.619995</ele>
<time>2021-05-07T13:57:53.200Z</time>
</trkpt>
<trkpt lat="31.7958100" lon="35.0015000">
<ele>377.070007</ele>
<time>2021-05-07T13:57:53.200Z</time>
</trkpt>
<trkpt lat="31.7956600" lon="35.0017100">
<ele>376.430023</ele>
<time>2021-05-07T13:57:53.200Z</time>
</trkpt>
<trkpt lat="31.7954500" lon="35.0019300">
<ele>374.810028</ele>
<time>2021-05-07T13:57:53.200Z</time>
</trkpt>
<trkpt lat="31.7948900" lon="35.0025100">
<ele>380.120026</ele>
<time>2021-05-07T13:57:53.200Z</time>
</trkpt>
<trkpt lat="31.7946200" lon="35.0027600">
<ele>383.059998</ele>
<time>2021-05-07T13:57:53.200Z</time>
</trkpt>
<trkpt lat="31.7944900" lon="35.0029100">
<ele>384.350006</ele>
<time>2021-05-07T13:57:53.200Z</time>
</trkpt>
<trkpt lat="31.7944200" lon="35.0030200">
<ele>385.009979</ele>
<time>2021-05-07T13:57:53.200Z</time>
</trkpt>
<trkpt lat="31.7940800" lon="35.0036500">
<ele>384.860016</ele>
<time>2021-05-07T13:57:53.200Z</time>
</trkpt>
<trkpt lat="31.7940000" lon="35.0038400">
<ele>382.000000</ele>
<time>2021-05-07T13:57:53.200Z</time>
</trkpt>
<trkpt lat="31.7939100" lon="35.0040200">
<ele>378.539978</ele>
<time>2021-05-07T13:57:53.200Z</time>
</trkpt>
<trkpt lat="31.7935800" lon="35.0044700">
<ele>373.250000</ele>
<time>2021-05-07T13:57:53.201Z</time>
</trkpt>
<trkpt lat="31.7935600" lon="35.0044700">
<ele>373.339996</ele>
<time>2021-05-07T13:57:53.201Z</time>
</trkpt>
<trkpt lat="31.7935200" lon="35.0044800">
<ele>373.619995</ele>
<time>2021-05-07T13:57:53.201Z</time>
</trkpt>
<trkpt lat="31.7933700" lon="35.0045200">
<ele>375.079987</ele>
<time>2021-05-07T13:57:53.201Z</time>
</trkpt>
<trkpt lat="31.7932000" lon="35.0045800">
<ele>375.739990</ele>
<time>2021-05-07T13:57:53.201Z</time>
</trkpt>
<trkpt lat="31.7930900" lon="35.0045500">
<ele>374.899994</ele>
<time>2021-05-07T13:57:53.201Z</time>
</trkpt>
<trkpt lat="31.7929300" lon="35.0051800">
<ele>375.199982</ele>
<time>2021-05-07T13:57:53.201Z</time>
</trkpt>
<trkpt lat="31.7927400" lon="35.0053800">
<ele>374.910004</ele>
<time>2021-05-07T13:57:53.201Z</time>
</trkpt>
<trkpt lat="31.7927200" lon="35.0054100">
<ele>374.890015</ele>
<time>2021-05-07T13:57:53.201Z</time>
</trkpt>
<trkpt lat="31.7914200" lon="35.0066400">
<ele>376.770020</ele>
<time>2021-05-07T13:57:53.201Z</time>
</trkpt>
<trkpt lat="31.7910800" lon="35.0069500">
<ele>370.539978</ele>
<time>2021-05-07T13:57:53.201Z</time>
</trkpt>
<trkpt lat="31.7907300" lon="35.0072000">
<ele>368.929993</ele>
<time>2021-05-07T13:57:53.201Z</time>
</trkpt>
<trkpt lat="31.7905600" lon="35.0073500">
<ele>370.369995</ele>
<time>2021-05-07T13:57:53.201Z</time>
</trkpt>
<trkpt lat="31.7902400" lon="35.0078900">
<ele>372.490021</ele>
<time>2021-05-07T13:57:53.201Z</time>
</trkpt>
<trkpt lat="31.7900600" lon="35.0081500">
<ele>372.589996</ele>
<time>2021-05-07T13:57:53.201Z</time>
</trkpt>
<trkpt lat="31.7900400" lon="35.0081800">
<ele>372.540009</ele>
<time>2021-05-07T13:57:53.201Z</time>
</trkpt>
<trkpt lat="31.7899000" lon="35.0083600">
<ele>372.059998</ele>
<time>2021-05-07T13:57:53.201Z</time>
</trkpt>
<trkpt lat="31.7897800" lon="35.0084600">
<ele>372.089996</ele>
<time>2021-05-07T13:57:53.201Z</time>
</trkpt>
<trkpt lat="31.7895900" lon="35.0085500">
<ele>371.689972</ele>
<time>2021-05-07T13:57:53.201Z</time>
</trkpt>
<trkpt lat="31.7895000" lon="35.0085800">
<ele>371.730011</ele>
<time>2021-05-07T13:57:53.201Z</time>
</trkpt>
<trkpt lat="31.7890900" lon="35.0087000">
<ele>363.330017</ele>
<time>2021-05-07T13:57:53.201Z</time>
</trkpt>
<trkpt lat="31.7886900" lon="35.0088600">
<ele>358.840027</ele>
<time>2021-05-07T13:57:53.201Z</time>
</trkpt>
<trkpt lat="31.7885200" lon="35.0089100">
<ele>356.639984</ele>
<time>2021-05-07T13:57:53.201Z</time>
</trkpt>
<trkpt lat="31.7880900" lon="35.0089900">
<ele>353.610016</ele>
<time>2021-05-07T13:57:53.201Z</time>
</trkpt>
<trkpt lat="31.7877500" lon="35.0091200">
<ele>354.890015</ele>
<time>2021-05-07T13:57:53.201Z</time>
</trkpt>
<trkpt lat="31.7876200" lon="35.0091500">
<ele>356.079987</ele>
<time>2021-05-07T13:57:53.201Z</time>
</trkpt>
<trkpt lat="31.7874900" lon="35.0091600">
<ele>356.749969</ele>
<time>2021-05-07T13:57:53.201Z</time>
</trkpt>
<trkpt lat="31.7872800" lon="35.0091300">
<ele>355.540009</ele>
<time>2021-05-07T13:57:53.201Z</time>
</trkpt>
<trkpt lat="31.7869000" lon="35.0090300">
<ele>355.220001</ele>
<time>2021-05-07T13:57:53.201Z</time>
</trkpt>
<trkpt lat="31.7863600" lon="35.0089300">
<ele>344.020020</ele>
<time>2021-05-07T13:57:53.202Z</time>
</trkpt>
<trkpt lat="31.7859500" lon="35.0088900">
<ele>343.179993</ele>
<time>2021-05-07T13:57:53.202Z</time>
</trkpt>
<trkpt lat="31.7856700" lon="35.0089400">
<ele>342.779999</ele>
<time>2021-05-07T13:57:53.202Z</time>
</trkpt>
<trkpt lat="31.7855000" lon="35.0090100">
<ele>343.359985</ele>
<time>2021-05-07T13:57:53.202Z</time>
</trkpt>
<trkpt lat="31.7853400" lon="35.0091100">
<ele>346.510010</ele>
<time>2021-05-07T13:57:53.202Z</time>
</trkpt>
<trkpt lat="31.7852100" lon="35.0092200">
<ele>347.880005</ele>
<time>2021-05-07T13:57:53.202Z</time>
</trkpt>
<trkpt lat="31.7851500" lon="35.0093000">
<ele>348.600006</ele>
<time>2021-05-07T13:57:53.202Z</time>
</trkpt>
<trkpt lat="31.7850200" lon="35.0095600">
<ele>351.390015</ele>
<time>2021-05-07T13:57:53.202Z</time>
</trkpt>
<trkpt lat="31.7849900" lon="35.0096800">
<ele>353.010010</ele>
<time>2021-05-07T13:57:53.202Z</time>
</trkpt>
<trkpt lat="31.7849400" lon="35.0100100">
<ele>355.989990</ele>
<time>2021-05-07T13:57:53.202Z</time>
</trkpt>
<trkpt lat="31.7848900" lon="35.0106900">
<ele>355.500000</ele>
<time>2021-05-07T13:57:53.202Z</time>
</trkpt>
<trkpt lat="31.7849000" lon="35.0107900">
<ele>356.040009</ele>
<time>2021-05-07T13:57:53.202Z</time>
</trkpt>
<trkpt lat="31.7849400" lon="35.0109300">
<ele>357.890015</ele>
<time>2021-05-07T13:57:53.202Z</time>
</trkpt>
<trkpt lat="31.7849600" lon="35.0110100">
<ele>359.100006</ele>
<time>2021-05-07T13:57:53.202Z</time>
</trkpt>
<trkpt lat="31.7850100" lon="35.0111300">
<ele>360.380005</ele>
<time>2021-05-07T13:57:53.202Z</time>
</trkpt>
<trkpt lat="31.7851200" lon="35.0112400">
<ele>356.020020</ele>
<time>2021-05-07T13:57:53.202Z</time>
</trkpt>
<trkpt lat="31.7852700" lon="35.0113200">
<ele>351.850006</ele>
<time>2021-05-07T13:57:53.202Z</time>
</trkpt>
<trkpt lat="31.7854600" lon="35.0113700">
<ele>350.389984</ele>
<time>2021-05-07T13:57:53.202Z</time>
</trkpt>
<trkpt lat="31.7855200" lon="35.0113700">
<ele>350.360016</ele>
<time>2021-05-07T13:57:53.202Z</time>
</trkpt>
<trkpt lat="31.7857400" lon="35.0112900">
<ele>351.350006</ele>
<time>2021-05-07T13:57:53.202Z</time>
</trkpt>
<trkpt lat="31.7859200" lon="35.0111900">
<ele>351.559998</ele>
<time>2021-05-07T13:57:53.202Z</time>
</trkpt>
<trkpt lat="31.7860800" lon="35.0110500">
<ele>351.860016</ele>
<time>2021-05-07T13:57:53.202Z</time>
</trkpt>
<trkpt lat="31.7863300" lon="35.0107900">
<ele>353.979980</ele>
<time>2021-05-07T13:57:53.202Z</time>
</trkpt>
<trkpt lat="31.7864500" lon="35.0106900">
<ele>353.390015</ele>
<time>2021-05-07T13:57:53.202Z</time>
</trkpt>
<trkpt lat="31.7865500" lon="35.0106200">
<ele>353.419983</ele>
<time>2021-05-07T13:57:53.202Z</time>
</trkpt>
<trkpt lat="31.7867700" lon="35.0105400">
<ele>354.070007</ele>
<time>2021-05-07T13:57:53.202Z</time>
</trkpt>
<trkpt lat="31.7870700" lon="35.0105100">
<ele>354.980011</ele>
<time>2021-05-07T13:57:53.202Z</time>
</trkpt>
<trkpt lat="31.7876500" lon="35.0105400">
<ele>353.350006</ele>
<time>2021-05-07T13:57:53.202Z</time>
</trkpt>
<trkpt lat="31.7886500" lon="35.0104400">
<ele>353.400024</ele>
<time>2021-05-07T13:57:53.202Z</time>
</trkpt>
<trkpt lat="31.7888000" lon="35.0104600">
<ele>351.220001</ele>
<time>2021-05-07T13:57:53.202Z</time>
</trkpt>
<trkpt lat="31.7889800" lon="35.0105200">
<ele>350.450012</ele>
<time>2021-05-07T13:57:53.203Z</time>
</trkpt>
<trkpt lat="31.7894500" lon="35.0106100">
<ele>350.960022</ele>
<time>2021-05-07T13:57:53.203Z</time>
</trkpt>
<trkpt lat="31.7897500" lon="35.0105300">
<ele>349.100006</ele>
<time>2021-05-07T13:57:53.203Z</time>
</trkpt>
<trkpt lat="31.7899400" lon="35.0104000">
<ele>350.209991</ele>
<time>2021-05-07T13:57:53.203Z</time>
</trkpt>
<trkpt lat="31.7901500" lon="35.0102800">
<ele>353.480011</ele>
<time>2021-05-07T13:57:53.203Z</time>
</trkpt>
<trkpt lat="31.7902500" lon="35.0102600">
<ele>354.290009</ele>
<time>2021-05-07T13:57:53.203Z</time>
</trkpt>
<trkpt lat="31.7905100" lon="35.0102900">
<ele>354.560028</ele>
<time>2021-05-07T13:57:53.203Z</time>
</trkpt>
<trkpt lat="31.7912200" lon="35.0104600">
<ele>353.339996</ele>
<time>2021-05-07T13:57:53.203Z</time>
</trkpt>
<trkpt lat="31.7919500" lon="35.0107000">
<ele>349.910004</ele>
<time>2021-05-07T13:57:53.203Z</time>
</trkpt>
<trkpt lat="31.7921700" lon="35.0107500">
<ele>350.509979</ele>
<time>2021-05-07T13:57:53.203Z</time>
</trkpt>
<trkpt lat="31.7924300" lon="35.0108700">
<ele>349.320007</ele>
<time>2021-05-07T13:57:53.203Z</time>
</trkpt>
<trkpt lat="31.7926100" lon="35.0111000">
<ele>349.910004</ele>
<time>2021-05-07T13:57:53.203Z</time>
</trkpt>
<trkpt lat="31.7927000" lon="35.0111300">
<ele>350.360016</ele>
<time>2021-05-07T13:57:53.203Z</time>
</trkpt>
<trkpt lat="31.7928400" lon="35.0110700">
<ele>348.929993</ele>
<time>2021-05-07T13:57:53.203Z</time>
</trkpt>
<trkpt lat="31.7929500" lon="35.0110500">
<ele>347.739990</ele>
<time>2021-05-07T13:57:53.203Z</time>
</trkpt>
<trkpt lat="31.7930400" lon="35.0110700">
<ele>347.379974</ele>
<time>2021-05-07T13:57:53.203Z</time>
</trkpt>
<trkpt lat="31.7931700" lon="35.0110900">
<ele>345.339996</ele>
<time>2021-05-07T13:57:53.203Z</time>
</trkpt>
<trkpt lat="31.7932700" lon="35.0111300">
<ele>343.600006</ele>
<time>2021-05-07T13:57:53.203Z</time>
</trkpt>
<trkpt lat="31.7935800" lon="35.0113000">
<ele>343.470001</ele>
<time>2021-05-07T13:57:53.203Z</time>
</trkpt>
<trkpt lat="31.7936800" lon="35.0113000">
<ele>343.720001</ele>
<time>2021-05-07T13:57:53.203Z</time>
</trkpt>
<trkpt lat="31.7937500" lon="35.0112200">
<ele>343.179993</ele>
<time>2021-05-07T13:57:53.203Z</time>
</trkpt>
<trkpt lat="31.7937900" lon="35.0110800">
<ele>342.700012</ele>
<time>2021-05-07T13:57:53.203Z</time>
</trkpt>
<trkpt lat="31.7939200" lon="35.0110200">
<ele>344.000000</ele>
<time>2021-05-07T13:57:53.203Z</time>
</trkpt>
<trkpt lat="31.7940300" lon="35.0110000">
<ele>344.000000</ele>
<time>2021-05-07T13:57:53.203Z</time>
</trkpt>
<trkpt lat="31.7941400" lon="35.0110000">
<ele>344.000000</ele>
<time>2021-05-07T13:57:53.203Z</time>
</trkpt>
<trkpt lat="31.7943800" lon="35.0110300">
<ele>340.609985</ele>
<time>2021-05-07T13:57:53.203Z</time>
</trkpt>
<trkpt lat="31.7944700" lon="35.0110300">
<ele>340.119995</ele>
<time>2021-05-07T13:57:53.203Z</time>
</trkpt>
<trkpt lat="31.7946000" lon="35.0110500">
<ele>342.870026</ele>
<time>2021-05-07T13:57:53.203Z</time>
</trkpt>
<trkpt lat="31.7947300" lon="35.0110500">
<ele>345.400024</ele>
<time>2021-05-07T13:57:53.204Z</time>
</trkpt>
<trkpt lat="31.7949300" lon="35.0110700">
<ele>341.440002</ele>
<time>2021-05-07T13:57:53.204Z</time>
</trkpt>
<trkpt lat="31.7950700" lon="35.0110700">
<ele>339.320007</ele>
<time>2021-05-07T13:57:53.204Z</time>
</trkpt>
<trkpt lat="31.7952200" lon="35.0111300">
<ele>337.600006</ele>
<time>2021-05-07T13:57:53.204Z</time>
</trkpt>
<trkpt lat="31.7955900" lon="35.0113300">
<ele>332.090027</ele>
<time>2021-05-07T13:57:53.204Z</time>
</trkpt>
<trkpt lat="31.7956900" lon="35.0113700">
<ele>329.019989</ele>
<time>2021-05-07T13:57:53.204Z</time>
</trkpt>
<trkpt lat="31.7959000" lon="35.0114200">
<ele>323.659973</ele>
<time>2021-05-07T13:57:53.204Z</time>
</trkpt>
<trkpt lat="31.7961000" lon="35.0114200">
<ele>319.979980</ele>
<time>2021-05-07T13:57:53.204Z</time>
</trkpt>
<trkpt lat="31.7962200" lon="35.0114000">
<ele>320.279999</ele>
<time>2021-05-07T13:57:53.204Z</time>
</trkpt>
<trkpt lat="31.7962800" lon="35.0113900">
<ele>320.600006</ele>
<time>2021-05-07T13:57:53.204Z</time>
</trkpt>
<trkpt lat="31.7964100" lon="35.0113700">
<ele>321.320007</ele>
<time>2021-05-07T13:57:53.204Z</time>
</trkpt>
<trkpt lat="31.7965200" lon="35.0113700">
<ele>320.500000</ele>
<time>2021-05-07T13:57:53.204Z</time>
</trkpt>
<trkpt lat="31.7966100" lon="35.0113700">
<ele>319.830017</ele>
<time>2021-05-07T13:57:53.204Z</time>
</trkpt>
<trkpt lat="31.7967200" lon="35.0113800">
<ele>318.449982</ele>
<time>2021-05-07T13:57:53.204Z</time>
</trkpt>
<trkpt lat="31.7968200" lon="35.0113700">
<ele>317.350006</ele>
<time>2021-05-07T13:57:53.204Z</time>
</trkpt>
<trkpt lat="31.7969700" lon="35.0113300">
<ele>317.190002</ele>
<time>2021-05-07T13:57:53.204Z</time>
</trkpt>
<trkpt lat="31.7971200" lon="35.0112900">
<ele>318.970001</ele>
<time>2021-05-07T13:57:53.204Z</time>
</trkpt>
<trkpt lat="31.7973900" lon="35.0111800">
<ele>318.080017</ele>
<time>2021-05-07T13:57:53.204Z</time>
</trkpt>
<trkpt lat="31.7974500" lon="35.0111600">
<ele>316.509979</ele>
<time>2021-05-07T13:57:53.204Z</time>
</trkpt>
<trkpt lat="31.7975100" lon="35.0111500">
<ele>314.989990</ele>
<time>2021-05-07T13:57:53.204Z</time>
</trkpt>
<trkpt lat="31.7976200" lon="35.0111600">
<ele>314.920013</ele>
<time>2021-05-07T13:57:53.204Z</time>
</trkpt>
<trkpt lat="31.7978400" lon="35.0112200">
<ele>314.559998</ele>
<time>2021-05-07T13:57:53.204Z</time>
</trkpt>
<trkpt lat="31.7979600" lon="35.0112900">
<ele>314.539978</ele>
<time>2021-05-07T13:57:53.204Z</time>
</trkpt>
<trkpt lat="31.7980800" lon="35.0113400">
<ele>314.539978</ele>
<time>2021-05-07T13:57:53.205Z</time>
</trkpt>
<trkpt lat="31.7982400" lon="35.0113700">
<ele>312.889984</ele>
<time>2021-05-07T13:57:53.205Z</time>
</trkpt>
<trkpt lat="31.7982900" lon="35.0114000">
<ele>312.310028</ele>
<time>2021-05-07T13:57:53.205Z</time>
</trkpt>
<trkpt lat="31.7983400" lon="35.0114200">
<ele>311.500000</ele>
<time>2021-05-07T13:57:53.205Z</time>
</trkpt>
<trkpt lat="31.7983900" lon="35.0114400">
<ele>310.880005</ele>
<time>2021-05-07T13:57:53.205Z</time>
</trkpt>
<trkpt lat="31.7986200" lon="35.0116500">
<ele>311.039978</ele>
<time>2021-05-07T13:57:53.205Z</time>
</trkpt>
<trkpt lat="31.7987400" lon="35.0117700">
<ele>313.399994</ele>
<time>2021-05-07T13:57:53.205Z</time>
</trkpt>
<trkpt lat="31.7987600" lon="35.0117900">
<ele>313.580017</ele>
<time>2021-05-07T13:57:53.205Z</time>
</trkpt>
<trkpt lat="31.7988300" lon="35.0118600">
<ele>313.739990</ele>
<time>2021-05-07T13:57:53.205Z</time>
</trkpt>
<trkpt lat="31.7992100" lon="35.0122300">
<ele>305.049988</ele>
<time>2021-05-07T13:57:53.205Z</time>
</trkpt>
<trkpt lat="31.7992300" lon="35.0122300">
<ele>304.690002</ele>
<time>2021-05-07T13:57:53.205Z</time>
</trkpt>
<trkpt lat="31.7992400" lon="35.0122200">
<ele>304.729980</ele>
<time>2021-05-07T13:57:53.205Z</time>
</trkpt>
<trkpt lat="31.7992600" lon="35.0122200">
<ele>304.369995</ele>
<time>2021-05-07T13:57:53.205Z</time>
</trkpt>
<trkpt lat="31.7992700" lon="35.0122200">
<ele>304.190002</ele>
<time>2021-05-07T13:57:53.205Z</time>
</trkpt>
<trkpt lat="31.7992900" lon="35.0122300">
<ele>303.600006</ele>
<time>2021-05-07T13:57:53.205Z</time>
</trkpt>
<trkpt lat="31.7993000" lon="35.0122300">
<ele>303.419983</ele>
<time>2021-05-07T13:57:53.205Z</time>
</trkpt>
<trkpt lat="31.7993300" lon="35.0122500">
<ele>302.399994</ele>
<time>2021-05-07T13:57:53.205Z</time>
</trkpt>
<trkpt lat="31.7993500" lon="35.0122600">
<ele>301.790009</ele>
<time>2021-05-07T13:57:53.205Z</time>
</trkpt>
<trkpt lat="31.7993700" lon="35.0122600">
<ele>301.420013</ele>
<time>2021-05-07T13:57:53.205Z</time>
</trkpt>
<trkpt lat="31.7993800" lon="35.0122700">
<ele>301.000000</ele>
<time>2021-05-07T13:57:53.205Z</time>
</trkpt>
<trkpt lat="31.7994000" lon="35.0122800">
<ele>300.380005</ele>
<time>2021-05-07T13:57:53.205Z</time>
</trkpt>
<trkpt lat="31.7994200" lon="35.0122800">
<ele>300.000000</ele>
<time>2021-05-07T13:57:53.205Z</time>
</trkpt>
<trkpt lat="31.7994400" lon="35.0122900">
<ele>299.380005</ele>
<time>2021-05-07T13:57:53.205Z</time>
</trkpt>
<trkpt lat="31.7994500" lon="35.0122900">
<ele>299.200012</ele>
<time>2021-05-07T13:57:53.205Z</time>
</trkpt>
<trkpt lat="31.7994700" lon="35.0122900">
<ele>298.850006</ele>
<time>2021-05-07T13:57:53.205Z</time>
</trkpt>
<trkpt lat="31.7994800" lon="35.0122900">
<ele>298.679993</ele>
<time>2021-05-07T13:57:53.205Z</time>
</trkpt>
<trkpt lat="31.7995700" lon="35.0122900">
<ele>297.140015</ele>
<time>2021-05-07T13:57:53.205Z</time>
</trkpt>
<trkpt lat="31.8003300" lon="35.0122200">
<ele>294.729980</ele>
<time>2021-05-07T13:57:53.205Z</time>
</trkpt>
<trkpt lat="31.8008400" lon="35.0121700">
<ele>291.860016</ele>
<time>2021-05-07T13:57:53.205Z</time>
</trkpt>
<trkpt lat="31.8009400" lon="35.0121600">
<ele>289.910004</ele>
<time>2021-05-07T13:57:53.206Z</time>
</trkpt>
<trkpt lat="31.8010400" lon="35.0121400">
<ele>288.329987</ele>
<time>2021-05-07T13:57:53.206Z</time>
</trkpt>
<trkpt lat="31.8011300" lon="35.0121100">
<ele>287.750000</ele>
<time>2021-05-07T13:57:53.206Z</time>
</trkpt>
<trkpt lat="31.8012300" lon="35.0120800">
<ele>287.929993</ele>
<time>2021-05-07T13:57:53.206Z</time>
</trkpt>
<trkpt lat="31.8013100" lon="35.0120400">
<ele>288.179993</ele>
<time>2021-05-07T13:57:53.206Z</time>
</trkpt>
<trkpt lat="31.8014000" lon="35.0120000">
<ele>288.119995</ele>
<time>2021-05-07T13:57:53.206Z</time>
</trkpt>
<trkpt lat="31.8014700" lon="35.0119500">
<ele>288.339996</ele>
<time>2021-05-07T13:57:53.206Z</time>
</trkpt>
<trkpt lat="31.8015400" lon="35.0118900">
<ele>288.299988</ele>
<time>2021-05-07T13:57:53.206Z</time>
</trkpt>
<trkpt lat="31.8015700" lon="35.0118700">
<ele>288.230011</ele>
<time>2021-05-07T13:57:53.206Z</time>
</trkpt>
<trkpt lat="31.8016000" lon="35.0118300">
<ele>288.299988</ele>
<time>2021-05-07T13:57:53.206Z</time>
</trkpt>
<trkpt lat="31.8016600" lon="35.0117600">
<ele>288.380005</ele>
<time>2021-05-07T13:57:53.206Z</time>
</trkpt>
<trkpt lat="31.8016700" lon="35.0117500">
<ele>288.339996</ele>
<time>2021-05-07T13:57:53.206Z</time>
</trkpt>
<trkpt lat="31.8016800" lon="35.0117300">
<ele>288.329987</ele>
<time>2021-05-07T13:57:53.206Z</time>
</trkpt>
<trkpt lat="31.8016900" lon="35.0117200">
<ele>288.250000</ele>
<time>2021-05-07T13:57:53.206Z</time>
</trkpt>
<trkpt lat="31.8017100" lon="35.0117000">
<ele>288.100006</ele>
<time>2021-05-07T13:57:53.206Z</time>
</trkpt>
<trkpt lat="31.8017200" lon="35.0116900">
<ele>288.029999</ele>
<time>2021-05-07T13:57:53.206Z</time>
</trkpt>
<trkpt lat="31.8017300" lon="35.0116800">
<ele>287.970001</ele>
<time>2021-05-07T13:57:53.206Z</time>
</trkpt>
<trkpt lat="31.8017500" lon="35.0116700">
<ele>287.770020</ele>
<time>2021-05-07T13:57:53.206Z</time>
</trkpt>
<trkpt lat="31.8017600" lon="35.0116600">
<ele>287.669983</ele>
<time>2021-05-07T13:57:53.206Z</time>
</trkpt>
<trkpt lat="31.8017700" lon="35.0116500">
<ele>287.559998</ele>
<time>2021-05-07T13:57:53.206Z</time>
</trkpt>
<trkpt lat="31.8017800" lon="35.0116500">
<ele>287.420013</ele>
<time>2021-05-07T13:57:53.206Z</time>
</trkpt>
<trkpt lat="31.8018000" lon="35.0116500">
<ele>287.139984</ele>
<time>2021-05-07T13:57:53.206Z</time>
</trkpt>
<trkpt lat="31.8018200" lon="35.0116400">
<ele>286.899994</ele>
<time>2021-05-07T13:57:53.206Z</time>
</trkpt>
<trkpt lat="31.8018300" lon="35.0116300">
<ele>286.799988</ele>
<time>2021-05-07T13:57:53.206Z</time>
</trkpt>
<trkpt lat="31.8018500" lon="35.0116200">
<ele>286.579987</ele>
<time>2021-05-07T13:57:53.206Z</time>
</trkpt>
<trkpt lat="31.8018600" lon="35.0116100">
<ele>286.500000</ele>
<time>2021-05-07T13:57:53.206Z</time>
</trkpt>
<trkpt lat="31.8018700" lon="35.0116000">
<ele>286.420013</ele>
<time>2021-05-07T13:57:53.206Z</time>
</trkpt>
<trkpt lat="31.8018800" lon="35.0115800">
<ele>286.410004</ele>
<time>2021-05-07T13:57:53.206Z</time>
</trkpt>
<trkpt lat="31.8018900" lon="35.0115700">
<ele>286.339996</ele>
<time>2021-05-07T13:57:53.206Z</time>
</trkpt>
<trkpt lat="31.8019000" lon="35.0115600">
<ele>286.290009</ele>
<time>2021-05-07T13:57:53.206Z</time>
</trkpt>
<trkpt lat="31.8019100" lon="35.0115500">
<ele>286.230011</ele>
<time>2021-05-07T13:57:53.206Z</time>
</trkpt>
<trkpt lat="31.8019200" lon="35.0115500">
<ele>286.119995</ele>
<time>2021-05-07T13:57:53.207Z</time>
</trkpt>
<trkpt lat="31.8019300" lon="35.0115400">
<ele>286.070007</ele>
<time>2021-05-07T13:57:53.207Z</time>
</trkpt>
<trkpt lat="31.8019400" lon="35.0115300">
<ele>286.029999</ele>
<time>2021-05-07T13:57:53.207Z</time>
</trkpt>
<trkpt lat="31.8019500" lon="35.0115200">
<ele>286.029999</ele>
<time>2021-05-07T13:57:53.207Z</time>
</trkpt>
<trkpt lat="31.8019600" lon="35.0115200">
<ele>285.970001</ele>
<time>2021-05-07T13:57:53.207Z</time>
</trkpt>
<trkpt lat="31.8019800" lon="35.0115100">
<ele>285.940002</ele>
<time>2021-05-07T13:57:53.207Z</time>
</trkpt>
<trkpt lat="31.8019900" lon="35.0115100">
<ele>285.889984</ele>
<time>2021-05-07T13:57:53.207Z</time>
</trkpt>
<trkpt lat="31.8020300" lon="35.0114900">
<ele>285.850006</ele>
<time>2021-05-07T13:57:53.207Z</time>
</trkpt>
<trkpt lat="31.8020800" lon="35.0114700">
<ele>285.790009</ele>
<time>2021-05-07T13:57:53.207Z</time>
</trkpt>
<trkpt lat="31.8021300" lon="35.0114400">
<ele>285.839996</ele>
<time>2021-05-07T13:57:53.207Z</time>
</trkpt>
<trkpt lat="31.8021700" lon="35.0114100">
<ele>285.970001</ele>
<time>2021-05-07T13:57:53.207Z</time>
</trkpt>
<trkpt lat="31.8022100" lon="35.0113700">
<ele>286.109985</ele>
<time>2021-05-07T13:57:53.207Z</time>
</trkpt>
<trkpt lat="31.8022500" lon="35.0113400">
<ele>285.480011</ele>
<time>2021-05-07T13:57:53.207Z</time>
</trkpt>
<trkpt lat="31.8022900" lon="35.0113000">
<ele>284.609985</ele>
<time>2021-05-07T13:57:53.207Z</time>
</trkpt>
<trkpt lat="31.8023200" lon="35.0112600">
<ele>284.000000</ele>
<time>2021-05-07T13:57:53.207Z</time>
</trkpt>
<trkpt lat="31.8023600" lon="35.0112100">
<ele>283.170013</ele>
<time>2021-05-07T13:57:53.207Z</time>
</trkpt>
<trkpt lat="31.8023900" lon="35.0111700">
<ele>282.559998</ele>
<time>2021-05-07T13:57:53.207Z</time>
</trkpt>
<trkpt lat="31.8026800" lon="35.0106700">
<ele>279.639984</ele>
<time>2021-05-07T13:57:53.207Z</time>
</trkpt>
<trkpt lat="31.8027300" lon="35.0105500">
<ele>277.720001</ele>
<time>2021-05-07T13:57:53.207Z</time>
</trkpt>
<trkpt lat="31.8027400" lon="35.0104400">
<ele>277.300018</ele>
<time>2021-05-07T13:57:53.207Z</time>
</trkpt>
<trkpt lat="31.8027400" lon="35.0103600">
<ele>277.260010</ele>
<time>2021-05-07T13:57:53.207Z</time>
</trkpt>
<trkpt lat="31.8026700" lon="35.0100800">
<ele>278.500000</ele>
<time>2021-05-07T13:57:53.207Z</time>
</trkpt>
<trkpt lat="31.8026500" lon="35.0099700">
<ele>278.730011</ele>
<time>2021-05-07T13:57:53.207Z</time>
</trkpt>
<trkpt lat="31.8026400" lon="35.0098600">
<ele>279.220001</ele>
<time>2021-05-07T13:57:53.207Z</time>
</trkpt>
<trkpt lat="31.8026600" lon="35.0093500">
<ele>278.760010</ele>
<time>2021-05-07T13:57:53.207Z</time>
</trkpt>
<trkpt lat="31.8026600" lon="35.0092200">
<ele>278.089996</ele>
<time>2021-05-07T13:57:53.207Z</time>
</trkpt>
<trkpt lat="31.8026500" lon="35.0091100">
<ele>278.029999</ele>
<time>2021-05-07T13:57:53.207Z</time>
</trkpt>
<trkpt lat="31.8026400" lon="35.0090200">
<ele>278.200012</ele>
<time>2021-05-07T13:57:53.207Z</time>
</trkpt>
<trkpt lat="31.8026200" lon="35.0088600">
<ele>278.610016</ele>
<time>2021-05-07T13:57:53.207Z</time>
</trkpt>
<trkpt lat="31.8025200" lon="35.0083500">
<ele>279.690002</ele>
<time>2021-05-07T13:57:53.207Z</time>
</trkpt>
<trkpt lat="31.8024700" lon="35.0081300">
<ele>282.380005</ele>
<time>2021-05-07T13:57:53.207Z</time>
</trkpt>
<trkpt lat="31.8035700" lon="35.0077000">
<ele>267.769989</ele>
<time>2021-05-07T13:57:53.208Z</time>
</trkpt>
<trkpt lat="31.8036600" lon="35.0076600">
<ele>266.679993</ele>
<time>2021-05-07T13:57:53.208Z</time>
</trkpt>
<trkpt lat="31.8040400" lon="35.0073900">
<ele>264.149994</ele>
<time>2021-05-07T13:57:53.208Z</time>
</trkpt>
<trkpt lat="31.8041200" lon="35.0073300">
<ele>264.220001</ele>
<time>2021-05-07T13:57:53.208Z</time>
</trkpt>
<trkpt lat="31.8042000" lon="35.0072500">
<ele>263.980011</ele>
<time>2021-05-07T13:57:53.208Z</time>
</trkpt>
<trkpt lat="31.8042700" lon="35.0071700">
<ele>263.820007</ele>
<time>2021-05-07T13:57:53.208Z</time>
</trkpt>
<trkpt lat="31.8044500" lon="35.0069600">
<ele>263.850006</ele>
<time>2021-05-07T13:57:53.208Z</time>
</trkpt>
<trkpt lat="31.8045900" lon="35.0067700">
<ele>263.260010</ele>
<time>2021-05-07T13:57:53.208Z</time>
</trkpt>
<trkpt lat="31.8047800" lon="35.0064400">
<ele>264.750000</ele>
<time>2021-05-07T13:57:53.208Z</time>
</trkpt>
<trkpt lat="31.8048800" lon="35.0061400">
<ele>265.579987</ele>
<time>2021-05-07T13:57:53.208Z</time>
</trkpt>
<trkpt lat="31.8049100" lon="35.0059600">
<ele>265.299988</ele>
<time>2021-05-07T13:57:53.208Z</time>
</trkpt>
<trkpt lat="31.8049200" lon="35.0057000">
<ele>265.429993</ele>
<time>2021-05-07T13:57:53.208Z</time>
</trkpt>
<trkpt lat="31.8049000" lon="35.0054100">
<ele>266.350006</ele>
<time>2021-05-07T13:57:53.208Z</time>
</trkpt>
<trkpt lat="31.8049000" lon="35.0051900">
<ele>266.519989</ele>
<time>2021-05-07T13:57:53.208Z</time>
</trkpt>
<trkpt lat="31.8048600" lon="35.0049200">
<ele>267.809998</ele>
<time>2021-05-07T13:57:53.208Z</time>
</trkpt>
<trkpt lat="31.8048500" lon="35.0048100">
<ele>268.410004</ele>
<time>2021-05-07T13:57:53.208Z</time>
</trkpt>
<trkpt lat="31.8048600" lon="35.0046700">
<ele>269.549988</ele>
<time>2021-05-07T13:57:53.208Z</time>
</trkpt>
<trkpt lat="31.8048900" lon="35.0045700">
<ele>271.160004</ele>
<time>2021-05-07T13:57:53.208Z</time>
</trkpt>
<trkpt lat="31.8049700" lon="35.0044500">
<ele>273.079987</ele>
<time>2021-05-07T13:57:53.208Z</time>
</trkpt>
<trkpt lat="31.8051200" lon="35.0043600">
<ele>272.960022</ele>
<time>2021-05-07T13:57:53.208Z</time>
</trkpt>
<trkpt lat="31.8054700" lon="35.0042500">
<ele>270.580017</ele>
<time>2021-05-07T13:57:53.208Z</time>
</trkpt>
<trkpt lat="31.8056100" lon="35.0042200">
<ele>270.230011</ele>
<time>2021-05-07T13:57:53.208Z</time>
</trkpt>
<trkpt lat="31.8057200" lon="35.0042200">
<ele>269.360016</ele>
<time>2021-05-07T13:57:53.208Z</time>
</trkpt>
<trkpt lat="31.8057600" lon="35.0042200">
<ele>269.040009</ele>
<time>2021-05-07T13:57:53.208Z</time>
</trkpt>
<trkpt lat="31.8058600" lon="35.0042400">
<ele>267.250000</ele>
<time>2021-05-07T13:57:53.208Z</time>
</trkpt>
<trkpt lat="31.8064000" lon="35.0044300">
<ele>259.940002</ele>
<time>2021-05-07T13:57:53.208Z</time>
</trkpt>
<trkpt lat="31.8066700" lon="35.0045000">
<ele>255.929993</ele>
<time>2021-05-07T13:57:53.208Z</time>
</trkpt>
<trkpt lat="31.8067000" lon="35.0046500">
<ele>252.669998</ele>
<time>2021-05-07T13:57:53.208Z</time>
</trkpt>
<trkpt lat="31.8067600" lon="35.0048100">
<ele>251.060013</ele>
<time>2021-05-07T13:57:53.208Z</time>
</trkpt>
<trkpt lat="31.8068500" lon="35.0049400">
<ele>251.550003</ele>
<time>2021-05-07T13:57:53.208Z</time>
</trkpt>
<trkpt lat="31.8069100" lon="35.0049900">
<ele>251.960007</ele>
<time>2021-05-07T13:57:53.209Z</time>
</trkpt>
<trkpt lat="31.8074600" lon="35.0046900">
<ele>250.750000</ele>
<time>2021-05-07T13:57:53.209Z</time>
</trkpt>
<trkpt lat="31.8076700" lon="35.0047000">
<ele>255.040009</ele>
<time>2021-05-07T13:57:53.209Z</time>
</trkpt>
<trkpt lat="31.8078400" lon="35.0047500">
<ele>258.010010</ele>
<time>2021-05-07T13:57:53.209Z</time>
</trkpt>
<trkpt lat="31.8080000" lon="35.0048600">
<ele>258.089996</ele>
<time>2021-05-07T13:57:53.209Z</time>
</trkpt>
<trkpt lat="31.8081800" lon="35.0049500">
<ele>257.200012</ele>
<time>2021-05-07T13:57:53.209Z</time>
</trkpt>
<trkpt lat="31.8082600" lon="35.0049900">
<ele>256.709991</ele>
<time>2021-05-07T13:57:53.209Z</time>
</trkpt>
<trkpt lat="31.8086600" lon="35.0050000">
<ele>258.350006</ele>
<time>2021-05-07T13:57:53.209Z</time>
</trkpt>
<trkpt lat="31.8088300" lon="35.0050500">
<ele>259.829987</ele>
<time>2021-05-07T13:57:53.209Z</time>
</trkpt>
<trkpt lat="31.8090600" lon="35.0051600">
<ele>260.410004</ele>
<time>2021-05-07T13:57:53.209Z</time>
</trkpt>
<trkpt lat="31.8092400" lon="35.0051700">
<ele>259.760010</ele>
<time>2021-05-07T13:57:53.209Z</time>
</trkpt>
<trkpt lat="31.8093300" lon="35.0051100">
<ele>258.179993</ele>
<time>2021-05-07T13:57:53.209Z</time>
</trkpt>
<trkpt lat="31.8093900" lon="35.0050600">
<ele>257.079987</ele>
<time>2021-05-07T13:57:53.209Z</time>
</trkpt>
<trkpt lat="31.8094400" lon="35.0049500">
<ele>255.320007</ele>
<time>2021-05-07T13:57:53.209Z</time>
</trkpt>
<trkpt lat="31.8095400" lon="35.0047200">
<ele>252.669998</ele>
<time>2021-05-07T13:57:53.209Z</time>
</trkpt>
<trkpt lat="31.8096500" lon="35.0045600">
<ele>252.739990</ele>
<time>2021-05-07T13:57:53.209Z</time>
</trkpt>
<trkpt lat="31.8100700" lon="35.0040300">
<ele>245.649994</ele>
<time>2021-05-07T13:57:53.209Z</time>
</trkpt>
<trkpt lat="31.8101900" lon="35.0039400">
<ele>242.830002</ele>
<time>2021-05-07T13:57:53.209Z</time>
</trkpt>
<trkpt lat="31.8103800" lon="35.0038500">
<ele>243.740005</ele>
<time>2021-05-07T13:57:53.209Z</time>
</trkpt>
<trkpt lat="31.8106900" lon="35.0037500">
<ele>248.479996</ele>
<time>2021-05-07T13:57:53.209Z</time>
</trkpt>
<trkpt lat="31.8107700" lon="35.0037500">
<ele>248.770004</ele>
<time>2021-05-07T13:57:53.209Z</time>
</trkpt>
<trkpt lat="31.8109400" lon="35.0038000">
<ele>251.210007</ele>
<time>2021-05-07T13:57:53.209Z</time>
</trkpt>
<trkpt lat="31.8110400" lon="35.0038500">
<ele>253.370010</ele>
<time>2021-05-07T13:57:53.209Z</time>
</trkpt>
<trkpt lat="31.8112500" lon="35.0040100">
<ele>255.399994</ele>
<time>2021-05-07T13:57:53.209Z</time>
</trkpt>
<trkpt lat="31.8113800" lon="35.0041500">
<ele>255.859985</ele>
<time>2021-05-07T13:57:53.209Z</time>
</trkpt>
<trkpt lat="31.8114600" lon="35.0042400">
<ele>255.580002</ele>
<time>2021-05-07T13:57:53.209Z</time>
</trkpt>
<trkpt lat="31.8115200" lon="35.0043900">
<ele>256.429993</ele>
<time>2021-05-07T13:57:53.209Z</time>
</trkpt>
<trkpt lat="31.8115500" lon="35.0044700">
<ele>256.899994</ele>
<time>2021-05-07T13:57:53.209Z</time>
</trkpt>
<trkpt lat="31.8116200" lon="35.0051000">
<ele>260.089996</ele>
<time>2021-05-07T13:57:53.209Z</time>
</trkpt>
<trkpt lat="31.8116900" lon="35.0052900">
<ele>259.619995</ele>
<time>2021-05-07T13:57:53.209Z</time>
</trkpt>
<trkpt lat="31.8117900" lon="35.0054100">
<ele>257.540009</ele>
<time>2021-05-07T13:57:53.209Z</time>
</trkpt>
<trkpt lat="31.8119300" lon="35.0054200">
<ele>255.210007</ele>
<time>2021-05-07T13:57:53.210Z</time>
</trkpt>
<trkpt lat="31.8120000" lon="35.0053800">
<ele>255.259995</ele>
<time>2021-05-07T13:57:53.210Z</time>
</trkpt>
<trkpt lat="31.8120700" lon="35.0053700">
<ele>255.340012</ele>
<time>2021-05-07T13:57:53.210Z</time>
</trkpt>
<trkpt lat="31.8121200" lon="35.0053400">
<ele>255.550003</ele>
<time>2021-05-07T13:57:53.210Z</time>
</trkpt>
<trkpt lat="31.8123700" lon="35.0068400">
<ele>261.480011</ele>
<time>2021-05-07T13:57:53.210Z</time>
</trkpt>
<trkpt lat="31.8123400" lon="35.0072300">
<ele>260.979980</ele>
<time>2021-05-07T13:57:53.210Z</time>
</trkpt>
<trkpt lat="31.8123100" lon="35.0080400">
<ele>260.549988</ele>
<time>2021-05-07T13:57:53.210Z</time>
</trkpt>
<trkpt lat="31.8123000" lon="35.0085900">
<ele>260.880005</ele>
<time>2021-05-07T13:57:53.210Z</time>
</trkpt>
<trkpt lat="31.8122700" lon="35.0089200">
<ele>261.950012</ele>
<time>2021-05-07T13:57:53.210Z</time>
</trkpt>
<trkpt lat="31.8122200" lon="35.0098600">
<ele>266.479980</ele>
<time>2021-05-07T13:57:53.210Z</time>
</trkpt>
<trkpt lat="31.8121700" lon="35.0102300">
<ele>267.779999</ele>
<time>2021-05-07T13:57:53.210Z</time>
</trkpt>
<trkpt lat="31.8121400" lon="35.0104800">
<ele>268.979980</ele>
<time>2021-05-07T13:57:53.210Z</time>
</trkpt>
<trkpt lat="31.8121500" lon="35.0105700">
<ele>269.830017</ele>
<time>2021-05-07T13:57:53.210Z</time>
</trkpt>
<trkpt lat="31.8120900" lon="35.0107100">
<ele>270.260010</ele>
<time>2021-05-07T13:57:53.210Z</time>
</trkpt>
<trkpt lat="31.8119800" lon="35.0111200">
<ele>275.480011</ele>
<time>2021-05-07T13:57:53.210Z</time>
</trkpt>
<trkpt lat="31.8119000" lon="35.0114800">
<ele>278.000000</ele>
<time>2021-05-07T13:57:53.210Z</time>
</trkpt>
</trkseg>
</trk>
</gpx>
